<?xml version="1.0" encoding="UTF-8" standalone="no" ?>
<gpx xmlns="http://www.topografix.com/GPX/1/1" xmlns:xsi="http://www.w3.org/2001/XMLSchema-instance" xsi:schemaLocation="http://www.topografix.com/GPX/1/1 http://www.topografix.com/GPX/1/1/gpx.xsd" version="1.1" creator="VisuGPX - https://www.visugpx.com">
  <metadata>
    <name>Lances de Malissard</name>
  </metadata>
  <trk>
    <name><![CDATA[Saint-Pierre-d'Entremont]]></name>
    <trkseg>
      <trkpt lat="45.36854" lon="5.84007">
        <ele>1152</ele>
        <time>2022-03-10T07:51:58.702Z</time>
      </trkpt>
      <trkpt lat="45.36854" lon="5.84007">
        <ele>1152</ele>
        <time>2022-03-10T07:51:59.398Z</time>
      </trkpt>
      <trkpt lat="45.3685" lon="5.83995">
        <ele>1151</ele>
        <time>2022-03-10T07:52:14.369Z</time>
      </trkpt>
      <trkpt lat="45.36849" lon="5.83982">
        <ele>1150</ele>
        <time>2022-03-10T07:52:21.416Z</time>
      </trkpt>
      <trkpt lat="45.36849" lon="5.8397">
        <ele>1148</ele>
        <time>2022-03-10T07:52:33.408Z</time>
      </trkpt>
      <trkpt lat="45.36849" lon="5.8397">
        <ele>1148</ele>
        <time>2022-03-10T07:53:14.367Z</time>
      </trkpt>
      <trkpt lat="45.3685" lon="5.83965">
        <ele>1142</ele>
        <time>2022-03-10T07:53:15.367Z</time>
      </trkpt>
      <trkpt lat="45.36855" lon="5.83958">
        <ele>1141</ele>
        <time>2022-03-10T07:53:25.381Z</time>
      </trkpt>
      <trkpt lat="45.36855" lon="5.83958">
        <ele>1141</ele>
        <time>2022-03-10T07:53:31.389Z</time>
      </trkpt>
      <trkpt lat="45.36851" lon="5.83956">
        <ele>1141</ele>
        <time>2022-03-10T07:53:32.383Z</time>
      </trkpt>
      <trkpt lat="45.36841" lon="5.83961">
        <ele>1140</ele>
        <time>2022-03-10T07:53:41.396Z</time>
      </trkpt>
      <trkpt lat="45.36835" lon="5.8397">
        <ele>1139</ele>
        <time>2022-03-10T07:53:53.393Z</time>
      </trkpt>
      <trkpt lat="45.36828" lon="5.83979">
        <ele>1139</ele>
        <time>2022-03-10T07:54:00.399Z</time>
      </trkpt>
      <trkpt lat="45.36821" lon="5.83988">
        <ele>1139</ele>
        <time>2022-03-10T07:54:08.417Z</time>
      </trkpt>
      <trkpt lat="45.36815" lon="5.83998">
        <ele>1139</ele>
        <time>2022-03-10T07:54:16.379Z</time>
      </trkpt>
      <trkpt lat="45.36809" lon="5.84008">
        <ele>1139</ele>
        <time>2022-03-10T07:54:25.405Z</time>
      </trkpt>
      <trkpt lat="45.36803" lon="5.84018">
        <ele>1140</ele>
        <time>2022-03-10T07:54:34.397Z</time>
      </trkpt>
      <trkpt lat="45.36797" lon="5.84028">
        <ele>1141</ele>
        <time>2022-03-10T07:54:42.365Z</time>
      </trkpt>
      <trkpt lat="45.3679" lon="5.84038">
        <ele>1142</ele>
        <time>2022-03-10T07:54:50.383Z</time>
      </trkpt>
      <trkpt lat="45.36785" lon="5.8405">
        <ele>1143</ele>
        <time>2022-03-10T07:54:58.384Z</time>
      </trkpt>
      <trkpt lat="45.36778" lon="5.84061">
        <ele>1144</ele>
        <time>2022-03-10T07:55:05.411Z</time>
      </trkpt>
      <trkpt lat="45.36771" lon="5.8407">
        <ele>1146</ele>
        <time>2022-03-10T07:55:13.379Z</time>
      </trkpt>
      <trkpt lat="45.36764" lon="5.84078">
        <ele>1147</ele>
        <time>2022-03-10T07:55:20.372Z</time>
      </trkpt>
      <trkpt lat="45.36754" lon="5.84084">
        <ele>1148</ele>
        <time>2022-03-10T07:55:28.333Z</time>
      </trkpt>
      <trkpt lat="45.36746" lon="5.84086">
        <ele>1149</ele>
        <time>2022-03-10T07:55:37.390Z</time>
      </trkpt>
      <trkpt lat="45.36737" lon="5.8408">
        <ele>1151</ele>
        <time>2022-03-10T07:55:46.368Z</time>
      </trkpt>
      <trkpt lat="45.36728" lon="5.84074">
        <ele>1152</ele>
        <time>2022-03-10T07:55:55.396Z</time>
      </trkpt>
      <trkpt lat="45.36718" lon="5.8407">
        <ele>1152</ele>
        <time>2022-03-10T07:56:03.402Z</time>
      </trkpt>
      <trkpt lat="45.36709" lon="5.84066">
        <ele>1152</ele>
        <time>2022-03-10T07:56:11.405Z</time>
      </trkpt>
      <trkpt lat="45.367" lon="5.84065">
        <ele>1152</ele>
        <time>2022-03-10T07:56:19.393Z</time>
      </trkpt>
      <trkpt lat="45.3669" lon="5.84062">
        <ele>1152</ele>
        <time>2022-03-10T07:56:28.349Z</time>
      </trkpt>
      <trkpt lat="45.36681" lon="5.84059">
        <ele>1152</ele>
        <time>2022-03-10T07:56:37.403Z</time>
      </trkpt>
      <trkpt lat="45.36672" lon="5.84055">
        <ele>1152</ele>
        <time>2022-03-10T07:56:46.419Z</time>
      </trkpt>
      <trkpt lat="45.36663" lon="5.84052">
        <ele>1151</ele>
        <time>2022-03-10T07:56:55.428Z</time>
      </trkpt>
      <trkpt lat="45.3666" lon="5.8405">
        <ele>1151</ele>
        <time>2022-03-10T07:57:04.419Z</time>
      </trkpt>
      <trkpt lat="45.3666" lon="5.8405">
        <ele>1151</ele>
        <time>2022-03-10T07:57:14.411Z</time>
      </trkpt>
      <trkpt lat="45.36656" lon="5.84049">
        <ele>1152</ele>
        <time>2022-03-10T07:57:15.439Z</time>
      </trkpt>
      <trkpt lat="45.36647" lon="5.84046">
        <ele>1152</ele>
        <time>2022-03-10T07:57:21.436Z</time>
      </trkpt>
      <trkpt lat="45.36638" lon="5.84043">
        <ele>1152</ele>
        <time>2022-03-10T07:57:29.425Z</time>
      </trkpt>
      <trkpt lat="45.36628" lon="5.84042">
        <ele>1153</ele>
        <time>2022-03-10T07:57:39.379Z</time>
      </trkpt>
      <trkpt lat="45.36619" lon="5.8404">
        <ele>1154</ele>
        <time>2022-03-10T07:57:51.414Z</time>
      </trkpt>
      <trkpt lat="45.3661" lon="5.84036">
        <ele>1155</ele>
        <time>2022-03-10T07:58:02.417Z</time>
      </trkpt>
      <trkpt lat="45.36601" lon="5.84031">
        <ele>1158</ele>
        <time>2022-03-10T07:58:14.419Z</time>
      </trkpt>
      <trkpt lat="45.36597" lon="5.84029">
        <ele>1159</ele>
        <time>2022-03-10T07:58:23.449Z</time>
      </trkpt>
      <trkpt lat="45.36597" lon="5.84029">
        <ele>1159</ele>
        <time>2022-03-10T08:00:31.425Z</time>
      </trkpt>
      <trkpt lat="45.36586" lon="5.84041">
        <ele>1165</ele>
        <time>2022-03-10T08:00:32.396Z</time>
      </trkpt>
      <trkpt lat="45.36576" lon="5.84037">
        <ele>1163</ele>
        <time>2022-03-10T08:00:45.382Z</time>
      </trkpt>
      <trkpt lat="45.36567" lon="5.84037">
        <ele>1162</ele>
        <time>2022-03-10T08:00:58.418Z</time>
      </trkpt>
      <trkpt lat="45.36558" lon="5.84034">
        <ele>1161</ele>
        <time>2022-03-10T08:01:13.391Z</time>
      </trkpt>
      <trkpt lat="45.36549" lon="5.84031">
        <ele>1161</ele>
        <time>2022-03-10T08:01:25.383Z</time>
      </trkpt>
      <trkpt lat="45.3654" lon="5.84026">
        <ele>1162</ele>
        <time>2022-03-10T08:01:41.391Z</time>
      </trkpt>
      <trkpt lat="45.36531" lon="5.84028">
        <ele>1164</ele>
        <time>2022-03-10T08:01:57.381Z</time>
      </trkpt>
      <trkpt lat="45.36522" lon="5.84027">
        <ele>1166</ele>
        <time>2022-03-10T08:02:20.363Z</time>
      </trkpt>
      <trkpt lat="45.36516" lon="5.84017">
        <ele>1169</ele>
        <time>2022-03-10T08:02:41.392Z</time>
      </trkpt>
      <trkpt lat="45.36515" lon="5.84003">
        <ele>1171</ele>
        <time>2022-03-10T08:03:05.392Z</time>
      </trkpt>
      <trkpt lat="45.36516" lon="5.8399">
        <ele>1172</ele>
        <time>2022-03-10T08:03:24.390Z</time>
      </trkpt>
      <trkpt lat="45.36516" lon="5.83981">
        <ele>1174</ele>
        <time>2022-03-10T08:03:46.412Z</time>
      </trkpt>
      <trkpt lat="45.36516" lon="5.83981">
        <ele>1174</ele>
        <time>2022-03-10T08:04:03.368Z</time>
      </trkpt>
      <trkpt lat="45.36512" lon="5.83983">
        <ele>1177</ele>
        <time>2022-03-10T08:04:04.375Z</time>
      </trkpt>
      <trkpt lat="45.36504" lon="5.83977">
        <ele>1180</ele>
        <time>2022-03-10T08:04:15.441Z</time>
      </trkpt>
      <trkpt lat="45.36496" lon="5.83971">
        <ele>1182</ele>
        <time>2022-03-10T08:04:30.378Z</time>
      </trkpt>
      <trkpt lat="45.36488" lon="5.83963">
        <ele>1185</ele>
        <time>2022-03-10T08:04:54.392Z</time>
      </trkpt>
      <trkpt lat="45.36479" lon="5.83964">
        <ele>1188</ele>
        <time>2022-03-10T08:05:15.381Z</time>
      </trkpt>
      <trkpt lat="45.36469" lon="5.83964">
        <ele>1190</ele>
        <time>2022-03-10T08:05:26.415Z</time>
      </trkpt>
      <trkpt lat="45.3646" lon="5.83962">
        <ele>1190</ele>
        <time>2022-03-10T08:05:39.381Z</time>
      </trkpt>
      <trkpt lat="45.36452" lon="5.83956">
        <ele>1191</ele>
        <time>2022-03-10T08:05:49.414Z</time>
      </trkpt>
      <trkpt lat="45.36443" lon="5.83953">
        <ele>1191</ele>
        <time>2022-03-10T08:05:59.375Z</time>
      </trkpt>
      <trkpt lat="45.36434" lon="5.83947">
        <ele>1191</ele>
        <time>2022-03-10T08:06:10.388Z</time>
      </trkpt>
      <trkpt lat="45.36426" lon="5.83941">
        <ele>1193</ele>
        <time>2022-03-10T08:06:24.414Z</time>
      </trkpt>
      <trkpt lat="45.36418" lon="5.83934">
        <ele>1196</ele>
        <time>2022-03-10T08:06:37.362Z</time>
      </trkpt>
      <trkpt lat="45.3641" lon="5.83928">
        <ele>1201</ele>
        <time>2022-03-10T08:06:56.396Z</time>
      </trkpt>
      <trkpt lat="45.36404" lon="5.83925">
        <ele>1205</ele>
        <time>2022-03-10T08:07:09.384Z</time>
      </trkpt>
      <trkpt lat="45.36404" lon="5.83925">
        <ele>1205</ele>
        <time>2022-03-10T08:07:18.399Z</time>
      </trkpt>
      <trkpt lat="45.364" lon="5.83923">
        <ele>1208</ele>
        <time>2022-03-10T08:07:19.388Z</time>
      </trkpt>
      <trkpt lat="45.36392" lon="5.8392">
        <ele>1211</ele>
        <time>2022-03-10T08:07:33.405Z</time>
      </trkpt>
      <trkpt lat="45.36383" lon="5.83916">
        <ele>1214</ele>
        <time>2022-03-10T08:07:49.399Z</time>
      </trkpt>
      <trkpt lat="45.36374" lon="5.83913">
        <ele>1217</ele>
        <time>2022-03-10T08:08:02.400Z</time>
      </trkpt>
      <trkpt lat="45.36365" lon="5.83913">
        <ele>1222</ele>
        <time>2022-03-10T08:08:23.401Z</time>
      </trkpt>
      <trkpt lat="45.36355" lon="5.83914">
        <ele>1225</ele>
        <time>2022-03-10T08:08:40.373Z</time>
      </trkpt>
      <trkpt lat="45.36349" lon="5.83914">
        <ele>1228</ele>
        <time>2022-03-10T08:08:54.414Z</time>
      </trkpt>
      <trkpt lat="45.36349" lon="5.83914">
        <ele>1228</ele>
        <time>2022-03-10T08:11:59.400Z</time>
      </trkpt>
      <trkpt lat="45.36346" lon="5.83911">
        <ele>1245</ele>
        <time>2022-03-10T08:12:00.386Z</time>
      </trkpt>
      <trkpt lat="45.36343" lon="5.8391">
        <ele>1246</ele>
        <time>2022-03-10T08:12:09.399Z</time>
      </trkpt>
      <trkpt lat="45.36343" lon="5.8391">
        <ele>1246</ele>
        <time>2022-03-10T08:12:19.377Z</time>
      </trkpt>
      <trkpt lat="45.36345" lon="5.83906">
        <ele>1247</ele>
        <time>2022-03-10T08:12:20.402Z</time>
      </trkpt>
      <trkpt lat="45.36336" lon="5.83903">
        <ele>1246</ele>
        <time>2022-03-10T08:12:41.429Z</time>
      </trkpt>
      <trkpt lat="45.36327" lon="5.83896">
        <ele>1245</ele>
        <time>2022-03-10T08:12:54.434Z</time>
      </trkpt>
      <trkpt lat="45.36318" lon="5.83892">
        <ele>1245</ele>
        <time>2022-03-10T08:13:09.436Z</time>
      </trkpt>
      <trkpt lat="45.3631" lon="5.83883">
        <ele>1248</ele>
        <time>2022-03-10T08:13:23.411Z</time>
      </trkpt>
      <trkpt lat="45.36302" lon="5.83877">
        <ele>1251</ele>
        <time>2022-03-10T08:13:37.355Z</time>
      </trkpt>
      <trkpt lat="45.36294" lon="5.8387">
        <ele>1253</ele>
        <time>2022-03-10T08:13:46.432Z</time>
      </trkpt>
      <trkpt lat="45.36287" lon="5.83862">
        <ele>1256</ele>
        <time>2022-03-10T08:13:59.425Z</time>
      </trkpt>
      <trkpt lat="45.36278" lon="5.83857">
        <ele>1260</ele>
        <time>2022-03-10T08:14:14.400Z</time>
      </trkpt>
      <trkpt lat="45.36269" lon="5.83856">
        <ele>1264</ele>
        <time>2022-03-10T08:14:31.353Z</time>
      </trkpt>
      <trkpt lat="45.36268" lon="5.83843">
        <ele>1269</ele>
        <time>2022-03-10T08:15:06.424Z</time>
      </trkpt>
      <trkpt lat="45.36267" lon="5.83829">
        <ele>1272</ele>
        <time>2022-03-10T08:15:23.399Z</time>
      </trkpt>
      <trkpt lat="45.36257" lon="5.8383">
        <ele>1278</ele>
        <time>2022-03-10T08:15:53.428Z</time>
      </trkpt>
      <trkpt lat="45.36256" lon="5.83834">
        <ele>1281</ele>
        <time>2022-03-10T08:16:09.379Z</time>
      </trkpt>
      <trkpt lat="45.36256" lon="5.83834">
        <ele>1281</ele>
        <time>2022-03-10T08:16:41.387Z</time>
      </trkpt>
      <trkpt lat="45.36255" lon="5.83828">
        <ele>1289</ele>
        <time>2022-03-10T08:16:42.411Z</time>
      </trkpt>
      <trkpt lat="45.36247" lon="5.83834">
        <ele>1290</ele>
        <time>2022-03-10T08:16:56.409Z</time>
      </trkpt>
      <trkpt lat="45.3624" lon="5.83842">
        <ele>1292</ele>
        <time>2022-03-10T08:17:07.418Z</time>
      </trkpt>
      <trkpt lat="45.36233" lon="5.8385">
        <ele>1294</ele>
        <time>2022-03-10T08:17:22.388Z</time>
      </trkpt>
      <trkpt lat="45.36226" lon="5.8386">
        <ele>1296</ele>
        <time>2022-03-10T08:17:33.373Z</time>
      </trkpt>
      <trkpt lat="45.36219" lon="5.83868">
        <ele>1300</ele>
        <time>2022-03-10T08:17:45.413Z</time>
      </trkpt>
      <trkpt lat="45.36211" lon="5.83875">
        <ele>1303</ele>
        <time>2022-03-10T08:17:54.373Z</time>
      </trkpt>
      <trkpt lat="45.36203" lon="5.83883">
        <ele>1307</ele>
        <time>2022-03-10T08:18:07.399Z</time>
      </trkpt>
      <trkpt lat="45.36198" lon="5.83893">
        <ele>1310</ele>
        <time>2022-03-10T08:18:20.357Z</time>
      </trkpt>
      <trkpt lat="45.36193" lon="5.83905">
        <ele>1314</ele>
        <time>2022-03-10T08:18:33.332Z</time>
      </trkpt>
      <trkpt lat="45.36186" lon="5.83914">
        <ele>1317</ele>
        <time>2022-03-10T08:18:44.346Z</time>
      </trkpt>
      <trkpt lat="45.36179" lon="5.83923">
        <ele>1322</ele>
        <time>2022-03-10T08:19:01.369Z</time>
      </trkpt>
      <trkpt lat="45.3617" lon="5.8393">
        <ele>1325</ele>
        <time>2022-03-10T08:19:17.404Z</time>
      </trkpt>
      <trkpt lat="45.36163" lon="5.83936">
        <ele>1327</ele>
        <time>2022-03-10T08:19:35.388Z</time>
      </trkpt>
      <trkpt lat="45.36155" lon="5.83944">
        <ele>1330</ele>
        <time>2022-03-10T08:19:50.357Z</time>
      </trkpt>
      <trkpt lat="45.36147" lon="5.83952">
        <ele>1332</ele>
        <time>2022-03-10T08:20:02.377Z</time>
      </trkpt>
      <trkpt lat="45.36141" lon="5.83962">
        <ele>1335</ele>
        <time>2022-03-10T08:20:16.379Z</time>
      </trkpt>
      <trkpt lat="45.36135" lon="5.83972">
        <ele>1338</ele>
        <time>2022-03-10T08:20:31.346Z</time>
      </trkpt>
      <trkpt lat="45.36128" lon="5.8398">
        <ele>1340</ele>
        <time>2022-03-10T08:20:45.343Z</time>
      </trkpt>
      <trkpt lat="45.36121" lon="5.83989">
        <ele>1344</ele>
        <time>2022-03-10T08:21:05.398Z</time>
      </trkpt>
      <trkpt lat="45.36114" lon="5.83999">
        <ele>1348</ele>
        <time>2022-03-10T08:21:24.349Z</time>
      </trkpt>
      <trkpt lat="45.36109" lon="5.8401">
        <ele>1352</ele>
        <time>2022-03-10T08:21:41.397Z</time>
      </trkpt>
      <trkpt lat="45.36106" lon="5.84023">
        <ele>1354</ele>
        <time>2022-03-10T08:21:51.344Z</time>
      </trkpt>
      <trkpt lat="45.36106" lon="5.84035">
        <ele>1357</ele>
        <time>2022-03-10T08:22:09.367Z</time>
      </trkpt>
      <trkpt lat="45.36105" lon="5.8405">
        <ele>1358</ele>
        <time>2022-03-10T08:22:22.376Z</time>
      </trkpt>
      <trkpt lat="45.36102" lon="5.84062">
        <ele>1360</ele>
        <time>2022-03-10T08:22:35.385Z</time>
      </trkpt>
      <trkpt lat="45.36098" lon="5.84074">
        <ele>1362</ele>
        <time>2022-03-10T08:22:44.348Z</time>
      </trkpt>
      <trkpt lat="45.36093" lon="5.84085">
        <ele>1363</ele>
        <time>2022-03-10T08:22:54.364Z</time>
      </trkpt>
      <trkpt lat="45.36086" lon="5.84094">
        <ele>1365</ele>
        <time>2022-03-10T08:23:07.388Z</time>
      </trkpt>
      <trkpt lat="45.36079" lon="5.84104">
        <ele>1368</ele>
        <time>2022-03-10T08:23:23.399Z</time>
      </trkpt>
      <trkpt lat="45.36072" lon="5.84114">
        <ele>1371</ele>
        <time>2022-03-10T08:23:37.414Z</time>
      </trkpt>
      <trkpt lat="45.36067" lon="5.84125">
        <ele>1375</ele>
        <time>2022-03-10T08:23:55.411Z</time>
      </trkpt>
      <trkpt lat="45.36061" lon="5.84135">
        <ele>1378</ele>
        <time>2022-03-10T08:24:09.404Z</time>
      </trkpt>
      <trkpt lat="45.36055" lon="5.84145">
        <ele>1383</ele>
        <time>2022-03-10T08:24:29.441Z</time>
      </trkpt>
      <trkpt lat="45.36047" lon="5.84153">
        <ele>1386</ele>
        <time>2022-03-10T08:24:44.394Z</time>
      </trkpt>
      <trkpt lat="45.36039" lon="5.8416">
        <ele>1389</ele>
        <time>2022-03-10T08:25:02.409Z</time>
      </trkpt>
      <trkpt lat="45.36031" lon="5.84163">
        <ele>1391</ele>
        <time>2022-03-10T08:25:16.426Z</time>
      </trkpt>
      <trkpt lat="45.36029" lon="5.84165">
        <ele>1393</ele>
        <time>2022-03-10T08:25:25.396Z</time>
      </trkpt>
      <trkpt lat="45.36029" lon="5.84165">
        <ele>1393</ele>
        <time>2022-03-10T08:26:14.431Z</time>
      </trkpt>
      <trkpt lat="45.36025" lon="5.84165">
        <ele>1397</ele>
        <time>2022-03-10T08:26:15.419Z</time>
      </trkpt>
      <trkpt lat="45.36016" lon="5.84163">
        <ele>1397</ele>
        <time>2022-03-10T08:26:27.409Z</time>
      </trkpt>
      <trkpt lat="45.36006" lon="5.84161">
        <ele>1398</ele>
        <time>2022-03-10T08:26:38.394Z</time>
      </trkpt>
      <trkpt lat="45.35997" lon="5.84158">
        <ele>1401</ele>
        <time>2022-03-10T08:26:52.359Z</time>
      </trkpt>
      <trkpt lat="45.35988" lon="5.84155">
        <ele>1404</ele>
        <time>2022-03-10T08:27:04.385Z</time>
      </trkpt>
      <trkpt lat="45.35978" lon="5.84153">
        <ele>1406</ele>
        <time>2022-03-10T08:27:11.347Z</time>
      </trkpt>
      <trkpt lat="45.35968" lon="5.84151">
        <ele>1407</ele>
        <time>2022-03-10T08:27:19.361Z</time>
      </trkpt>
      <trkpt lat="45.35959" lon="5.84148">
        <ele>1409</ele>
        <time>2022-03-10T08:27:28.364Z</time>
      </trkpt>
      <trkpt lat="45.3595" lon="5.84145">
        <ele>1411</ele>
        <time>2022-03-10T08:27:37.358Z</time>
      </trkpt>
      <trkpt lat="45.35941" lon="5.84145">
        <ele>1413</ele>
        <time>2022-03-10T08:27:47.387Z</time>
      </trkpt>
      <trkpt lat="45.35932" lon="5.84142">
        <ele>1415</ele>
        <time>2022-03-10T08:27:58.362Z</time>
      </trkpt>
      <trkpt lat="45.35922" lon="5.8414">
        <ele>1416</ele>
        <time>2022-03-10T08:28:06.406Z</time>
      </trkpt>
      <trkpt lat="45.35912" lon="5.84138">
        <ele>1418</ele>
        <time>2022-03-10T08:28:16.360Z</time>
      </trkpt>
      <trkpt lat="45.35903" lon="5.8414">
        <ele>1419</ele>
        <time>2022-03-10T08:28:27.430Z</time>
      </trkpt>
      <trkpt lat="45.35893" lon="5.8414">
        <ele>1421</ele>
        <time>2022-03-10T08:28:39.419Z</time>
      </trkpt>
      <trkpt lat="45.35883" lon="5.84141">
        <ele>1422</ele>
        <time>2022-03-10T08:28:48.428Z</time>
      </trkpt>
      <trkpt lat="45.35874" lon="5.84144">
        <ele>1424</ele>
        <time>2022-03-10T08:28:57.432Z</time>
      </trkpt>
      <trkpt lat="45.35864" lon="5.84145">
        <ele>1426</ele>
        <time>2022-03-10T08:29:05.414Z</time>
      </trkpt>
      <trkpt lat="45.35855" lon="5.84144">
        <ele>1428</ele>
        <time>2022-03-10T08:29:14.421Z</time>
      </trkpt>
      <trkpt lat="45.35846" lon="5.84143">
        <ele>1430</ele>
        <time>2022-03-10T08:29:24.422Z</time>
      </trkpt>
      <trkpt lat="45.35836" lon="5.84142">
        <ele>1431</ele>
        <time>2022-03-10T08:29:34.439Z</time>
      </trkpt>
      <trkpt lat="45.35827" lon="5.84139">
        <ele>1433</ele>
        <time>2022-03-10T08:29:42.443Z</time>
      </trkpt>
      <trkpt lat="45.35818" lon="5.8414">
        <ele>1434</ele>
        <time>2022-03-10T08:29:54.403Z</time>
      </trkpt>
      <trkpt lat="45.35809" lon="5.84142">
        <ele>1435</ele>
        <time>2022-03-10T08:30:06.364Z</time>
      </trkpt>
      <trkpt lat="45.35799" lon="5.84145">
        <ele>1436</ele>
        <time>2022-03-10T08:30:17.365Z</time>
      </trkpt>
      <trkpt lat="45.3579" lon="5.84146">
        <ele>1437</ele>
        <time>2022-03-10T08:30:30.401Z</time>
      </trkpt>
      <trkpt lat="45.35781" lon="5.84148">
        <ele>1438</ele>
        <time>2022-03-10T08:30:40.411Z</time>
      </trkpt>
      <trkpt lat="45.35772" lon="5.8415">
        <ele>1440</ele>
        <time>2022-03-10T08:30:52.402Z</time>
      </trkpt>
      <trkpt lat="45.35762" lon="5.84151">
        <ele>1442</ele>
        <time>2022-03-10T08:31:03.431Z</time>
      </trkpt>
      <trkpt lat="45.35753" lon="5.84155">
        <ele>1445</ele>
        <time>2022-03-10T08:31:16.393Z</time>
      </trkpt>
      <trkpt lat="45.35744" lon="5.84159">
        <ele>1447</ele>
        <time>2022-03-10T08:31:26.406Z</time>
      </trkpt>
      <trkpt lat="45.35735" lon="5.84163">
        <ele>1450</ele>
        <time>2022-03-10T08:31:37.417Z</time>
      </trkpt>
      <trkpt lat="45.35725" lon="5.84166">
        <ele>1451</ele>
        <time>2022-03-10T08:31:45.405Z</time>
      </trkpt>
      <trkpt lat="45.35716" lon="5.84169">
        <ele>1453</ele>
        <time>2022-03-10T08:31:56.416Z</time>
      </trkpt>
      <trkpt lat="45.35707" lon="5.84174">
        <ele>1454</ele>
        <time>2022-03-10T08:32:04.374Z</time>
      </trkpt>
      <trkpt lat="45.35698" lon="5.84176">
        <ele>1456</ele>
        <time>2022-03-10T08:32:16.417Z</time>
      </trkpt>
      <trkpt lat="45.35689" lon="5.84174">
        <ele>1458</ele>
        <time>2022-03-10T08:32:27.362Z</time>
      </trkpt>
      <trkpt lat="45.35679" lon="5.84176">
        <ele>1460</ele>
        <time>2022-03-10T08:32:36.363Z</time>
      </trkpt>
      <trkpt lat="45.35669" lon="5.84176">
        <ele>1461</ele>
        <time>2022-03-10T08:32:47.415Z</time>
      </trkpt>
      <trkpt lat="45.3566" lon="5.84176">
        <ele>1463</ele>
        <time>2022-03-10T08:32:58.409Z</time>
      </trkpt>
      <trkpt lat="45.35651" lon="5.84177">
        <ele>1465</ele>
        <time>2022-03-10T08:33:08.378Z</time>
      </trkpt>
      <trkpt lat="45.35641" lon="5.84174">
        <ele>1467</ele>
        <time>2022-03-10T08:33:20.429Z</time>
      </trkpt>
      <trkpt lat="45.35631" lon="5.84172">
        <ele>1469</ele>
        <time>2022-03-10T08:33:30.409Z</time>
      </trkpt>
      <trkpt lat="45.35622" lon="5.84173">
        <ele>1471</ele>
        <time>2022-03-10T08:33:43.422Z</time>
      </trkpt>
      <trkpt lat="45.35612" lon="5.84172">
        <ele>1473</ele>
        <time>2022-03-10T08:33:55.399Z</time>
      </trkpt>
      <trkpt lat="45.35602" lon="5.84173">
        <ele>1475</ele>
        <time>2022-03-10T08:34:07.430Z</time>
      </trkpt>
      <trkpt lat="45.35593" lon="5.84172">
        <ele>1477</ele>
        <time>2022-03-10T08:34:20.380Z</time>
      </trkpt>
      <trkpt lat="45.35583" lon="5.84175">
        <ele>1480</ele>
        <time>2022-03-10T08:34:33.416Z</time>
      </trkpt>
      <trkpt lat="45.35574" lon="5.84178">
        <ele>1483</ele>
        <time>2022-03-10T08:34:48.402Z</time>
      </trkpt>
      <trkpt lat="45.35565" lon="5.84183">
        <ele>1484</ele>
        <time>2022-03-10T08:34:59.407Z</time>
      </trkpt>
      <trkpt lat="45.35556" lon="5.84185">
        <ele>1486</ele>
        <time>2022-03-10T08:35:14.428Z</time>
      </trkpt>
      <trkpt lat="45.35547" lon="5.84187">
        <ele>1487</ele>
        <time>2022-03-10T08:35:27.498Z</time>
      </trkpt>
      <trkpt lat="45.35538" lon="5.84184">
        <ele>1488</ele>
        <time>2022-03-10T08:35:42.405Z</time>
      </trkpt>
      <trkpt lat="45.35529" lon="5.84181">
        <ele>1489</ele>
        <time>2022-03-10T08:35:54.433Z</time>
      </trkpt>
      <trkpt lat="45.3552" lon="5.84178">
        <ele>1491</ele>
        <time>2022-03-10T08:36:05.403Z</time>
      </trkpt>
      <trkpt lat="45.35511" lon="5.84175">
        <ele>1493</ele>
        <time>2022-03-10T08:36:17.408Z</time>
      </trkpt>
      <trkpt lat="45.35501" lon="5.84173">
        <ele>1496</ele>
        <time>2022-03-10T08:36:27.360Z</time>
      </trkpt>
      <trkpt lat="45.35491" lon="5.84171">
        <ele>1498</ele>
        <time>2022-03-10T08:36:37.358Z</time>
      </trkpt>
      <trkpt lat="45.35483" lon="5.84167">
        <ele>1499</ele>
        <time>2022-03-10T08:36:47.389Z</time>
      </trkpt>
      <trkpt lat="45.35473" lon="5.84164">
        <ele>1500</ele>
        <time>2022-03-10T08:36:55.404Z</time>
      </trkpt>
      <trkpt lat="45.35464" lon="5.84163">
        <ele>1501</ele>
        <time>2022-03-10T08:37:03.384Z</time>
      </trkpt>
      <trkpt lat="45.35455" lon="5.84161">
        <ele>1501</ele>
        <time>2022-03-10T08:37:11.391Z</time>
      </trkpt>
      <trkpt lat="45.35446" lon="5.84158">
        <ele>1501</ele>
        <time>2022-03-10T08:37:22.404Z</time>
      </trkpt>
      <trkpt lat="45.35437" lon="5.84156">
        <ele>1502</ele>
        <time>2022-03-10T08:37:31.387Z</time>
      </trkpt>
      <trkpt lat="45.35428" lon="5.84153">
        <ele>1504</ele>
        <time>2022-03-10T08:37:41.408Z</time>
      </trkpt>
      <trkpt lat="45.35418" lon="5.84153">
        <ele>1505</ele>
        <time>2022-03-10T08:37:49.404Z</time>
      </trkpt>
      <trkpt lat="45.35409" lon="5.84154">
        <ele>1505</ele>
        <time>2022-03-10T08:37:58.408Z</time>
      </trkpt>
      <trkpt lat="45.35399" lon="5.84156">
        <ele>1507</ele>
        <time>2022-03-10T08:38:07.404Z</time>
      </trkpt>
      <trkpt lat="45.35389" lon="5.84158">
        <ele>1508</ele>
        <time>2022-03-10T08:38:16.423Z</time>
      </trkpt>
      <trkpt lat="45.3538" lon="5.84159">
        <ele>1509</ele>
        <time>2022-03-10T08:38:25.391Z</time>
      </trkpt>
      <trkpt lat="45.3537" lon="5.84158">
        <ele>1510</ele>
        <time>2022-03-10T08:38:34.399Z</time>
      </trkpt>
      <trkpt lat="45.35361" lon="5.84159">
        <ele>1512</ele>
        <time>2022-03-10T08:38:43.407Z</time>
      </trkpt>
      <trkpt lat="45.35351" lon="5.84162">
        <ele>1513</ele>
        <time>2022-03-10T08:38:53.393Z</time>
      </trkpt>
      <trkpt lat="45.35341" lon="5.84164">
        <ele>1515</ele>
        <time>2022-03-10T08:39:01.391Z</time>
      </trkpt>
      <trkpt lat="45.35332" lon="5.84164">
        <ele>1516</ele>
        <time>2022-03-10T08:39:11.389Z</time>
      </trkpt>
      <trkpt lat="45.35323" lon="5.84159">
        <ele>1516</ele>
        <time>2022-03-10T08:39:23.363Z</time>
      </trkpt>
      <trkpt lat="45.35315" lon="5.84155">
        <ele>1517</ele>
        <time>2022-03-10T08:39:31.422Z</time>
      </trkpt>
      <trkpt lat="45.35305" lon="5.84153">
        <ele>1517</ele>
        <time>2022-03-10T08:39:40.320Z</time>
      </trkpt>
      <trkpt lat="45.35295" lon="5.84155">
        <ele>1518</ele>
        <time>2022-03-10T08:39:49.359Z</time>
      </trkpt>
      <trkpt lat="45.35286" lon="5.84157">
        <ele>1519</ele>
        <time>2022-03-10T08:39:58.402Z</time>
      </trkpt>
      <trkpt lat="45.35277" lon="5.84155">
        <ele>1521</ele>
        <time>2022-03-10T08:40:10.401Z</time>
      </trkpt>
      <trkpt lat="45.35268" lon="5.84153">
        <ele>1522</ele>
        <time>2022-03-10T08:40:18.418Z</time>
      </trkpt>
      <trkpt lat="45.35259" lon="5.8415">
        <ele>1523</ele>
        <time>2022-03-10T08:40:27.397Z</time>
      </trkpt>
      <trkpt lat="45.35249" lon="5.84151">
        <ele>1524</ele>
        <time>2022-03-10T08:40:36.416Z</time>
      </trkpt>
      <trkpt lat="45.35239" lon="5.8415">
        <ele>1524</ele>
        <time>2022-03-10T08:40:44.426Z</time>
      </trkpt>
      <trkpt lat="45.35229" lon="5.84152">
        <ele>1524</ele>
        <time>2022-03-10T08:40:53.387Z</time>
      </trkpt>
      <trkpt lat="45.35219" lon="5.8415">
        <ele>1525</ele>
        <time>2022-03-10T08:41:01.424Z</time>
      </trkpt>
      <trkpt lat="45.35209" lon="5.84152">
        <ele>1525</ele>
        <time>2022-03-10T08:41:11.514Z</time>
      </trkpt>
      <trkpt lat="45.352" lon="5.84155">
        <ele>1526</ele>
        <time>2022-03-10T08:41:20.414Z</time>
      </trkpt>
      <trkpt lat="45.35191" lon="5.8416">
        <ele>1528</ele>
        <time>2022-03-10T08:41:29.402Z</time>
      </trkpt>
      <trkpt lat="45.35182" lon="5.84162">
        <ele>1529</ele>
        <time>2022-03-10T08:41:39.423Z</time>
      </trkpt>
      <trkpt lat="45.35173" lon="5.84164">
        <ele>1530</ele>
        <time>2022-03-10T08:41:49.393Z</time>
      </trkpt>
      <trkpt lat="45.35168" lon="5.84175">
        <ele>1533</ele>
        <time>2022-03-10T08:42:08.403Z</time>
      </trkpt>
      <trkpt lat="45.35169" lon="5.84177">
        <ele>1533</ele>
        <time>2022-03-10T08:42:12.459Z</time>
      </trkpt>
      <trkpt lat="45.35169" lon="5.84177">
        <ele>1533</ele>
        <time>2022-03-10T08:43:23.387Z</time>
      </trkpt>
      <trkpt lat="45.35165" lon="5.84183">
        <ele>1532</ele>
        <time>2022-03-10T08:43:24.385Z</time>
      </trkpt>
      <trkpt lat="45.35165" lon="5.84184">
        <ele>1531</ele>
        <time>2022-03-10T08:43:29.413Z</time>
      </trkpt>
      <trkpt lat="45.35165" lon="5.84184">
        <ele>1531</ele>
        <time>2022-03-10T08:43:54.386Z</time>
      </trkpt>
      <trkpt lat="45.35169" lon="5.84184">
        <ele>1532</ele>
        <time>2022-03-10T08:43:55.397Z</time>
      </trkpt>
      <trkpt lat="45.35179" lon="5.84183">
        <ele>1532</ele>
        <time>2022-03-10T08:44:06.346Z</time>
      </trkpt>
      <trkpt lat="45.35184" lon="5.84182">
        <ele>1532</ele>
        <time>2022-03-10T08:44:18.347Z</time>
      </trkpt>
      <trkpt lat="45.35184" lon="5.84182">
        <ele>1532</ele>
        <time>2022-03-10T08:44:23.331Z</time>
      </trkpt>
      <trkpt lat="45.35187" lon="5.84182">
        <ele>1533</ele>
        <time>2022-03-10T08:44:24.349Z</time>
      </trkpt>
      <trkpt lat="45.35196" lon="5.84186">
        <ele>1533</ele>
        <time>2022-03-10T08:44:34.373Z</time>
      </trkpt>
      <trkpt lat="45.35205" lon="5.84188">
        <ele>1532</ele>
        <time>2022-03-10T08:44:43.356Z</time>
      </trkpt>
      <trkpt lat="45.35215" lon="5.84191">
        <ele>1532</ele>
        <time>2022-03-10T08:44:52.326Z</time>
      </trkpt>
      <trkpt lat="45.35224" lon="5.84192">
        <ele>1531</ele>
        <time>2022-03-10T08:45:03.326Z</time>
      </trkpt>
      <trkpt lat="45.35232" lon="5.84199">
        <ele>1530</ele>
        <time>2022-03-10T08:45:12.353Z</time>
      </trkpt>
      <trkpt lat="45.3524" lon="5.84204">
        <ele>1530</ele>
        <time>2022-03-10T08:45:22.363Z</time>
      </trkpt>
      <trkpt lat="45.35249" lon="5.8421">
        <ele>1529</ele>
        <time>2022-03-10T08:45:31.344Z</time>
      </trkpt>
      <trkpt lat="45.35257" lon="5.84216">
        <ele>1530</ele>
        <time>2022-03-10T08:45:40.352Z</time>
      </trkpt>
      <trkpt lat="45.35265" lon="5.84224">
        <ele>1531</ele>
        <time>2022-03-10T08:45:49.371Z</time>
      </trkpt>
      <trkpt lat="45.35272" lon="5.84232">
        <ele>1532</ele>
        <time>2022-03-10T08:45:57.372Z</time>
      </trkpt>
      <trkpt lat="45.35279" lon="5.84239">
        <ele>1534</ele>
        <time>2022-03-10T08:46:06.350Z</time>
      </trkpt>
      <trkpt lat="45.35288" lon="5.84247">
        <ele>1536</ele>
        <time>2022-03-10T08:46:14.372Z</time>
      </trkpt>
      <trkpt lat="45.35296" lon="5.84254">
        <ele>1537</ele>
        <time>2022-03-10T08:46:21.366Z</time>
      </trkpt>
      <trkpt lat="45.35302" lon="5.84263">
        <ele>1540</ele>
        <time>2022-03-10T08:46:30.369Z</time>
      </trkpt>
      <trkpt lat="45.35307" lon="5.84275">
        <ele>1542</ele>
        <time>2022-03-10T08:46:39.350Z</time>
      </trkpt>
      <trkpt lat="45.35314" lon="5.84284">
        <ele>1545</ele>
        <time>2022-03-10T08:46:49.336Z</time>
      </trkpt>
      <trkpt lat="45.3532" lon="5.84293">
        <ele>1547</ele>
        <time>2022-03-10T08:46:59.328Z</time>
      </trkpt>
      <trkpt lat="45.35329" lon="5.84293">
        <ele>1549</ele>
        <time>2022-03-10T08:47:07.364Z</time>
      </trkpt>
      <trkpt lat="45.35338" lon="5.84291">
        <ele>1551</ele>
        <time>2022-03-10T08:47:16.345Z</time>
      </trkpt>
      <trkpt lat="45.35347" lon="5.84286">
        <ele>1553</ele>
        <time>2022-03-10T08:47:26.362Z</time>
      </trkpt>
      <trkpt lat="45.35357" lon="5.84288">
        <ele>1554</ele>
        <time>2022-03-10T08:47:36.337Z</time>
      </trkpt>
      <trkpt lat="45.35365" lon="5.84294">
        <ele>1555</ele>
        <time>2022-03-10T08:47:44.349Z</time>
      </trkpt>
      <trkpt lat="45.35373" lon="5.84302">
        <ele>1556</ele>
        <time>2022-03-10T08:47:52.357Z</time>
      </trkpt>
      <trkpt lat="45.35381" lon="5.8431">
        <ele>1557</ele>
        <time>2022-03-10T08:48:01.348Z</time>
      </trkpt>
      <trkpt lat="45.3539" lon="5.84316">
        <ele>1559</ele>
        <time>2022-03-10T08:48:10.363Z</time>
      </trkpt>
      <trkpt lat="45.35398" lon="5.84323">
        <ele>1561</ele>
        <time>2022-03-10T08:48:19.359Z</time>
      </trkpt>
      <trkpt lat="45.35407" lon="5.84329">
        <ele>1563</ele>
        <time>2022-03-10T08:48:29.360Z</time>
      </trkpt>
      <trkpt lat="45.35414" lon="5.84337">
        <ele>1565</ele>
        <time>2022-03-10T08:48:38.352Z</time>
      </trkpt>
      <trkpt lat="45.35422" lon="5.84343">
        <ele>1567</ele>
        <time>2022-03-10T08:48:47.364Z</time>
      </trkpt>
      <trkpt lat="45.3543" lon="5.8435">
        <ele>1569</ele>
        <time>2022-03-10T08:48:55.363Z</time>
      </trkpt>
      <trkpt lat="45.35431" lon="5.84363">
        <ele>1572</ele>
        <time>2022-03-10T08:49:09.348Z</time>
      </trkpt>
      <trkpt lat="45.35421" lon="5.84366">
        <ele>1576</ele>
        <time>2022-03-10T08:49:19.375Z</time>
      </trkpt>
      <trkpt lat="45.35412" lon="5.84365">
        <ele>1579</ele>
        <time>2022-03-10T08:49:29.413Z</time>
      </trkpt>
      <trkpt lat="45.35403" lon="5.84361">
        <ele>1582</ele>
        <time>2022-03-10T08:49:39.387Z</time>
      </trkpt>
      <trkpt lat="45.35394" lon="5.84359">
        <ele>1585</ele>
        <time>2022-03-10T08:49:48.397Z</time>
      </trkpt>
      <trkpt lat="45.35384" lon="5.84357">
        <ele>1586</ele>
        <time>2022-03-10T08:49:57.419Z</time>
      </trkpt>
      <trkpt lat="45.35375" lon="5.84358">
        <ele>1587</ele>
        <time>2022-03-10T08:50:06.392Z</time>
      </trkpt>
      <trkpt lat="45.35365" lon="5.8436">
        <ele>1588</ele>
        <time>2022-03-10T08:50:16.397Z</time>
      </trkpt>
      <trkpt lat="45.35357" lon="5.84366">
        <ele>1589</ele>
        <time>2022-03-10T08:50:25.371Z</time>
      </trkpt>
      <trkpt lat="45.3535" lon="5.84375">
        <ele>1590</ele>
        <time>2022-03-10T08:50:33.406Z</time>
      </trkpt>
      <trkpt lat="45.35341" lon="5.84381">
        <ele>1592</ele>
        <time>2022-03-10T08:50:43.376Z</time>
      </trkpt>
      <trkpt lat="45.35333" lon="5.84388">
        <ele>1593</ele>
        <time>2022-03-10T08:50:53.361Z</time>
      </trkpt>
      <trkpt lat="45.35323" lon="5.84394">
        <ele>1594</ele>
        <time>2022-03-10T08:51:01.404Z</time>
      </trkpt>
      <trkpt lat="45.35315" lon="5.844">
        <ele>1595</ele>
        <time>2022-03-10T08:51:10.376Z</time>
      </trkpt>
      <trkpt lat="45.35306" lon="5.84404">
        <ele>1597</ele>
        <time>2022-03-10T08:51:18.398Z</time>
      </trkpt>
      <trkpt lat="45.35296" lon="5.84407">
        <ele>1599</ele>
        <time>2022-03-10T08:51:27.359Z</time>
      </trkpt>
      <trkpt lat="45.35287" lon="5.8441">
        <ele>1600</ele>
        <time>2022-03-10T08:51:36.391Z</time>
      </trkpt>
      <trkpt lat="45.35278" lon="5.84415">
        <ele>1602</ele>
        <time>2022-03-10T08:51:45.411Z</time>
      </trkpt>
      <trkpt lat="45.35269" lon="5.84418">
        <ele>1604</ele>
        <time>2022-03-10T08:51:55.414Z</time>
      </trkpt>
      <trkpt lat="45.35259" lon="5.84419">
        <ele>1606</ele>
        <time>2022-03-10T08:52:06.397Z</time>
      </trkpt>
      <trkpt lat="45.3525" lon="5.8442">
        <ele>1608</ele>
        <time>2022-03-10T08:52:14.450Z</time>
      </trkpt>
      <trkpt lat="45.3524" lon="5.84422">
        <ele>1610</ele>
        <time>2022-03-10T08:52:24.419Z</time>
      </trkpt>
      <trkpt lat="45.35231" lon="5.84421">
        <ele>1611</ele>
        <time>2022-03-10T08:52:34.403Z</time>
      </trkpt>
      <trkpt lat="45.35222" lon="5.84418">
        <ele>1613</ele>
        <time>2022-03-10T08:52:44.415Z</time>
      </trkpt>
      <trkpt lat="45.35213" lon="5.84416">
        <ele>1614</ele>
        <time>2022-03-10T08:52:51.429Z</time>
      </trkpt>
      <trkpt lat="45.35203" lon="5.84414">
        <ele>1616</ele>
        <time>2022-03-10T08:53:00.434Z</time>
      </trkpt>
      <trkpt lat="45.35194" lon="5.84417">
        <ele>1618</ele>
        <time>2022-03-10T08:53:10.402Z</time>
      </trkpt>
      <trkpt lat="45.35184" lon="5.8442">
        <ele>1619</ele>
        <time>2022-03-10T08:53:19.406Z</time>
      </trkpt>
      <trkpt lat="45.35174" lon="5.84423">
        <ele>1621</ele>
        <time>2022-03-10T08:53:28.411Z</time>
      </trkpt>
      <trkpt lat="45.35166" lon="5.84425">
        <ele>1622</ele>
        <time>2022-03-10T08:53:38.461Z</time>
      </trkpt>
      <trkpt lat="45.35157" lon="5.84429">
        <ele>1623</ele>
        <time>2022-03-10T08:53:47.449Z</time>
      </trkpt>
      <trkpt lat="45.35148" lon="5.84432">
        <ele>1624</ele>
        <time>2022-03-10T08:53:56.404Z</time>
      </trkpt>
      <trkpt lat="45.35139" lon="5.84437">
        <ele>1625</ele>
        <time>2022-03-10T08:54:05.410Z</time>
      </trkpt>
      <trkpt lat="45.3513" lon="5.84439">
        <ele>1625</ele>
        <time>2022-03-10T08:54:14.413Z</time>
      </trkpt>
      <trkpt lat="45.35121" lon="5.84438">
        <ele>1626</ele>
        <time>2022-03-10T08:54:24.405Z</time>
      </trkpt>
      <trkpt lat="45.35115" lon="5.84437">
        <ele>1627</ele>
        <time>2022-03-10T08:54:34.394Z</time>
      </trkpt>
      <trkpt lat="45.35115" lon="5.84437">
        <ele>1627</ele>
        <time>2022-03-10T08:55:19.408Z</time>
      </trkpt>
      <trkpt lat="45.35112" lon="5.84436">
        <ele>1630</ele>
        <time>2022-03-10T08:55:20.414Z</time>
      </trkpt>
      <trkpt lat="45.35111" lon="5.84436">
        <ele>1630</ele>
        <time>2022-03-10T08:55:27.421Z</time>
      </trkpt>
      <trkpt lat="45.35111" lon="5.84436">
        <ele>1630</ele>
        <time>2022-03-10T08:55:43.436Z</time>
      </trkpt>
      <trkpt lat="45.35106" lon="5.84437">
        <ele>1630</ele>
        <time>2022-03-10T08:55:44.428Z</time>
      </trkpt>
      <trkpt lat="45.35097" lon="5.8444">
        <ele>1631</ele>
        <time>2022-03-10T08:55:55.402Z</time>
      </trkpt>
      <trkpt lat="45.3509" lon="5.84449">
        <ele>1632</ele>
        <time>2022-03-10T08:56:08.413Z</time>
      </trkpt>
      <trkpt lat="45.35089" lon="5.84463">
        <ele>1635</ele>
        <time>2022-03-10T08:56:27.410Z</time>
      </trkpt>
      <trkpt lat="45.35094" lon="5.84474">
        <ele>1637</ele>
        <time>2022-03-10T08:56:41.393Z</time>
      </trkpt>
      <trkpt lat="45.35099" lon="5.84482">
        <ele>1640</ele>
        <time>2022-03-10T08:56:57.411Z</time>
      </trkpt>
      <trkpt lat="45.35099" lon="5.84482">
        <ele>1640</ele>
        <time>2022-03-10T08:57:03.387Z</time>
      </trkpt>
      <trkpt lat="45.35096" lon="5.84485">
        <ele>1641</ele>
        <time>2022-03-10T08:57:04.393Z</time>
      </trkpt>
      <trkpt lat="45.35093" lon="5.84498">
        <ele>1642</ele>
        <time>2022-03-10T08:57:13.384Z</time>
      </trkpt>
      <trkpt lat="45.35092" lon="5.84511">
        <ele>1644</ele>
        <time>2022-03-10T08:57:22.371Z</time>
      </trkpt>
      <trkpt lat="45.35089" lon="5.84524">
        <ele>1646</ele>
        <time>2022-03-10T08:57:32.416Z</time>
      </trkpt>
      <trkpt lat="45.35086" lon="5.84536">
        <ele>1648</ele>
        <time>2022-03-10T08:57:44.407Z</time>
      </trkpt>
      <trkpt lat="45.35088" lon="5.8455">
        <ele>1651</ele>
        <time>2022-03-10T08:57:56.390Z</time>
      </trkpt>
      <trkpt lat="45.3509" lon="5.84558">
        <ele>1653</ele>
        <time>2022-03-10T08:58:12.418Z</time>
      </trkpt>
      <trkpt lat="45.3509" lon="5.84558">
        <ele>1653</ele>
        <time>2022-03-10T08:58:18.418Z</time>
      </trkpt>
      <trkpt lat="45.35094" lon="5.84561">
        <ele>1654</ele>
        <time>2022-03-10T08:58:19.411Z</time>
      </trkpt>
      <trkpt lat="45.35103" lon="5.84569">
        <ele>1655</ele>
        <time>2022-03-10T08:58:30.392Z</time>
      </trkpt>
      <trkpt lat="45.35112" lon="5.84575">
        <ele>1656</ele>
        <time>2022-03-10T08:58:41.412Z</time>
      </trkpt>
      <trkpt lat="45.35119" lon="5.84583">
        <ele>1656</ele>
        <time>2022-03-10T08:58:55.425Z</time>
      </trkpt>
      <trkpt lat="45.35122" lon="5.84596">
        <ele>1657</ele>
        <time>2022-03-10T08:59:12.418Z</time>
      </trkpt>
      <trkpt lat="45.35124" lon="5.84609">
        <ele>1659</ele>
        <time>2022-03-10T08:59:27.427Z</time>
      </trkpt>
      <trkpt lat="45.35131" lon="5.84619">
        <ele>1662</ele>
        <time>2022-03-10T08:59:44.398Z</time>
      </trkpt>
      <trkpt lat="45.3513" lon="5.84633">
        <ele>1665</ele>
        <time>2022-03-10T08:59:59.424Z</time>
      </trkpt>
      <trkpt lat="45.35137" lon="5.8464">
        <ele>1669</ele>
        <time>2022-03-10T09:00:15.448Z</time>
      </trkpt>
      <trkpt lat="45.35141" lon="5.84652">
        <ele>1672</ele>
        <time>2022-03-10T09:00:32.390Z</time>
      </trkpt>
      <trkpt lat="45.35137" lon="5.84661">
        <ele>1675</ele>
        <time>2022-03-10T09:00:45.406Z</time>
      </trkpt>
      <trkpt lat="45.35137" lon="5.84661">
        <ele>1675</ele>
        <time>2022-03-10T09:00:50.395Z</time>
      </trkpt>
      <trkpt lat="45.35137" lon="5.84666">
        <ele>1676</ele>
        <time>2022-03-10T09:00:51.427Z</time>
      </trkpt>
      <trkpt lat="45.35134" lon="5.84678">
        <ele>1678</ele>
        <time>2022-03-10T09:01:05.385Z</time>
      </trkpt>
      <trkpt lat="45.35139" lon="5.8469">
        <ele>1681</ele>
        <time>2022-03-10T09:01:18.431Z</time>
      </trkpt>
      <trkpt lat="45.35139" lon="5.84703">
        <ele>1683</ele>
        <time>2022-03-10T09:01:33.398Z</time>
      </trkpt>
      <trkpt lat="45.35139" lon="5.84715">
        <ele>1686</ele>
        <time>2022-03-10T09:01:46.388Z</time>
      </trkpt>
      <trkpt lat="45.35142" lon="5.84729">
        <ele>1690</ele>
        <time>2022-03-10T09:02:03.421Z</time>
      </trkpt>
      <trkpt lat="45.35144" lon="5.84742">
        <ele>1694</ele>
        <time>2022-03-10T09:02:22.416Z</time>
      </trkpt>
      <trkpt lat="45.35145" lon="5.84755">
        <ele>1697</ele>
        <time>2022-03-10T09:02:45.423Z</time>
      </trkpt>
      <trkpt lat="45.35149" lon="5.84767">
        <ele>1700</ele>
        <time>2022-03-10T09:03:03.436Z</time>
      </trkpt>
      <trkpt lat="45.35151" lon="5.8478">
        <ele>1703</ele>
        <time>2022-03-10T09:03:20.418Z</time>
      </trkpt>
      <trkpt lat="45.35157" lon="5.84789">
        <ele>1706</ele>
        <time>2022-03-10T09:03:41.416Z</time>
      </trkpt>
      <trkpt lat="45.35152" lon="5.84801">
        <ele>1708</ele>
        <time>2022-03-10T09:03:55.406Z</time>
      </trkpt>
      <trkpt lat="45.35154" lon="5.84803">
        <ele>1710</ele>
        <time>2022-03-10T09:04:03.413Z</time>
      </trkpt>
      <trkpt lat="45.35154" lon="5.84803">
        <ele>1710</ele>
        <time>2022-03-10T09:04:31.407Z</time>
      </trkpt>
      <trkpt lat="45.35153" lon="5.84809">
        <ele>1713</ele>
        <time>2022-03-10T09:04:32.416Z</time>
      </trkpt>
      <trkpt lat="45.35158" lon="5.84818">
        <ele>1715</ele>
        <time>2022-03-10T09:04:52.428Z</time>
      </trkpt>
      <trkpt lat="45.35158" lon="5.84818">
        <ele>1715</ele>
        <time>2022-03-10T09:05:02.409Z</time>
      </trkpt>
      <trkpt lat="45.35156" lon="5.84823">
        <ele>1716</ele>
        <time>2022-03-10T09:05:03.405Z</time>
      </trkpt>
      <trkpt lat="45.35159" lon="5.84825">
        <ele>1719</ele>
        <time>2022-03-10T09:05:26.422Z</time>
      </trkpt>
      <trkpt lat="45.35159" lon="5.84825">
        <ele>1719</ele>
        <time>2022-03-10T09:06:00.404Z</time>
      </trkpt>
      <trkpt lat="45.35156" lon="5.8483">
        <ele>1719</ele>
        <time>2022-03-10T09:06:01.400Z</time>
      </trkpt>
      <trkpt lat="45.35148" lon="5.84837">
        <ele>1721</ele>
        <time>2022-03-10T09:06:23.393Z</time>
      </trkpt>
      <trkpt lat="45.35151" lon="5.8485">
        <ele>1728</ele>
        <time>2022-03-10T09:06:50.408Z</time>
      </trkpt>
      <trkpt lat="45.35154" lon="5.84858">
        <ele>1732</ele>
        <time>2022-03-10T09:07:21.405Z</time>
      </trkpt>
      <trkpt lat="45.35154" lon="5.84858">
        <ele>1732</ele>
        <time>2022-03-10T09:07:29.407Z</time>
      </trkpt>
      <trkpt lat="45.35151" lon="5.84861">
        <ele>1733</ele>
        <time>2022-03-10T09:07:30.428Z</time>
      </trkpt>
      <trkpt lat="45.3515" lon="5.84862">
        <ele>1733</ele>
        <time>2022-03-10T09:07:37.450Z</time>
      </trkpt>
      <trkpt lat="45.3515" lon="5.84862">
        <ele>1733</ele>
        <time>2022-03-10T09:07:58.346Z</time>
      </trkpt>
      <trkpt lat="45.35153" lon="5.84863">
        <ele>1735</ele>
        <time>2022-03-10T09:07:59.345Z</time>
      </trkpt>
      <trkpt lat="45.35156" lon="5.84875">
        <ele>1739</ele>
        <time>2022-03-10T09:08:37.435Z</time>
      </trkpt>
      <trkpt lat="45.35159" lon="5.84881">
        <ele>1741</ele>
        <time>2022-03-10T09:08:51.389Z</time>
      </trkpt>
      <trkpt lat="45.35159" lon="5.84881">
        <ele>1741</ele>
        <time>2022-03-10T09:09:04.364Z</time>
      </trkpt>
      <trkpt lat="45.35156" lon="5.84882">
        <ele>1743</ele>
        <time>2022-03-10T09:09:05.404Z</time>
      </trkpt>
      <trkpt lat="45.35155" lon="5.84896">
        <ele>1746</ele>
        <time>2022-03-10T09:09:23.393Z</time>
      </trkpt>
      <trkpt lat="45.35158" lon="5.84909">
        <ele>1749</ele>
        <time>2022-03-10T09:09:40.395Z</time>
      </trkpt>
      <trkpt lat="45.35159" lon="5.84921">
        <ele>1752</ele>
        <time>2022-03-10T09:09:54.409Z</time>
      </trkpt>
      <trkpt lat="45.3516" lon="5.84934">
        <ele>1755</ele>
        <time>2022-03-10T09:10:07.389Z</time>
      </trkpt>
      <trkpt lat="45.35162" lon="5.84947">
        <ele>1759</ele>
        <time>2022-03-10T09:10:21.385Z</time>
      </trkpt>
      <trkpt lat="45.35163" lon="5.84961">
        <ele>1764</ele>
        <time>2022-03-10T09:10:37.387Z</time>
      </trkpt>
      <trkpt lat="45.35164" lon="5.84974">
        <ele>1768</ele>
        <time>2022-03-10T09:10:52.402Z</time>
      </trkpt>
      <trkpt lat="45.35166" lon="5.84987">
        <ele>1771</ele>
        <time>2022-03-10T09:11:09.428Z</time>
      </trkpt>
      <trkpt lat="45.35167" lon="5.85">
        <ele>1775</ele>
        <time>2022-03-10T09:11:27.365Z</time>
      </trkpt>
      <trkpt lat="45.35167" lon="5.85013">
        <ele>1777</ele>
        <time>2022-03-10T09:11:46.393Z</time>
      </trkpt>
      <trkpt lat="45.35167" lon="5.85027">
        <ele>1779</ele>
        <time>2022-03-10T09:12:04.369Z</time>
      </trkpt>
      <trkpt lat="45.35167" lon="5.8504">
        <ele>1781</ele>
        <time>2022-03-10T09:12:19.378Z</time>
      </trkpt>
      <trkpt lat="45.35168" lon="5.85053">
        <ele>1786</ele>
        <time>2022-03-10T09:12:38.389Z</time>
      </trkpt>
      <trkpt lat="45.35174" lon="5.85064">
        <ele>1790</ele>
        <time>2022-03-10T09:12:55.365Z</time>
      </trkpt>
      <trkpt lat="45.35174" lon="5.85064">
        <ele>1791</ele>
        <time>2022-03-10T09:12:57.388Z</time>
      </trkpt>
      <trkpt lat="45.35174" lon="5.85064">
        <ele>1791</ele>
        <time>2022-03-10T09:14:14.368Z</time>
      </trkpt>
      <trkpt lat="45.35174" lon="5.85069">
        <ele>1793</ele>
        <time>2022-03-10T09:14:15.381Z</time>
      </trkpt>
      <trkpt lat="45.3517" lon="5.85082">
        <ele>1793</ele>
        <time>2022-03-10T09:14:26.370Z</time>
      </trkpt>
      <trkpt lat="45.35167" lon="5.85095">
        <ele>1793</ele>
        <time>2022-03-10T09:14:38.371Z</time>
      </trkpt>
      <trkpt lat="45.35164" lon="5.85107">
        <ele>1793</ele>
        <time>2022-03-10T09:14:50.352Z</time>
      </trkpt>
      <trkpt lat="45.35162" lon="5.8511">
        <ele>1794</ele>
        <time>2022-03-10T09:14:56.366Z</time>
      </trkpt>
      <trkpt lat="45.35162" lon="5.8511">
        <ele>1794</ele>
        <time>2022-03-10T09:15:02.353Z</time>
      </trkpt>
      <trkpt lat="45.3516" lon="5.85115">
        <ele>1796</ele>
        <time>2022-03-10T09:15:03.371Z</time>
      </trkpt>
      <trkpt lat="45.35157" lon="5.85122">
        <ele>1799</ele>
        <time>2022-03-10T09:15:22.372Z</time>
      </trkpt>
      <trkpt lat="45.35157" lon="5.85122">
        <ele>1799</ele>
        <time>2022-03-10T09:15:27.359Z</time>
      </trkpt>
      <trkpt lat="45.35154" lon="5.85126">
        <ele>1799</ele>
        <time>2022-03-10T09:15:28.391Z</time>
      </trkpt>
      <trkpt lat="45.35145" lon="5.85128">
        <ele>1800</ele>
        <time>2022-03-10T09:15:45.356Z</time>
      </trkpt>
      <trkpt lat="45.35136" lon="5.85131">
        <ele>1800</ele>
        <time>2022-03-10T09:16:00.329Z</time>
      </trkpt>
      <trkpt lat="45.35127" lon="5.8513">
        <ele>1802</ele>
        <time>2022-03-10T09:16:14.371Z</time>
      </trkpt>
      <trkpt lat="45.35117" lon="5.85129">
        <ele>1803</ele>
        <time>2022-03-10T09:16:26.354Z</time>
      </trkpt>
      <trkpt lat="45.35108" lon="5.85125">
        <ele>1804</ele>
        <time>2022-03-10T09:16:38.367Z</time>
      </trkpt>
      <trkpt lat="45.35099" lon="5.85124">
        <ele>1806</ele>
        <time>2022-03-10T09:16:49.361Z</time>
      </trkpt>
      <trkpt lat="45.35089" lon="5.85125">
        <ele>1807</ele>
        <time>2022-03-10T09:17:00.365Z</time>
      </trkpt>
      <trkpt lat="45.3508" lon="5.85126">
        <ele>1810</ele>
        <time>2022-03-10T09:17:11.360Z</time>
      </trkpt>
      <trkpt lat="45.35071" lon="5.85127">
        <ele>1813</ele>
        <time>2022-03-10T09:17:24.384Z</time>
      </trkpt>
      <trkpt lat="45.35061" lon="5.85131">
        <ele>1817</ele>
        <time>2022-03-10T09:17:37.377Z</time>
      </trkpt>
      <trkpt lat="45.35059" lon="5.85132">
        <ele>1819</ele>
        <time>2022-03-10T09:17:44.402Z</time>
      </trkpt>
      <trkpt lat="45.35059" lon="5.85132">
        <ele>1819</ele>
        <time>2022-03-10T09:19:12.382Z</time>
      </trkpt>
      <trkpt lat="45.35053" lon="5.85133">
        <ele>1826</ele>
        <time>2022-03-10T09:19:13.388Z</time>
      </trkpt>
      <trkpt lat="45.35044" lon="5.85131">
        <ele>1826</ele>
        <time>2022-03-10T09:19:25.396Z</time>
      </trkpt>
      <trkpt lat="45.35035" lon="5.85129">
        <ele>1826</ele>
        <time>2022-03-10T09:19:34.445Z</time>
      </trkpt>
      <trkpt lat="45.35031" lon="5.85131">
        <ele>1825</ele>
        <time>2022-03-10T09:19:43.425Z</time>
      </trkpt>
      <trkpt lat="45.35031" lon="5.85131">
        <ele>1825</ele>
        <time>2022-03-10T09:27:32.414Z</time>
      </trkpt>
      <trkpt lat="45.35033" lon="5.85127">
        <ele>1828</ele>
        <time>2022-03-10T09:27:33.442Z</time>
      </trkpt>
      <trkpt lat="45.35033" lon="5.85127">
        <ele>1828</ele>
        <time>2022-03-10T09:27:38.461Z</time>
      </trkpt>
      <trkpt lat="45.35033" lon="5.85127">
        <ele>1828</ele>
        <time>2022-03-10T09:31:11.370Z</time>
      </trkpt>
      <trkpt lat="45.35033" lon="5.85134">
        <ele>1827</ele>
        <time>2022-03-10T09:31:12.419Z</time>
      </trkpt>
      <trkpt lat="45.35026" lon="5.85143">
        <ele>1827</ele>
        <time>2022-03-10T09:31:15.428Z</time>
      </trkpt>
      <trkpt lat="45.35019" lon="5.85154">
        <ele>1827</ele>
        <time>2022-03-10T09:31:21.468Z</time>
      </trkpt>
      <trkpt lat="45.35015" lon="5.85166">
        <ele>1827</ele>
        <time>2022-03-10T09:31:23.432Z</time>
      </trkpt>
      <trkpt lat="45.35008" lon="5.85177">
        <ele>1826</ele>
        <time>2022-03-10T09:31:26.435Z</time>
      </trkpt>
      <trkpt lat="45.34999" lon="5.85183">
        <ele>1826</ele>
        <time>2022-03-10T09:31:30.465Z</time>
      </trkpt>
      <trkpt lat="45.34994" lon="5.85196">
        <ele>1823</ele>
        <time>2022-03-10T09:31:38.375Z</time>
      </trkpt>
      <trkpt lat="45.34989" lon="5.85209">
        <ele>1822</ele>
        <time>2022-03-10T09:31:41.368Z</time>
      </trkpt>
      <trkpt lat="45.34981" lon="5.85218">
        <ele>1822</ele>
        <time>2022-03-10T09:31:43.419Z</time>
      </trkpt>
      <trkpt lat="45.34971" lon="5.85226">
        <ele>1821</ele>
        <time>2022-03-10T09:31:45.434Z</time>
      </trkpt>
      <trkpt lat="45.34958" lon="5.85228">
        <ele>1819</ele>
        <time>2022-03-10T09:31:49.427Z</time>
      </trkpt>
      <trkpt lat="45.3495" lon="5.85237">
        <ele>1816</ele>
        <time>2022-03-10T09:31:54.441Z</time>
      </trkpt>
      <trkpt lat="45.3494" lon="5.85244">
        <ele>1810</ele>
        <time>2022-03-10T09:32:02.427Z</time>
      </trkpt>
      <trkpt lat="45.34931" lon="5.85247">
        <ele>1805</ele>
        <time>2022-03-10T09:32:08.441Z</time>
      </trkpt>
      <trkpt lat="45.34918" lon="5.8525">
        <ele>1802</ele>
        <time>2022-03-10T09:32:12.422Z</time>
      </trkpt>
      <trkpt lat="45.34907" lon="5.85254">
        <ele>1800</ele>
        <time>2022-03-10T09:32:15.430Z</time>
      </trkpt>
      <trkpt lat="45.34905" lon="5.85266">
        <ele>1796</ele>
        <time>2022-03-10T09:32:19.422Z</time>
      </trkpt>
      <trkpt lat="45.34903" lon="5.85279">
        <ele>1791</ele>
        <time>2022-03-10T09:32:25.353Z</time>
      </trkpt>
      <trkpt lat="45.34902" lon="5.85295">
        <ele>1784</ele>
        <time>2022-03-10T09:32:32.364Z</time>
      </trkpt>
      <trkpt lat="45.34895" lon="5.85303">
        <ele>1781</ele>
        <time>2022-03-10T09:32:36.358Z</time>
      </trkpt>
      <trkpt lat="45.34889" lon="5.85314">
        <ele>1775</ele>
        <time>2022-03-10T09:32:41.348Z</time>
      </trkpt>
      <trkpt lat="45.34881" lon="5.85321">
        <ele>1772</ele>
        <time>2022-03-10T09:32:44.351Z</time>
      </trkpt>
      <trkpt lat="45.34877" lon="5.85335">
        <ele>1769</ele>
        <time>2022-03-10T09:32:47.412Z</time>
      </trkpt>
      <trkpt lat="45.34871" lon="5.85349">
        <ele>1765</ele>
        <time>2022-03-10T09:32:50.380Z</time>
      </trkpt>
      <trkpt lat="45.3487" lon="5.85367">
        <ele>1761</ele>
        <time>2022-03-10T09:32:53.358Z</time>
      </trkpt>
      <trkpt lat="45.34862" lon="5.85383">
        <ele>1757</ele>
        <time>2022-03-10T09:32:56.406Z</time>
      </trkpt>
      <trkpt lat="45.34848" lon="5.85387">
        <ele>1750</ele>
        <time>2022-03-10T09:33:01.382Z</time>
      </trkpt>
      <trkpt lat="45.34839" lon="5.85401">
        <ele>1739</ele>
        <time>2022-03-10T09:33:08.353Z</time>
      </trkpt>
      <trkpt lat="45.34826" lon="5.85409">
        <ele>1733</ele>
        <time>2022-03-10T09:33:12.382Z</time>
      </trkpt>
      <trkpt lat="45.34823" lon="5.85425">
        <ele>1726</ele>
        <time>2022-03-10T09:33:16.387Z</time>
      </trkpt>
      <trkpt lat="45.34823" lon="5.85425">
        <ele>1717</ele>
        <time>2022-03-10T09:33:22.371Z</time>
      </trkpt>
      <trkpt lat="45.34823" lon="5.85425">
        <ele>1717</ele>
        <time>2022-03-10T09:33:58.358Z</time>
      </trkpt>
      <trkpt lat="45.3482" lon="5.85429">
        <ele>1686</ele>
        <time>2022-03-10T09:33:59.366Z</time>
      </trkpt>
      <trkpt lat="45.34827" lon="5.85439">
        <ele>1685</ele>
        <time>2022-03-10T09:34:04.364Z</time>
      </trkpt>
      <trkpt lat="45.34836" lon="5.85446">
        <ele>1685</ele>
        <time>2022-03-10T09:34:06.387Z</time>
      </trkpt>
      <trkpt lat="45.34845" lon="5.85451">
        <ele>1685</ele>
        <time>2022-03-10T09:34:09.355Z</time>
      </trkpt>
      <trkpt lat="45.34854" lon="5.85457">
        <ele>1685</ele>
        <time>2022-03-10T09:34:12.376Z</time>
      </trkpt>
      <trkpt lat="45.34863" lon="5.85461">
        <ele>1684</ele>
        <time>2022-03-10T09:34:16.357Z</time>
      </trkpt>
      <trkpt lat="45.34864" lon="5.85462">
        <ele>1683</ele>
        <time>2022-03-10T09:34:22.394Z</time>
      </trkpt>
      <trkpt lat="45.34864" lon="5.85462">
        <ele>1683</ele>
        <time>2022-03-10T09:34:25.388Z</time>
      </trkpt>
      <trkpt lat="45.34867" lon="5.85465">
        <ele>1682</ele>
        <time>2022-03-10T09:34:26.391Z</time>
      </trkpt>
      <trkpt lat="45.34876" lon="5.8547">
        <ele>1681</ele>
        <time>2022-03-10T09:34:31.381Z</time>
      </trkpt>
      <trkpt lat="45.34883" lon="5.85477">
        <ele>1677</ele>
        <time>2022-03-10T09:34:42.387Z</time>
      </trkpt>
      <trkpt lat="45.34874" lon="5.85489">
        <ele>1674</ele>
        <time>2022-03-10T09:34:49.370Z</time>
      </trkpt>
      <trkpt lat="45.34873" lon="5.85502">
        <ele>1668</ele>
        <time>2022-03-10T09:35:00.441Z</time>
      </trkpt>
      <trkpt lat="45.34865" lon="5.85509">
        <ele>1665</ele>
        <time>2022-03-10T09:35:05.426Z</time>
      </trkpt>
      <trkpt lat="45.34862" lon="5.85522">
        <ele>1662</ele>
        <time>2022-03-10T09:35:11.422Z</time>
      </trkpt>
      <trkpt lat="45.34858" lon="5.85535">
        <ele>1657</ele>
        <time>2022-03-10T09:35:18.407Z</time>
      </trkpt>
      <trkpt lat="45.34859" lon="5.85548">
        <ele>1654</ele>
        <time>2022-03-10T09:35:23.354Z</time>
      </trkpt>
      <trkpt lat="45.34852" lon="5.85559">
        <ele>1649</ele>
        <time>2022-03-10T09:35:30.414Z</time>
      </trkpt>
      <trkpt lat="45.34851" lon="5.85573">
        <ele>1643</ele>
        <time>2022-03-10T09:35:40.427Z</time>
      </trkpt>
      <trkpt lat="45.34846" lon="5.85586">
        <ele>1639</ele>
        <time>2022-03-10T09:35:47.419Z</time>
      </trkpt>
      <trkpt lat="45.34846" lon="5.85599">
        <ele>1634</ele>
        <time>2022-03-10T09:35:57.424Z</time>
      </trkpt>
      <trkpt lat="45.34842" lon="5.85611">
        <ele>1627</ele>
        <time>2022-03-10T09:36:08.389Z</time>
      </trkpt>
      <trkpt lat="45.34839" lon="5.85624">
        <ele>1623</ele>
        <time>2022-03-10T09:36:15.417Z</time>
      </trkpt>
      <trkpt lat="45.3484" lon="5.85637">
        <ele>1614</ele>
        <time>2022-03-10T09:36:29.371Z</time>
      </trkpt>
      <trkpt lat="45.34843" lon="5.85651">
        <ele>1607</ele>
        <time>2022-03-10T09:36:40.423Z</time>
      </trkpt>
      <trkpt lat="45.34844" lon="5.85663">
        <ele>1602</ele>
        <time>2022-03-10T09:36:50.420Z</time>
      </trkpt>
      <trkpt lat="45.34844" lon="5.85663">
        <ele>1602</ele>
        <time>2022-03-10T09:36:52.431Z</time>
      </trkpt>
      <trkpt lat="45.34844" lon="5.85668">
        <ele>1600</ele>
        <time>2022-03-10T09:36:53.426Z</time>
      </trkpt>
      <trkpt lat="45.34847" lon="5.8568">
        <ele>1597</ele>
        <time>2022-03-10T09:36:59.442Z</time>
      </trkpt>
      <trkpt lat="45.34849" lon="5.85695">
        <ele>1594</ele>
        <time>2022-03-10T09:37:04.366Z</time>
      </trkpt>
      <trkpt lat="45.34845" lon="5.85707">
        <ele>1589</ele>
        <time>2022-03-10T09:37:12.433Z</time>
      </trkpt>
      <trkpt lat="45.3484" lon="5.8572">
        <ele>1586</ele>
        <time>2022-03-10T09:37:17.428Z</time>
      </trkpt>
      <trkpt lat="45.34835" lon="5.8573">
        <ele>1584</ele>
        <time>2022-03-10T09:37:20.440Z</time>
      </trkpt>
      <trkpt lat="45.34831" lon="5.85744">
        <ele>1581</ele>
        <time>2022-03-10T09:37:24.355Z</time>
      </trkpt>
      <trkpt lat="45.34835" lon="5.85757">
        <ele>1578</ele>
        <time>2022-03-10T09:37:28.406Z</time>
      </trkpt>
      <trkpt lat="45.34837" lon="5.85773">
        <ele>1575</ele>
        <time>2022-03-10T09:37:32.405Z</time>
      </trkpt>
      <trkpt lat="45.34831" lon="5.85784">
        <ele>1572</ele>
        <time>2022-03-10T09:37:36.424Z</time>
      </trkpt>
      <trkpt lat="45.34821" lon="5.85795">
        <ele>1565</ele>
        <time>2022-03-10T09:37:46.430Z</time>
      </trkpt>
      <trkpt lat="45.34808" lon="5.85801">
        <ele>1563</ele>
        <time>2022-03-10T09:37:49.382Z</time>
      </trkpt>
      <trkpt lat="45.34798" lon="5.85804">
        <ele>1562</ele>
        <time>2022-03-10T09:37:51.409Z</time>
      </trkpt>
      <trkpt lat="45.34791" lon="5.85805">
        <ele>1556</ele>
        <time>2022-03-10T09:38:01.390Z</time>
      </trkpt>
      <trkpt lat="45.34791" lon="5.85805">
        <ele>1556</ele>
        <time>2022-03-10T09:42:21.348Z</time>
      </trkpt>
      <trkpt lat="45.34794" lon="5.85811">
        <ele>1539</ele>
        <time>2022-03-10T09:42:22.346Z</time>
      </trkpt>
      <trkpt lat="45.34794" lon="5.85812">
        <ele>1539</ele>
        <time>2022-03-10T09:42:27.358Z</time>
      </trkpt>
      <trkpt lat="45.34794" lon="5.85812">
        <ele>1539</ele>
        <time>2022-03-10T09:50:37.385Z</time>
      </trkpt>
      <trkpt lat="45.34793" lon="5.85816">
        <ele>1540</ele>
        <time>2022-03-10T09:50:38.437Z</time>
      </trkpt>
      <trkpt lat="45.34786" lon="5.85824">
        <ele>1540</ele>
        <time>2022-03-10T09:50:49.386Z</time>
      </trkpt>
      <trkpt lat="45.34781" lon="5.85825">
        <ele>1542</ele>
        <time>2022-03-10T09:51:00.419Z</time>
      </trkpt>
      <trkpt lat="45.34781" lon="5.85825">
        <ele>1542</ele>
        <time>2022-03-10T09:51:10.425Z</time>
      </trkpt>
      <trkpt lat="45.34778" lon="5.8583">
        <ele>1544</ele>
        <time>2022-03-10T09:51:11.413Z</time>
      </trkpt>
      <trkpt lat="45.34777" lon="5.85831">
        <ele>1545</ele>
        <time>2022-03-10T09:51:17.420Z</time>
      </trkpt>
      <trkpt lat="45.34777" lon="5.85831">
        <ele>1545</ele>
        <time>2022-03-10T09:51:35.430Z</time>
      </trkpt>
      <trkpt lat="45.34776" lon="5.85836">
        <ele>1549</ele>
        <time>2022-03-10T09:51:36.423Z</time>
      </trkpt>
      <trkpt lat="45.34768" lon="5.85843">
        <ele>1550</ele>
        <time>2022-03-10T09:51:45.422Z</time>
      </trkpt>
      <trkpt lat="45.34761" lon="5.85848">
        <ele>1550</ele>
        <time>2022-03-10T09:51:59.434Z</time>
      </trkpt>
      <trkpt lat="45.34761" lon="5.85848">
        <ele>1550</ele>
        <time>2022-03-10T09:52:06.424Z</time>
      </trkpt>
      <trkpt lat="45.34757" lon="5.8585">
        <ele>1550</ele>
        <time>2022-03-10T09:52:07.420Z</time>
      </trkpt>
      <trkpt lat="45.3475" lon="5.85859">
        <ele>1550</ele>
        <time>2022-03-10T09:52:17.349Z</time>
      </trkpt>
      <trkpt lat="45.34742" lon="5.85866">
        <ele>1550</ele>
        <time>2022-03-10T09:52:27.436Z</time>
      </trkpt>
      <trkpt lat="45.34733" lon="5.85873">
        <ele>1549</ele>
        <time>2022-03-10T09:52:41.462Z</time>
      </trkpt>
      <trkpt lat="45.34724" lon="5.85879">
        <ele>1547</ele>
        <time>2022-03-10T09:52:55.418Z</time>
      </trkpt>
      <trkpt lat="45.34718" lon="5.85889">
        <ele>1546</ele>
        <time>2022-03-10T09:53:04.422Z</time>
      </trkpt>
      <trkpt lat="45.3471" lon="5.85898">
        <ele>1546</ele>
        <time>2022-03-10T09:53:10.419Z</time>
      </trkpt>
      <trkpt lat="45.34704" lon="5.85907">
        <ele>1546</ele>
        <time>2022-03-10T09:53:18.427Z</time>
      </trkpt>
      <trkpt lat="45.34698" lon="5.85918">
        <ele>1547</ele>
        <time>2022-03-10T09:53:26.399Z</time>
      </trkpt>
      <trkpt lat="45.34696" lon="5.85932">
        <ele>1548</ele>
        <time>2022-03-10T09:53:35.425Z</time>
      </trkpt>
      <trkpt lat="45.34688" lon="5.85942">
        <ele>1549</ele>
        <time>2022-03-10T09:53:43.422Z</time>
      </trkpt>
      <trkpt lat="45.34682" lon="5.85952">
        <ele>1551</ele>
        <time>2022-03-10T09:53:52.376Z</time>
      </trkpt>
      <trkpt lat="45.34674" lon="5.8596">
        <ele>1553</ele>
        <time>2022-03-10T09:54:06.403Z</time>
      </trkpt>
      <trkpt lat="45.34668" lon="5.8597">
        <ele>1553</ele>
        <time>2022-03-10T09:54:13.408Z</time>
      </trkpt>
      <trkpt lat="45.34659" lon="5.85977">
        <ele>1554</ele>
        <time>2022-03-10T09:54:24.414Z</time>
      </trkpt>
      <trkpt lat="45.34651" lon="5.85985">
        <ele>1554</ele>
        <time>2022-03-10T09:54:30.384Z</time>
      </trkpt>
      <trkpt lat="45.34643" lon="5.85992">
        <ele>1554</ele>
        <time>2022-03-10T09:54:43.383Z</time>
      </trkpt>
      <trkpt lat="45.34635" lon="5.85999">
        <ele>1553</ele>
        <time>2022-03-10T09:54:55.393Z</time>
      </trkpt>
      <trkpt lat="45.34633" lon="5.86011">
        <ele>1553</ele>
        <time>2022-03-10T09:55:02.363Z</time>
      </trkpt>
      <trkpt lat="45.34628" lon="5.86016">
        <ele>1553</ele>
        <time>2022-03-10T09:55:11.422Z</time>
      </trkpt>
      <trkpt lat="45.34628" lon="5.86016">
        <ele>1553</ele>
        <time>2022-03-10T09:55:24.402Z</time>
      </trkpt>
      <trkpt lat="45.34626" lon="5.86021">
        <ele>1554</ele>
        <time>2022-03-10T09:55:25.381Z</time>
      </trkpt>
      <trkpt lat="45.34623" lon="5.86034">
        <ele>1554</ele>
        <time>2022-03-10T09:55:36.416Z</time>
      </trkpt>
      <trkpt lat="45.34621" lon="5.86047">
        <ele>1553</ele>
        <time>2022-03-10T09:55:45.371Z</time>
      </trkpt>
      <trkpt lat="45.34621" lon="5.86062">
        <ele>1551</ele>
        <time>2022-03-10T09:55:54.419Z</time>
      </trkpt>
      <trkpt lat="45.3462" lon="5.86075">
        <ele>1549</ele>
        <time>2022-03-10T09:56:04.385Z</time>
      </trkpt>
      <trkpt lat="45.34621" lon="5.86088">
        <ele>1547</ele>
        <time>2022-03-10T09:56:12.409Z</time>
      </trkpt>
      <trkpt lat="45.34622" lon="5.86094">
        <ele>1545</ele>
        <time>2022-03-10T09:56:18.448Z</time>
      </trkpt>
      <trkpt lat="45.34622" lon="5.86094">
        <ele>1545</ele>
        <time>2022-03-10T09:56:24.432Z</time>
      </trkpt>
      <trkpt lat="45.34621" lon="5.861">
        <ele>1545</ele>
        <time>2022-03-10T09:56:25.408Z</time>
      </trkpt>
      <trkpt lat="45.34623" lon="5.86112">
        <ele>1544</ele>
        <time>2022-03-10T09:56:33.411Z</time>
      </trkpt>
      <trkpt lat="45.34623" lon="5.86112">
        <ele>1544</ele>
        <time>2022-03-10T09:56:35.387Z</time>
      </trkpt>
      <trkpt lat="45.34623" lon="5.86112">
        <ele>1544</ele>
        <time>2022-03-10T09:56:52.411Z</time>
      </trkpt>
      <trkpt lat="45.34625" lon="5.86117">
        <ele>1543</ele>
        <time>2022-03-10T09:56:53.388Z</time>
      </trkpt>
      <trkpt lat="45.34629" lon="5.8613">
        <ele>1543</ele>
        <time>2022-03-10T09:57:12.372Z</time>
      </trkpt>
      <trkpt lat="45.34626" lon="5.86143">
        <ele>1543</ele>
        <time>2022-03-10T09:57:22.347Z</time>
      </trkpt>
      <trkpt lat="45.34627" lon="5.86147">
        <ele>1542</ele>
        <time>2022-03-10T09:57:37.384Z</time>
      </trkpt>
      <trkpt lat="45.34627" lon="5.86147">
        <ele>1542</ele>
        <time>2022-03-10T09:57:49.395Z</time>
      </trkpt>
      <trkpt lat="45.34627" lon="5.86152">
        <ele>1541</ele>
        <time>2022-03-10T09:57:50.366Z</time>
      </trkpt>
      <trkpt lat="45.34628" lon="5.86165">
        <ele>1540</ele>
        <time>2022-03-10T09:58:06.369Z</time>
      </trkpt>
      <trkpt lat="45.34624" lon="5.86178">
        <ele>1539</ele>
        <time>2022-03-10T09:58:20.417Z</time>
      </trkpt>
      <trkpt lat="45.34624" lon="5.86186">
        <ele>1538</ele>
        <time>2022-03-10T09:58:29.418Z</time>
      </trkpt>
      <trkpt lat="45.34624" lon="5.86186">
        <ele>1538</ele>
        <time>2022-03-10T09:58:34.419Z</time>
      </trkpt>
      <trkpt lat="45.34622" lon="5.86192">
        <ele>1537</ele>
        <time>2022-03-10T09:58:35.409Z</time>
      </trkpt>
      <trkpt lat="45.3462" lon="5.86204">
        <ele>1536</ele>
        <time>2022-03-10T09:58:48.381Z</time>
      </trkpt>
      <trkpt lat="45.3462" lon="5.86217">
        <ele>1536</ele>
        <time>2022-03-10T09:58:57.366Z</time>
      </trkpt>
      <trkpt lat="45.34624" lon="5.86231">
        <ele>1536</ele>
        <time>2022-03-10T09:59:06.415Z</time>
      </trkpt>
      <trkpt lat="45.3463" lon="5.86241">
        <ele>1535</ele>
        <time>2022-03-10T09:59:19.434Z</time>
      </trkpt>
      <trkpt lat="45.34634" lon="5.86252">
        <ele>1534</ele>
        <time>2022-03-10T09:59:28.447Z</time>
      </trkpt>
      <trkpt lat="45.34638" lon="5.86266">
        <ele>1533</ele>
        <time>2022-03-10T09:59:39.412Z</time>
      </trkpt>
      <trkpt lat="45.3464" lon="5.86279">
        <ele>1532</ele>
        <time>2022-03-10T09:59:51.400Z</time>
      </trkpt>
      <trkpt lat="45.34642" lon="5.86294">
        <ele>1533</ele>
        <time>2022-03-10T10:00:01.427Z</time>
      </trkpt>
      <trkpt lat="45.34642" lon="5.86308">
        <ele>1534</ele>
        <time>2022-03-10T10:00:07.419Z</time>
      </trkpt>
      <trkpt lat="45.34643" lon="5.86321">
        <ele>1535</ele>
        <time>2022-03-10T10:00:13.411Z</time>
      </trkpt>
      <trkpt lat="45.34646" lon="5.86334">
        <ele>1535</ele>
        <time>2022-03-10T10:00:20.415Z</time>
      </trkpt>
      <trkpt lat="45.3465" lon="5.86346">
        <ele>1536</ele>
        <time>2022-03-10T10:00:31.386Z</time>
      </trkpt>
      <trkpt lat="45.34652" lon="5.86348">
        <ele>1536</ele>
        <time>2022-03-10T10:00:36.408Z</time>
      </trkpt>
      <trkpt lat="45.34652" lon="5.86348">
        <ele>1536</ele>
        <time>2022-03-10T10:00:51.389Z</time>
      </trkpt>
      <trkpt lat="45.34657" lon="5.86353">
        <ele>1533</ele>
        <time>2022-03-10T10:00:52.450Z</time>
      </trkpt>
      <trkpt lat="45.34659" lon="5.86354">
        <ele>1531</ele>
        <time>2022-03-10T10:01:07.408Z</time>
      </trkpt>
      <trkpt lat="45.34659" lon="5.86354">
        <ele>1531</ele>
        <time>2022-03-10T10:01:21.422Z</time>
      </trkpt>
      <trkpt lat="45.34657" lon="5.8636">
        <ele>1527</ele>
        <time>2022-03-10T10:01:22.395Z</time>
      </trkpt>
      <trkpt lat="45.34655" lon="5.8636">
        <ele>1526</ele>
        <time>2022-03-10T10:01:28.386Z</time>
      </trkpt>
      <trkpt lat="45.34655" lon="5.8636">
        <ele>1526</ele>
        <time>2022-03-10T10:01:47.363Z</time>
      </trkpt>
      <trkpt lat="45.34654" lon="5.86366">
        <ele>1523</ele>
        <time>2022-03-10T10:01:48.354Z</time>
      </trkpt>
      <trkpt lat="45.34651" lon="5.86379">
        <ele>1523</ele>
        <time>2022-03-10T10:01:57.368Z</time>
      </trkpt>
      <trkpt lat="45.34651" lon="5.86393">
        <ele>1523</ele>
        <time>2022-03-10T10:02:06.413Z</time>
      </trkpt>
      <trkpt lat="45.34649" lon="5.86405">
        <ele>1524</ele>
        <time>2022-03-10T10:02:16.365Z</time>
      </trkpt>
      <trkpt lat="45.34642" lon="5.86413">
        <ele>1525</ele>
        <time>2022-03-10T10:02:27.367Z</time>
      </trkpt>
      <trkpt lat="45.34632" lon="5.86415">
        <ele>1527</ele>
        <time>2022-03-10T10:02:45.339Z</time>
      </trkpt>
      <trkpt lat="45.34632" lon="5.86415">
        <ele>1528</ele>
        <time>2022-03-10T10:02:49.360Z</time>
      </trkpt>
      <trkpt lat="45.34632" lon="5.86415">
        <ele>1528</ele>
        <time>2022-03-10T10:05:58.372Z</time>
      </trkpt>
      <trkpt lat="45.34628" lon="5.86418">
        <ele>1525</ele>
        <time>2022-03-10T10:05:59.416Z</time>
      </trkpt>
      <trkpt lat="45.34627" lon="5.86419">
        <ele>1525</ele>
        <time>2022-03-10T10:06:04.431Z</time>
      </trkpt>
      <trkpt lat="45.34627" lon="5.86419">
        <ele>1525</ele>
        <time>2022-03-10T10:06:20.374Z</time>
      </trkpt>
      <trkpt lat="45.34623" lon="5.8642">
        <ele>1529</ele>
        <time>2022-03-10T10:06:21.396Z</time>
      </trkpt>
      <trkpt lat="45.34616" lon="5.86413">
        <ele>1533</ele>
        <time>2022-03-10T10:06:35.381Z</time>
      </trkpt>
      <trkpt lat="45.34606" lon="5.8641">
        <ele>1541</ele>
        <time>2022-03-10T10:06:53.379Z</time>
      </trkpt>
      <trkpt lat="45.34597" lon="5.86413">
        <ele>1544</ele>
        <time>2022-03-10T10:07:06.424Z</time>
      </trkpt>
      <trkpt lat="45.34594" lon="5.86426">
        <ele>1547</ele>
        <time>2022-03-10T10:07:33.419Z</time>
      </trkpt>
      <trkpt lat="45.3459" lon="5.86438">
        <ele>1547</ele>
        <time>2022-03-10T10:07:49.391Z</time>
      </trkpt>
      <trkpt lat="45.34582" lon="5.86445">
        <ele>1547</ele>
        <time>2022-03-10T10:08:12.402Z</time>
      </trkpt>
      <trkpt lat="45.3458" lon="5.86446">
        <ele>1547</ele>
        <time>2022-03-10T10:08:18.412Z</time>
      </trkpt>
      <trkpt lat="45.3458" lon="5.86446">
        <ele>1547</ele>
        <time>2022-03-10T10:08:38.392Z</time>
      </trkpt>
      <trkpt lat="45.34582" lon="5.86451">
        <ele>1549</ele>
        <time>2022-03-10T10:08:39.418Z</time>
      </trkpt>
      <trkpt lat="45.34588" lon="5.86461">
        <ele>1551</ele>
        <time>2022-03-10T10:08:56.366Z</time>
      </trkpt>
      <trkpt lat="45.34587" lon="5.86474">
        <ele>1554</ele>
        <time>2022-03-10T10:09:16.408Z</time>
      </trkpt>
      <trkpt lat="45.34588" lon="5.86487">
        <ele>1559</ele>
        <time>2022-03-10T10:09:56.376Z</time>
      </trkpt>
      <trkpt lat="45.34593" lon="5.86498">
        <ele>1561</ele>
        <time>2022-03-10T10:10:12.393Z</time>
      </trkpt>
      <trkpt lat="45.34598" lon="5.86504">
        <ele>1564</ele>
        <time>2022-03-10T10:10:32.366Z</time>
      </trkpt>
      <trkpt lat="45.34598" lon="5.86504">
        <ele>1564</ele>
        <time>2022-03-10T10:10:37.369Z</time>
      </trkpt>
      <trkpt lat="45.34599" lon="5.8651">
        <ele>1564</ele>
        <time>2022-03-10T10:10:38.389Z</time>
      </trkpt>
      <trkpt lat="45.34593" lon="5.86519">
        <ele>1567</ele>
        <time>2022-03-10T10:10:58.378Z</time>
      </trkpt>
      <trkpt lat="45.34584" lon="5.86525">
        <ele>1569</ele>
        <time>2022-03-10T10:11:14.352Z</time>
      </trkpt>
      <trkpt lat="45.34575" lon="5.86527">
        <ele>1573</ele>
        <time>2022-03-10T10:11:31.391Z</time>
      </trkpt>
      <trkpt lat="45.34566" lon="5.8653">
        <ele>1575</ele>
        <time>2022-03-10T10:11:50.357Z</time>
      </trkpt>
      <trkpt lat="45.34563" lon="5.86532">
        <ele>1578</ele>
        <time>2022-03-10T10:12:13.366Z</time>
      </trkpt>
      <trkpt lat="45.34563" lon="5.86532">
        <ele>1578</ele>
        <time>2022-03-10T10:12:23.366Z</time>
      </trkpt>
      <trkpt lat="45.34566" lon="5.86535">
        <ele>1578</ele>
        <time>2022-03-10T10:12:24.373Z</time>
      </trkpt>
      <trkpt lat="45.34559" lon="5.8654">
        <ele>1583</ele>
        <time>2022-03-10T10:12:52.357Z</time>
      </trkpt>
      <trkpt lat="45.34559" lon="5.8654">
        <ele>1583</ele>
        <time>2022-03-10T10:12:59.359Z</time>
      </trkpt>
      <trkpt lat="45.34555" lon="5.86539">
        <ele>1585</ele>
        <time>2022-03-10T10:13:00.362Z</time>
      </trkpt>
      <trkpt lat="45.34554" lon="5.86552">
        <ele>1595</ele>
        <time>2022-03-10T10:13:40.347Z</time>
      </trkpt>
      <trkpt lat="45.3456" lon="5.86562">
        <ele>1597</ele>
        <time>2022-03-10T10:13:55.360Z</time>
      </trkpt>
      <trkpt lat="45.34566" lon="5.86571">
        <ele>1598</ele>
        <time>2022-03-10T10:14:09.389Z</time>
      </trkpt>
      <trkpt lat="45.34569" lon="5.86576">
        <ele>1599</ele>
        <time>2022-03-10T10:14:18.338Z</time>
      </trkpt>
      <trkpt lat="45.34569" lon="5.86576">
        <ele>1599</ele>
        <time>2022-03-10T10:14:33.347Z</time>
      </trkpt>
      <trkpt lat="45.34565" lon="5.86577">
        <ele>1601</ele>
        <time>2022-03-10T10:14:34.355Z</time>
      </trkpt>
      <trkpt lat="45.34556" lon="5.86578">
        <ele>1604</ele>
        <time>2022-03-10T10:14:52.336Z</time>
      </trkpt>
      <trkpt lat="45.34546" lon="5.86578">
        <ele>1608</ele>
        <time>2022-03-10T10:15:08.351Z</time>
      </trkpt>
      <trkpt lat="45.3454" lon="5.86575">
        <ele>1610</ele>
        <time>2022-03-10T10:15:22.384Z</time>
      </trkpt>
      <trkpt lat="45.3454" lon="5.86575">
        <ele>1610</ele>
        <time>2022-03-10T10:15:30.336Z</time>
      </trkpt>
      <trkpt lat="45.34539" lon="5.8658">
        <ele>1612</ele>
        <time>2022-03-10T10:15:31.355Z</time>
      </trkpt>
      <trkpt lat="45.34545" lon="5.86591">
        <ele>1613</ele>
        <time>2022-03-10T10:15:54.346Z</time>
      </trkpt>
      <trkpt lat="45.34548" lon="5.86594">
        <ele>1613</ele>
        <time>2022-03-10T10:16:06.353Z</time>
      </trkpt>
      <trkpt lat="45.34548" lon="5.86594">
        <ele>1613</ele>
        <time>2022-03-10T10:16:19.349Z</time>
      </trkpt>
      <trkpt lat="45.34545" lon="5.86597">
        <ele>1614</ele>
        <time>2022-03-10T10:16:20.337Z</time>
      </trkpt>
      <trkpt lat="45.34536" lon="5.86598">
        <ele>1616</ele>
        <time>2022-03-10T10:16:39.339Z</time>
      </trkpt>
      <trkpt lat="45.34531" lon="5.86596">
        <ele>1620</ele>
        <time>2022-03-10T10:16:58.354Z</time>
      </trkpt>
      <trkpt lat="45.34531" lon="5.86596">
        <ele>1620</ele>
        <time>2022-03-10T10:17:13.341Z</time>
      </trkpt>
      <trkpt lat="45.34527" lon="5.86596">
        <ele>1623</ele>
        <time>2022-03-10T10:17:14.344Z</time>
      </trkpt>
      <trkpt lat="45.3452" lon="5.86593">
        <ele>1626</ele>
        <time>2022-03-10T10:17:31.371Z</time>
      </trkpt>
      <trkpt lat="45.3452" lon="5.86593">
        <ele>1626</ele>
        <time>2022-03-10T10:17:38.353Z</time>
      </trkpt>
      <trkpt lat="45.34519" lon="5.86598">
        <ele>1627</ele>
        <time>2022-03-10T10:17:39.351Z</time>
      </trkpt>
      <trkpt lat="45.34523" lon="5.8661">
        <ele>1629</ele>
        <time>2022-03-10T10:17:54.373Z</time>
      </trkpt>
      <trkpt lat="45.34528" lon="5.86621">
        <ele>1630</ele>
        <time>2022-03-10T10:18:12.351Z</time>
      </trkpt>
      <trkpt lat="45.34529" lon="5.86621">
        <ele>1630</ele>
        <time>2022-03-10T10:18:18.359Z</time>
      </trkpt>
      <trkpt lat="45.34529" lon="5.86621">
        <ele>1630</ele>
        <time>2022-03-10T10:18:33.366Z</time>
      </trkpt>
      <trkpt lat="45.34525" lon="5.86622">
        <ele>1631</ele>
        <time>2022-03-10T10:18:34.355Z</time>
      </trkpt>
      <trkpt lat="45.34516" lon="5.86619">
        <ele>1635</ele>
        <time>2022-03-10T10:18:52.346Z</time>
      </trkpt>
      <trkpt lat="45.34509" lon="5.86614">
        <ele>1641</ele>
        <time>2022-03-10T10:19:15.372Z</time>
      </trkpt>
      <trkpt lat="45.34509" lon="5.86614">
        <ele>1641</ele>
        <time>2022-03-10T10:19:24.394Z</time>
      </trkpt>
      <trkpt lat="45.34507" lon="5.86618">
        <ele>1642</ele>
        <time>2022-03-10T10:19:25.376Z</time>
      </trkpt>
      <trkpt lat="45.3451" lon="5.86631">
        <ele>1644</ele>
        <time>2022-03-10T10:19:41.362Z</time>
      </trkpt>
      <trkpt lat="45.34516" lon="5.86642">
        <ele>1644</ele>
        <time>2022-03-10T10:20:01.376Z</time>
      </trkpt>
      <trkpt lat="45.34517" lon="5.86644">
        <ele>1644</ele>
        <time>2022-03-10T10:20:10.362Z</time>
      </trkpt>
      <trkpt lat="45.34517" lon="5.86644">
        <ele>1644</ele>
        <time>2022-03-10T10:20:52.355Z</time>
      </trkpt>
      <trkpt lat="45.34513" lon="5.86642">
        <ele>1648</ele>
        <time>2022-03-10T10:20:53.395Z</time>
      </trkpt>
      <trkpt lat="45.34504" lon="5.86638">
        <ele>1650</ele>
        <time>2022-03-10T10:21:06.355Z</time>
      </trkpt>
      <trkpt lat="45.34496" lon="5.86631">
        <ele>1654</ele>
        <time>2022-03-10T10:21:20.365Z</time>
      </trkpt>
      <trkpt lat="45.34487" lon="5.86627">
        <ele>1658</ele>
        <time>2022-03-10T10:21:40.351Z</time>
      </trkpt>
      <trkpt lat="45.34484" lon="5.86625">
        <ele>1660</ele>
        <time>2022-03-10T10:21:55.349Z</time>
      </trkpt>
      <trkpt lat="45.34484" lon="5.86625">
        <ele>1660</ele>
        <time>2022-03-10T10:22:49.367Z</time>
      </trkpt>
      <trkpt lat="45.3448" lon="5.86622">
        <ele>1665</ele>
        <time>2022-03-10T10:22:50.379Z</time>
      </trkpt>
      <trkpt lat="45.34473" lon="5.86613">
        <ele>1666</ele>
        <time>2022-03-10T10:23:16.387Z</time>
      </trkpt>
      <trkpt lat="45.34464" lon="5.86618">
        <ele>1665</ele>
        <time>2022-03-10T10:23:30.356Z</time>
      </trkpt>
      <trkpt lat="45.34464" lon="5.86625">
        <ele>1663</ele>
        <time>2022-03-10T10:23:45.362Z</time>
      </trkpt>
      <trkpt lat="45.34464" lon="5.86625">
        <ele>1663</ele>
        <time>2022-03-10T10:28:08.407Z</time>
      </trkpt>
      <trkpt lat="45.3446" lon="5.86627">
        <ele>1662</ele>
        <time>2022-03-10T10:28:09.427Z</time>
      </trkpt>
      <trkpt lat="45.3446" lon="5.86626">
        <ele>1662</ele>
        <time>2022-03-10T10:28:15.426Z</time>
      </trkpt>
      <trkpt lat="45.3446" lon="5.86626">
        <ele>1662</ele>
        <time>2022-03-10T10:28:36.417Z</time>
      </trkpt>
      <trkpt lat="45.34456" lon="5.86629">
        <ele>1662</ele>
        <time>2022-03-10T10:28:37.422Z</time>
      </trkpt>
      <trkpt lat="45.34448" lon="5.86638">
        <ele>1662</ele>
        <time>2022-03-10T10:28:52.381Z</time>
      </trkpt>
      <trkpt lat="45.34442" lon="5.86646">
        <ele>1663</ele>
        <time>2022-03-10T10:29:11.440Z</time>
      </trkpt>
      <trkpt lat="45.34442" lon="5.86646">
        <ele>1663</ele>
        <time>2022-03-10T10:29:31.435Z</time>
      </trkpt>
      <trkpt lat="45.34439" lon="5.8665">
        <ele>1664</ele>
        <time>2022-03-10T10:29:32.453Z</time>
      </trkpt>
      <trkpt lat="45.34433" lon="5.86661">
        <ele>1665</ele>
        <time>2022-03-10T10:29:46.441Z</time>
      </trkpt>
      <trkpt lat="45.34426" lon="5.8667">
        <ele>1666</ele>
        <time>2022-03-10T10:30:02.332Z</time>
      </trkpt>
      <trkpt lat="45.34421" lon="5.86681">
        <ele>1668</ele>
        <time>2022-03-10T10:30:18.427Z</time>
      </trkpt>
      <trkpt lat="45.34414" lon="5.8669">
        <ele>1668</ele>
        <time>2022-03-10T10:30:32.409Z</time>
      </trkpt>
      <trkpt lat="45.34407" lon="5.86699">
        <ele>1668</ele>
        <time>2022-03-10T10:30:47.431Z</time>
      </trkpt>
      <trkpt lat="45.344" lon="5.86707">
        <ele>1670</ele>
        <time>2022-03-10T10:31:03.414Z</time>
      </trkpt>
      <trkpt lat="45.34392" lon="5.86715">
        <ele>1673</ele>
        <time>2022-03-10T10:31:17.390Z</time>
      </trkpt>
      <trkpt lat="45.34391" lon="5.86716">
        <ele>1675</ele>
        <time>2022-03-10T10:31:23.433Z</time>
      </trkpt>
      <trkpt lat="45.34391" lon="5.86716">
        <ele>1675</ele>
        <time>2022-03-10T10:31:32.433Z</time>
      </trkpt>
      <trkpt lat="45.34387" lon="5.86717">
        <ele>1678</ele>
        <time>2022-03-10T10:31:33.402Z</time>
      </trkpt>
      <trkpt lat="45.34381" lon="5.86727">
        <ele>1681</ele>
        <time>2022-03-10T10:31:46.418Z</time>
      </trkpt>
      <trkpt lat="45.34377" lon="5.86732">
        <ele>1684</ele>
        <time>2022-03-10T10:32:02.395Z</time>
      </trkpt>
      <trkpt lat="45.34377" lon="5.86732">
        <ele>1684</ele>
        <time>2022-03-10T10:32:12.418Z</time>
      </trkpt>
      <trkpt lat="45.34373" lon="5.86735">
        <ele>1686</ele>
        <time>2022-03-10T10:32:13.407Z</time>
      </trkpt>
      <trkpt lat="45.34365" lon="5.86743">
        <ele>1689</ele>
        <time>2022-03-10T10:32:28.343Z</time>
      </trkpt>
      <trkpt lat="45.34357" lon="5.8675">
        <ele>1690</ele>
        <time>2022-03-10T10:32:43.412Z</time>
      </trkpt>
      <trkpt lat="45.34349" lon="5.86757">
        <ele>1691</ele>
        <time>2022-03-10T10:32:58.416Z</time>
      </trkpt>
      <trkpt lat="45.34341" lon="5.86764">
        <ele>1693</ele>
        <time>2022-03-10T10:33:15.443Z</time>
      </trkpt>
      <trkpt lat="45.34338" lon="5.86765">
        <ele>1694</ele>
        <time>2022-03-10T10:33:22.350Z</time>
      </trkpt>
      <trkpt lat="45.34338" lon="5.86765">
        <ele>1694</ele>
        <time>2022-03-10T10:33:41.409Z</time>
      </trkpt>
      <trkpt lat="45.34341" lon="5.86769">
        <ele>1698</ele>
        <time>2022-03-10T10:33:42.407Z</time>
      </trkpt>
      <trkpt lat="45.34347" lon="5.86777">
        <ele>1703</ele>
        <time>2022-03-10T10:34:02.426Z</time>
      </trkpt>
      <trkpt lat="45.34347" lon="5.86777">
        <ele>1703</ele>
        <time>2022-03-10T10:34:13.387Z</time>
      </trkpt>
      <trkpt lat="45.34344" lon="5.8678">
        <ele>1704</ele>
        <time>2022-03-10T10:34:14.349Z</time>
      </trkpt>
      <trkpt lat="45.34336" lon="5.86789">
        <ele>1706</ele>
        <time>2022-03-10T10:34:32.358Z</time>
      </trkpt>
      <trkpt lat="45.34333" lon="5.86789">
        <ele>1706</ele>
        <time>2022-03-10T10:34:42.401Z</time>
      </trkpt>
      <trkpt lat="45.34333" lon="5.86789">
        <ele>1706</ele>
        <time>2022-03-10T10:35:35.442Z</time>
      </trkpt>
      <trkpt lat="45.34337" lon="5.86793">
        <ele>1709</ele>
        <time>2022-03-10T10:35:36.405Z</time>
      </trkpt>
      <trkpt lat="45.34344" lon="5.86801">
        <ele>1709</ele>
        <time>2022-03-10T10:35:53.436Z</time>
      </trkpt>
      <trkpt lat="45.34351" lon="5.86805">
        <ele>1710</ele>
        <time>2022-03-10T10:36:10.413Z</time>
      </trkpt>
      <trkpt lat="45.34351" lon="5.86805">
        <ele>1710</ele>
        <time>2022-03-10T10:36:30.357Z</time>
      </trkpt>
      <trkpt lat="45.34349" lon="5.8681">
        <ele>1712</ele>
        <time>2022-03-10T10:36:31.440Z</time>
      </trkpt>
      <trkpt lat="45.34354" lon="5.86821">
        <ele>1716</ele>
        <time>2022-03-10T10:36:51.409Z</time>
      </trkpt>
      <trkpt lat="45.3436" lon="5.86832">
        <ele>1719</ele>
        <time>2022-03-10T10:37:09.467Z</time>
      </trkpt>
      <trkpt lat="45.34368" lon="5.86838">
        <ele>1721</ele>
        <time>2022-03-10T10:37:23.416Z</time>
      </trkpt>
      <trkpt lat="45.34377" lon="5.86843">
        <ele>1725</ele>
        <time>2022-03-10T10:37:45.433Z</time>
      </trkpt>
      <trkpt lat="45.34386" lon="5.86847">
        <ele>1728</ele>
        <time>2022-03-10T10:38:07.411Z</time>
      </trkpt>
      <trkpt lat="45.34395" lon="5.86851">
        <ele>1733</ele>
        <time>2022-03-10T10:38:33.424Z</time>
      </trkpt>
      <trkpt lat="45.34404" lon="5.86853">
        <ele>1736</ele>
        <time>2022-03-10T10:38:51.410Z</time>
      </trkpt>
      <trkpt lat="45.34413" lon="5.86855">
        <ele>1739</ele>
        <time>2022-03-10T10:39:13.422Z</time>
      </trkpt>
      <trkpt lat="45.34422" lon="5.86862">
        <ele>1742</ele>
        <time>2022-03-10T10:39:31.407Z</time>
      </trkpt>
      <trkpt lat="45.34431" lon="5.86866">
        <ele>1745</ele>
        <time>2022-03-10T10:39:51.397Z</time>
      </trkpt>
      <trkpt lat="45.34438" lon="5.86867">
        <ele>1748</ele>
        <time>2022-03-10T10:40:13.381Z</time>
      </trkpt>
      <trkpt lat="45.34438" lon="5.86867">
        <ele>1748</ele>
        <time>2022-03-10T10:40:19.381Z</time>
      </trkpt>
      <trkpt lat="45.34442" lon="5.86869">
        <ele>1749</ele>
        <time>2022-03-10T10:40:20.370Z</time>
      </trkpt>
      <trkpt lat="45.34444" lon="5.86869">
        <ele>1750</ele>
        <time>2022-03-10T10:40:31.395Z</time>
      </trkpt>
      <trkpt lat="45.34444" lon="5.86869">
        <ele>1750</ele>
        <time>2022-03-10T10:40:41.386Z</time>
      </trkpt>
      <trkpt lat="45.34443" lon="5.86875">
        <ele>1752</ele>
        <time>2022-03-10T10:40:42.403Z</time>
      </trkpt>
      <trkpt lat="45.34435" lon="5.8688">
        <ele>1757</ele>
        <time>2022-03-10T10:41:08.344Z</time>
      </trkpt>
      <trkpt lat="45.34431" lon="5.86884">
        <ele>1760</ele>
        <time>2022-03-10T10:41:20.359Z</time>
      </trkpt>
      <trkpt lat="45.34431" lon="5.86884">
        <ele>1760</ele>
        <time>2022-03-10T10:41:31.359Z</time>
      </trkpt>
      <trkpt lat="45.34428" lon="5.86888">
        <ele>1761</ele>
        <time>2022-03-10T10:41:32.378Z</time>
      </trkpt>
      <trkpt lat="45.3442" lon="5.86896">
        <ele>1763</ele>
        <time>2022-03-10T10:41:47.332Z</time>
      </trkpt>
      <trkpt lat="45.3442" lon="5.86896">
        <ele>1764</ele>
        <time>2022-03-10T10:41:52.342Z</time>
      </trkpt>
      <trkpt lat="45.3442" lon="5.86896">
        <ele>1764</ele>
        <time>2022-03-10T10:42:32.358Z</time>
      </trkpt>
      <trkpt lat="45.34423" lon="5.869">
        <ele>1770</ele>
        <time>2022-03-10T10:42:33.363Z</time>
      </trkpt>
      <trkpt lat="45.3443" lon="5.86907">
        <ele>1772</ele>
        <time>2022-03-10T10:42:51.359Z</time>
      </trkpt>
      <trkpt lat="45.34431" lon="5.86909">
        <ele>1773</ele>
        <time>2022-03-10T10:43:02.340Z</time>
      </trkpt>
      <trkpt lat="45.34431" lon="5.86909">
        <ele>1773</ele>
        <time>2022-03-10T10:43:24.342Z</time>
      </trkpt>
      <trkpt lat="45.34427" lon="5.86909">
        <ele>1775</ele>
        <time>2022-03-10T10:43:25.351Z</time>
      </trkpt>
      <trkpt lat="45.3442" lon="5.86917">
        <ele>1777</ele>
        <time>2022-03-10T10:43:43.340Z</time>
      </trkpt>
      <trkpt lat="45.34418" lon="5.86922">
        <ele>1781</ele>
        <time>2022-03-10T10:43:59.362Z</time>
      </trkpt>
      <trkpt lat="45.34418" lon="5.86922">
        <ele>1781</ele>
        <time>2022-03-10T10:44:08.339Z</time>
      </trkpt>
      <trkpt lat="45.34414" lon="5.86922">
        <ele>1783</ele>
        <time>2022-03-10T10:44:09.358Z</time>
      </trkpt>
      <trkpt lat="45.34414" lon="5.86922">
        <ele>1784</ele>
        <time>2022-03-10T10:44:15.345Z</time>
      </trkpt>
      <trkpt lat="45.34414" lon="5.86922">
        <ele>1784</ele>
        <time>2022-03-10T10:44:47.339Z</time>
      </trkpt>
      <trkpt lat="45.34414" lon="5.86931">
        <ele>1787</ele>
        <time>2022-03-10T10:44:48.367Z</time>
      </trkpt>
      <trkpt lat="45.34421" lon="5.86939">
        <ele>1787</ele>
        <time>2022-03-10T10:45:04.368Z</time>
      </trkpt>
      <trkpt lat="45.3443" lon="5.86945">
        <ele>1788</ele>
        <time>2022-03-10T10:45:23.382Z</time>
      </trkpt>
      <trkpt lat="45.34439" lon="5.86947">
        <ele>1788</ele>
        <time>2022-03-10T10:45:42.349Z</time>
      </trkpt>
      <trkpt lat="45.34447" lon="5.86953">
        <ele>1789</ele>
        <time>2022-03-10T10:45:56.343Z</time>
      </trkpt>
      <trkpt lat="45.34457" lon="5.86953">
        <ele>1790</ele>
        <time>2022-03-10T10:46:15.384Z</time>
      </trkpt>
      <trkpt lat="45.34466" lon="5.86956">
        <ele>1792</ele>
        <time>2022-03-10T10:46:29.410Z</time>
      </trkpt>
      <trkpt lat="45.34474" lon="5.8696">
        <ele>1794</ele>
        <time>2022-03-10T10:46:41.442Z</time>
      </trkpt>
      <trkpt lat="45.34484" lon="5.8696">
        <ele>1799</ele>
        <time>2022-03-10T10:47:07.401Z</time>
      </trkpt>
      <trkpt lat="45.34487" lon="5.86963">
        <ele>1801</ele>
        <time>2022-03-10T10:47:17.406Z</time>
      </trkpt>
      <trkpt lat="45.34487" lon="5.86963">
        <ele>1801</ele>
        <time>2022-03-10T10:47:33.356Z</time>
      </trkpt>
      <trkpt lat="45.34483" lon="5.86964">
        <ele>1804</ele>
        <time>2022-03-10T10:47:34.392Z</time>
      </trkpt>
      <trkpt lat="45.34476" lon="5.86972">
        <ele>1806</ele>
        <time>2022-03-10T10:47:49.383Z</time>
      </trkpt>
      <trkpt lat="45.34468" lon="5.86979">
        <ele>1810</ele>
        <time>2022-03-10T10:48:08.449Z</time>
      </trkpt>
      <trkpt lat="45.34462" lon="5.86987">
        <ele>1813</ele>
        <time>2022-03-10T10:48:27.429Z</time>
      </trkpt>
      <trkpt lat="45.34462" lon="5.86987">
        <ele>1813</ele>
        <time>2022-03-10T10:48:35.419Z</time>
      </trkpt>
      <trkpt lat="45.34458" lon="5.86988">
        <ele>1814</ele>
        <time>2022-03-10T10:48:36.418Z</time>
      </trkpt>
      <trkpt lat="45.34454" lon="5.8699">
        <ele>1816</ele>
        <time>2022-03-10T10:48:50.346Z</time>
      </trkpt>
      <trkpt lat="45.34454" lon="5.8699">
        <ele>1816</ele>
        <time>2022-03-10T10:49:05.423Z</time>
      </trkpt>
      <trkpt lat="45.34455" lon="5.86995">
        <ele>1818</ele>
        <time>2022-03-10T10:49:06.436Z</time>
      </trkpt>
      <trkpt lat="45.34463" lon="5.87004">
        <ele>1820</ele>
        <time>2022-03-10T10:49:23.430Z</time>
      </trkpt>
      <trkpt lat="45.34471" lon="5.8701">
        <ele>1821</ele>
        <time>2022-03-10T10:49:42.432Z</time>
      </trkpt>
      <trkpt lat="45.34477" lon="5.8701">
        <ele>1823</ele>
        <time>2022-03-10T10:49:57.460Z</time>
      </trkpt>
      <trkpt lat="45.34477" lon="5.8701">
        <ele>1823</ele>
        <time>2022-03-10T10:50:21.428Z</time>
      </trkpt>
      <trkpt lat="45.34476" lon="5.87015">
        <ele>1829</ele>
        <time>2022-03-10T10:50:22.410Z</time>
      </trkpt>
      <trkpt lat="45.34475" lon="5.87016">
        <ele>1830</ele>
        <time>2022-03-10T10:50:27.424Z</time>
      </trkpt>
      <trkpt lat="45.34475" lon="5.87016">
        <ele>1830</ele>
        <time>2022-03-10T10:50:35.424Z</time>
      </trkpt>
      <trkpt lat="45.34471" lon="5.87019">
        <ele>1832</ele>
        <time>2022-03-10T10:50:36.418Z</time>
      </trkpt>
      <trkpt lat="45.34463" lon="5.87026">
        <ele>1835</ele>
        <time>2022-03-10T10:50:50.458Z</time>
      </trkpt>
      <trkpt lat="45.34459" lon="5.87031">
        <ele>1837</ele>
        <time>2022-03-10T10:51:05.443Z</time>
      </trkpt>
      <trkpt lat="45.34459" lon="5.87031">
        <ele>1837</ele>
        <time>2022-03-10T10:51:33.363Z</time>
      </trkpt>
      <trkpt lat="45.34457" lon="5.87036">
        <ele>1841</ele>
        <time>2022-03-10T10:51:34.366Z</time>
      </trkpt>
      <trkpt lat="45.34457" lon="5.87036">
        <ele>1841</ele>
        <time>2022-03-10T10:51:40.363Z</time>
      </trkpt>
      <trkpt lat="45.34457" lon="5.87036">
        <ele>1841</ele>
        <time>2022-03-10T10:51:55.381Z</time>
      </trkpt>
      <trkpt lat="45.34458" lon="5.87041">
        <ele>1843</ele>
        <time>2022-03-10T10:51:56.367Z</time>
      </trkpt>
      <trkpt lat="45.34467" lon="5.87046">
        <ele>1843</ele>
        <time>2022-03-10T10:52:15.352Z</time>
      </trkpt>
      <trkpt lat="45.3447" lon="5.87047">
        <ele>1843</ele>
        <time>2022-03-10T10:52:22.371Z</time>
      </trkpt>
      <trkpt lat="45.3447" lon="5.87047">
        <ele>1843</ele>
        <time>2022-03-10T10:52:42.372Z</time>
      </trkpt>
      <trkpt lat="45.34474" lon="5.87049">
        <ele>1843</ele>
        <time>2022-03-10T10:52:43.334Z</time>
      </trkpt>
      <trkpt lat="45.34482" lon="5.87055">
        <ele>1843</ele>
        <time>2022-03-10T10:52:58.385Z</time>
      </trkpt>
      <trkpt lat="45.34491" lon="5.87058">
        <ele>1845</ele>
        <time>2022-03-10T10:53:13.364Z</time>
      </trkpt>
      <trkpt lat="45.345" lon="5.87062">
        <ele>1848</ele>
        <time>2022-03-10T10:53:31.436Z</time>
      </trkpt>
      <trkpt lat="45.34508" lon="5.87069">
        <ele>1852</ele>
        <time>2022-03-10T10:53:46.394Z</time>
      </trkpt>
      <trkpt lat="45.34517" lon="5.87072">
        <ele>1858</ele>
        <time>2022-03-10T10:54:11.430Z</time>
      </trkpt>
      <trkpt lat="45.34525" lon="5.87075">
        <ele>1861</ele>
        <time>2022-03-10T10:54:31.395Z</time>
      </trkpt>
      <trkpt lat="45.34525" lon="5.87075">
        <ele>1861</ele>
        <time>2022-03-10T10:54:59.418Z</time>
      </trkpt>
      <trkpt lat="45.34521" lon="5.87078">
        <ele>1864</ele>
        <time>2022-03-10T10:55:00.441Z</time>
      </trkpt>
      <trkpt lat="45.34514" lon="5.87086">
        <ele>1865</ele>
        <time>2022-03-10T10:55:15.399Z</time>
      </trkpt>
      <trkpt lat="45.34507" lon="5.87094">
        <ele>1868</ele>
        <time>2022-03-10T10:55:29.402Z</time>
      </trkpt>
      <trkpt lat="45.34498" lon="5.87102">
        <ele>1873</ele>
        <time>2022-03-10T10:55:52.368Z</time>
      </trkpt>
      <trkpt lat="45.34495" lon="5.87104">
        <ele>1875</ele>
        <time>2022-03-10T10:56:04.372Z</time>
      </trkpt>
      <trkpt lat="45.34495" lon="5.87104">
        <ele>1875</ele>
        <time>2022-03-10T10:56:37.368Z</time>
      </trkpt>
      <trkpt lat="45.34499" lon="5.87107">
        <ele>1879</ele>
        <time>2022-03-10T10:56:38.370Z</time>
      </trkpt>
      <trkpt lat="45.34501" lon="5.87113">
        <ele>1879</ele>
        <time>2022-03-10T10:56:56.374Z</time>
      </trkpt>
      <trkpt lat="45.34501" lon="5.87113">
        <ele>1879</ele>
        <time>2022-03-10T10:57:02.361Z</time>
      </trkpt>
      <trkpt lat="45.34497" lon="5.87112">
        <ele>1880</ele>
        <time>2022-03-10T10:57:03.393Z</time>
      </trkpt>
      <trkpt lat="45.34493" lon="5.87113">
        <ele>1881</ele>
        <time>2022-03-10T10:57:20.375Z</time>
      </trkpt>
      <trkpt lat="45.34493" lon="5.87113">
        <ele>1881</ele>
        <time>2022-03-10T10:57:31.378Z</time>
      </trkpt>
      <trkpt lat="45.34496" lon="5.87117">
        <ele>1883</ele>
        <time>2022-03-10T10:57:32.370Z</time>
      </trkpt>
      <trkpt lat="45.34504" lon="5.87122">
        <ele>1886</ele>
        <time>2022-03-10T10:57:54.384Z</time>
      </trkpt>
      <trkpt lat="45.34506" lon="5.87126">
        <ele>1887</ele>
        <time>2022-03-10T10:58:13.358Z</time>
      </trkpt>
      <trkpt lat="45.34506" lon="5.87126">
        <ele>1887</ele>
        <time>2022-03-10T10:58:39.365Z</time>
      </trkpt>
      <trkpt lat="45.34503" lon="5.8713">
        <ele>1888</ele>
        <time>2022-03-10T10:58:40.373Z</time>
      </trkpt>
      <trkpt lat="45.34499" lon="5.87133">
        <ele>1889</ele>
        <time>2022-03-10T10:59:04.372Z</time>
      </trkpt>
      <trkpt lat="45.34499" lon="5.87133">
        <ele>1889</ele>
        <time>2022-03-10T10:59:43.374Z</time>
      </trkpt>
      <trkpt lat="45.34495" lon="5.87138">
        <ele>1889</ele>
        <time>2022-03-10T10:59:44.377Z</time>
      </trkpt>
      <trkpt lat="45.34501" lon="5.87146">
        <ele>1892</ele>
        <time>2022-03-10T11:00:13.378Z</time>
      </trkpt>
      <trkpt lat="45.34501" lon="5.87146">
        <ele>1892</ele>
        <time>2022-03-10T11:00:19.369Z</time>
      </trkpt>
      <trkpt lat="45.34505" lon="5.87145">
        <ele>1892</ele>
        <time>2022-03-10T11:00:20.385Z</time>
      </trkpt>
      <trkpt lat="45.34505" lon="5.87145">
        <ele>1893</ele>
        <time>2022-03-10T11:00:32.382Z</time>
      </trkpt>
      <trkpt lat="45.34505" lon="5.87145">
        <ele>1893</ele>
        <time>2022-03-10T11:00:59.373Z</time>
      </trkpt>
      <trkpt lat="45.34501" lon="5.87143">
        <ele>1898</ele>
        <time>2022-03-10T11:01:00.369Z</time>
      </trkpt>
      <trkpt lat="45.34499" lon="5.87149">
        <ele>1905</ele>
        <time>2022-03-10T11:01:18.386Z</time>
      </trkpt>
      <trkpt lat="45.34499" lon="5.87149">
        <ele>1905</ele>
        <time>2022-03-10T11:01:29.375Z</time>
      </trkpt>
      <trkpt lat="45.34501" lon="5.87153">
        <ele>1909</ele>
        <time>2022-03-10T11:01:30.375Z</time>
      </trkpt>
      <trkpt lat="45.34508" lon="5.87158">
        <ele>1911</ele>
        <time>2022-03-10T11:01:53.391Z</time>
      </trkpt>
      <trkpt lat="45.34508" lon="5.87158">
        <ele>1911</ele>
        <time>2022-03-10T11:02:00.372Z</time>
      </trkpt>
      <trkpt lat="45.34512" lon="5.87157">
        <ele>1911</ele>
        <time>2022-03-10T11:02:01.366Z</time>
      </trkpt>
      <trkpt lat="45.34508" lon="5.8716">
        <ele>1912</ele>
        <time>2022-03-10T11:02:20.370Z</time>
      </trkpt>
      <trkpt lat="45.34508" lon="5.8716">
        <ele>1912</ele>
        <time>2022-03-10T11:02:31.376Z</time>
      </trkpt>
      <trkpt lat="45.34506" lon="5.87165">
        <ele>1914</ele>
        <time>2022-03-10T11:02:32.369Z</time>
      </trkpt>
      <trkpt lat="45.345" lon="5.87175">
        <ele>1917</ele>
        <time>2022-03-10T11:02:56.360Z</time>
      </trkpt>
      <trkpt lat="45.34499" lon="5.87175">
        <ele>1917</ele>
        <time>2022-03-10T11:03:00.375Z</time>
      </trkpt>
      <trkpt lat="45.34499" lon="5.87175">
        <ele>1917</ele>
        <time>2022-03-10T11:08:34.404Z</time>
      </trkpt>
      <trkpt lat="45.34496" lon="5.87185">
        <ele>1916</ele>
        <time>2022-03-10T11:08:35.435Z</time>
      </trkpt>
      <trkpt lat="45.34495" lon="5.87188">
        <ele>1916</ele>
        <time>2022-03-10T11:08:41.395Z</time>
      </trkpt>
      <trkpt lat="45.34495" lon="5.87188">
        <ele>1916</ele>
        <time>2022-03-10T11:09:53.390Z</time>
      </trkpt>
      <trkpt lat="45.34496" lon="5.87181">
        <ele>1913</ele>
        <time>2022-03-10T11:09:54.386Z</time>
      </trkpt>
      <trkpt lat="45.34495" lon="5.87179">
        <ele>1913</ele>
        <time>2022-03-10T11:10:01.354Z</time>
      </trkpt>
      <trkpt lat="45.34495" lon="5.87179">
        <ele>1913</ele>
        <time>2022-03-10T11:11:25.358Z</time>
      </trkpt>
      <trkpt lat="45.34498" lon="5.87189">
        <ele>1916</ele>
        <time>2022-03-10T11:11:26.358Z</time>
      </trkpt>
      <trkpt lat="45.34498" lon="5.87188">
        <ele>1916</ele>
        <time>2022-03-10T11:11:34.361Z</time>
      </trkpt>
      <trkpt lat="45.34498" lon="5.87188">
        <ele>1916</ele>
        <time>2022-03-10T11:13:09.343Z</time>
      </trkpt>
      <trkpt lat="45.34496" lon="5.87192">
        <ele>1918</ele>
        <time>2022-03-10T11:13:10.353Z</time>
      </trkpt>
      <trkpt lat="45.34491" lon="5.872">
        <ele>1921</ele>
        <time>2022-03-10T11:13:42.382Z</time>
      </trkpt>
      <trkpt lat="45.34491" lon="5.872">
        <ele>1921</ele>
        <time>2022-03-10T11:14:18.365Z</time>
      </trkpt>
      <trkpt lat="45.34487" lon="5.87202">
        <ele>1926</ele>
        <time>2022-03-10T11:14:19.358Z</time>
      </trkpt>
      <trkpt lat="45.34486" lon="5.87203">
        <ele>1927</ele>
        <time>2022-03-10T11:14:24.369Z</time>
      </trkpt>
      <trkpt lat="45.34486" lon="5.87203">
        <ele>1927</ele>
        <time>2022-03-10T11:14:30.371Z</time>
      </trkpt>
      <trkpt lat="45.34482" lon="5.87205">
        <ele>1927</ele>
        <time>2022-03-10T11:14:31.380Z</time>
      </trkpt>
      <trkpt lat="45.34478" lon="5.87217">
        <ele>1929</ele>
        <time>2022-03-10T11:14:58.356Z</time>
      </trkpt>
      <trkpt lat="45.34472" lon="5.87227">
        <ele>1932</ele>
        <time>2022-03-10T11:15:25.359Z</time>
      </trkpt>
      <trkpt lat="45.34463" lon="5.87231">
        <ele>1933</ele>
        <time>2022-03-10T11:15:40.360Z</time>
      </trkpt>
      <trkpt lat="45.34462" lon="5.8723">
        <ele>1934</ele>
        <time>2022-03-10T11:15:46.384Z</time>
      </trkpt>
      <trkpt lat="45.34462" lon="5.8723">
        <ele>1934</ele>
        <time>2022-03-10T11:16:35.362Z</time>
      </trkpt>
      <trkpt lat="45.3446" lon="5.87234">
        <ele>1937</ele>
        <time>2022-03-10T11:16:36.392Z</time>
      </trkpt>
      <trkpt lat="45.34451" lon="5.87239">
        <ele>1939</ele>
        <time>2022-03-10T11:16:49.390Z</time>
      </trkpt>
      <trkpt lat="45.34446" lon="5.87248">
        <ele>1945</ele>
        <time>2022-03-10T11:17:12.377Z</time>
      </trkpt>
      <trkpt lat="45.34446" lon="5.87248">
        <ele>1945</ele>
        <time>2022-03-10T11:17:25.406Z</time>
      </trkpt>
      <trkpt lat="45.34445" lon="5.87253">
        <ele>1948</ele>
        <time>2022-03-10T11:17:26.329Z</time>
      </trkpt>
      <trkpt lat="45.34444" lon="5.87266">
        <ele>1950</ele>
        <time>2022-03-10T11:17:52.419Z</time>
      </trkpt>
      <trkpt lat="45.34445" lon="5.87275">
        <ele>1950</ele>
        <time>2022-03-10T11:18:22.370Z</time>
      </trkpt>
      <trkpt lat="45.34445" lon="5.87275">
        <ele>1950</ele>
        <time>2022-03-10T11:18:35.373Z</time>
      </trkpt>
      <trkpt lat="45.34446" lon="5.8728">
        <ele>1951</ele>
        <time>2022-03-10T11:18:36.412Z</time>
      </trkpt>
      <trkpt lat="45.34443" lon="5.87283">
        <ele>1952</ele>
        <time>2022-03-10T11:18:55.396Z</time>
      </trkpt>
      <trkpt lat="45.34443" lon="5.87283">
        <ele>1952</ele>
        <time>2022-03-10T11:19:23.389Z</time>
      </trkpt>
      <trkpt lat="45.34442" lon="5.87289">
        <ele>1952</ele>
        <time>2022-03-10T11:19:24.351Z</time>
      </trkpt>
      <trkpt lat="45.34443" lon="5.87291">
        <ele>1953</ele>
        <time>2022-03-10T11:19:34.352Z</time>
      </trkpt>
      <trkpt lat="45.34443" lon="5.87291">
        <ele>1953</ele>
        <time>2022-03-10T11:19:52.402Z</time>
      </trkpt>
      <trkpt lat="45.34442" lon="5.87299">
        <ele>1954</ele>
        <time>2022-03-10T11:19:53.389Z</time>
      </trkpt>
      <trkpt lat="45.34441" lon="5.87302">
        <ele>1953</ele>
        <time>2022-03-10T11:20:03.366Z</time>
      </trkpt>
      <trkpt lat="45.34441" lon="5.87302">
        <ele>1953</ele>
        <time>2022-03-10T11:20:19.369Z</time>
      </trkpt>
      <trkpt lat="45.34439" lon="5.87307">
        <ele>1953</ele>
        <time>2022-03-10T11:20:20.373Z</time>
      </trkpt>
      <trkpt lat="45.34432" lon="5.87311">
        <ele>1954</ele>
        <time>2022-03-10T11:20:53.383Z</time>
      </trkpt>
      <trkpt lat="45.34432" lon="5.87311">
        <ele>1954</ele>
        <time>2022-03-10T11:21:08.374Z</time>
      </trkpt>
      <trkpt lat="45.34428" lon="5.87311">
        <ele>1955</ele>
        <time>2022-03-10T11:21:09.375Z</time>
      </trkpt>
      <trkpt lat="45.34437" lon="5.87311">
        <ele>1956</ele>
        <time>2022-03-10T11:21:39.361Z</time>
      </trkpt>
      <trkpt lat="45.34438" lon="5.87319">
        <ele>1961</ele>
        <time>2022-03-10T11:22:34.323Z</time>
      </trkpt>
      <trkpt lat="45.34438" lon="5.87319">
        <ele>1961</ele>
        <time>2022-03-10T11:24:02.394Z</time>
      </trkpt>
      <trkpt lat="45.34442" lon="5.87323">
        <ele>1972</ele>
        <time>2022-03-10T11:24:03.337Z</time>
      </trkpt>
      <trkpt lat="45.34443" lon="5.87323">
        <ele>1972</ele>
        <time>2022-03-10T11:24:15.334Z</time>
      </trkpt>
      <trkpt lat="45.34443" lon="5.87323">
        <ele>1972</ele>
        <time>2022-03-10T11:24:39.381Z</time>
      </trkpt>
      <trkpt lat="45.34439" lon="5.87327">
        <ele>1972</ele>
        <time>2022-03-10T11:24:40.362Z</time>
      </trkpt>
      <trkpt lat="45.34435" lon="5.87328">
        <ele>1973</ele>
        <time>2022-03-10T11:24:49.379Z</time>
      </trkpt>
      <trkpt lat="45.34435" lon="5.87328">
        <ele>1973</ele>
        <time>2022-03-10T11:26:00.380Z</time>
      </trkpt>
      <trkpt lat="45.34439" lon="5.8733">
        <ele>1973</ele>
        <time>2022-03-10T11:26:01.387Z</time>
      </trkpt>
      <trkpt lat="45.34445" lon="5.87339">
        <ele>1972</ele>
        <time>2022-03-10T11:26:25.398Z</time>
      </trkpt>
      <trkpt lat="45.34445" lon="5.8734">
        <ele>1973</ele>
        <time>2022-03-10T11:26:36.366Z</time>
      </trkpt>
      <trkpt lat="45.34445" lon="5.8734">
        <ele>1973</ele>
        <time>2022-03-10T11:26:51.380Z</time>
      </trkpt>
      <trkpt lat="45.34447" lon="5.87344">
        <ele>1975</ele>
        <time>2022-03-10T11:26:52.398Z</time>
      </trkpt>
      <trkpt lat="45.34456" lon="5.87349">
        <ele>1981</ele>
        <time>2022-03-10T11:27:16.402Z</time>
      </trkpt>
      <trkpt lat="45.34456" lon="5.87349">
        <ele>1982</ele>
        <time>2022-03-10T11:27:19.376Z</time>
      </trkpt>
      <trkpt lat="45.34456" lon="5.87349">
        <ele>1982</ele>
        <time>2022-03-10T11:28:17.387Z</time>
      </trkpt>
      <trkpt lat="45.34452" lon="5.87351">
        <ele>1993</ele>
        <time>2022-03-10T11:28:18.377Z</time>
      </trkpt>
      <trkpt lat="45.34449" lon="5.87363">
        <ele>2000</ele>
        <time>2022-03-10T11:28:59.391Z</time>
      </trkpt>
      <trkpt lat="45.34451" lon="5.87367">
        <ele>2006</ele>
        <time>2022-03-10T11:29:20.372Z</time>
      </trkpt>
      <trkpt lat="45.34451" lon="5.87367">
        <ele>2006</ele>
        <time>2022-03-10T11:29:29.423Z</time>
      </trkpt>
      <trkpt lat="45.34451" lon="5.87372">
        <ele>2009</ele>
        <time>2022-03-10T11:29:30.410Z</time>
      </trkpt>
      <trkpt lat="45.34451" lon="5.87378">
        <ele>2014</ele>
        <time>2022-03-10T11:29:49.420Z</time>
      </trkpt>
      <trkpt lat="45.34451" lon="5.87378">
        <ele>2014</ele>
        <time>2022-03-10T11:30:20.386Z</time>
      </trkpt>
      <trkpt lat="45.34452" lon="5.87383">
        <ele>2017</ele>
        <time>2022-03-10T11:30:21.418Z</time>
      </trkpt>
      <trkpt lat="45.34454" lon="5.87386">
        <ele>2018</ele>
        <time>2022-03-10T11:30:35.417Z</time>
      </trkpt>
      <trkpt lat="45.34454" lon="5.87386">
        <ele>2018</ele>
        <time>2022-03-10T11:30:58.383Z</time>
      </trkpt>
      <trkpt lat="45.34455" lon="5.87392">
        <ele>2021</ele>
        <time>2022-03-10T11:30:59.372Z</time>
      </trkpt>
      <trkpt lat="45.34463" lon="5.87396">
        <ele>2027</ele>
        <time>2022-03-10T11:31:36.427Z</time>
      </trkpt>
      <trkpt lat="45.34463" lon="5.87396">
        <ele>2027</ele>
        <time>2022-03-10T11:31:48.391Z</time>
      </trkpt>
      <trkpt lat="45.34465" lon="5.874">
        <ele>2029</ele>
        <time>2022-03-10T11:31:49.420Z</time>
      </trkpt>
      <trkpt lat="45.34465" lon="5.87401">
        <ele>2030</ele>
        <time>2022-03-10T11:31:54.433Z</time>
      </trkpt>
      <trkpt lat="45.34465" lon="5.87401">
        <ele>2030</ele>
        <time>2022-03-10T11:33:54.359Z</time>
      </trkpt>
      <trkpt lat="45.34463" lon="5.87405">
        <ele>2036</ele>
        <time>2022-03-10T11:33:55.361Z</time>
      </trkpt>
      <trkpt lat="45.34464" lon="5.87405">
        <ele>2036</ele>
        <time>2022-03-10T11:34:01.339Z</time>
      </trkpt>
      <trkpt lat="45.34464" lon="5.87405">
        <ele>2036</ele>
        <time>2022-03-10T11:40:37.432Z</time>
      </trkpt>
      <trkpt lat="45.34467" lon="5.87407">
        <ele>2038</ele>
        <time>2022-03-10T11:40:38.363Z</time>
      </trkpt>
      <trkpt lat="45.34467" lon="5.87407">
        <ele>2038</ele>
        <time>2022-03-10T11:40:43.432Z</time>
      </trkpt>
      <trkpt lat="45.34467" lon="5.87407">
        <ele>2038</ele>
        <time>2022-03-10T11:41:22.430Z</time>
      </trkpt>
      <trkpt lat="45.34471" lon="5.87405">
        <ele>2038</ele>
        <time>2022-03-10T11:41:23.442Z</time>
      </trkpt>
      <trkpt lat="45.34473" lon="5.87403">
        <ele>2039</ele>
        <time>2022-03-10T11:41:50.391Z</time>
      </trkpt>
      <trkpt lat="45.34473" lon="5.87403">
        <ele>2039</ele>
        <time>2022-03-10T11:42:15.452Z</time>
      </trkpt>
      <trkpt lat="45.34478" lon="5.87403">
        <ele>2041</ele>
        <time>2022-03-10T11:42:16.430Z</time>
      </trkpt>
      <trkpt lat="45.34486" lon="5.87397">
        <ele>2046</ele>
        <time>2022-03-10T11:42:48.435Z</time>
      </trkpt>
      <trkpt lat="45.34488" lon="5.87397">
        <ele>2048</ele>
        <time>2022-03-10T11:42:57.453Z</time>
      </trkpt>
      <trkpt lat="45.34488" lon="5.87397">
        <ele>2048</ele>
        <time>2022-03-10T11:43:01.422Z</time>
      </trkpt>
      <trkpt lat="45.34492" lon="5.87396">
        <ele>2049</ele>
        <time>2022-03-10T11:43:02.453Z</time>
      </trkpt>
      <trkpt lat="45.34501" lon="5.87399">
        <ele>2050</ele>
        <time>2022-03-10T11:43:12.488Z</time>
      </trkpt>
      <trkpt lat="45.34505" lon="5.87398">
        <ele>2051</ele>
        <time>2022-03-10T11:43:24.493Z</time>
      </trkpt>
      <trkpt lat="45.34505" lon="5.87398">
        <ele>2051</ele>
        <time>2022-03-10T11:43:28.444Z</time>
      </trkpt>
      <trkpt lat="45.34509" lon="5.87398">
        <ele>2051</ele>
        <time>2022-03-10T11:43:29.402Z</time>
      </trkpt>
      <trkpt lat="45.34518" lon="5.87396">
        <ele>2052</ele>
        <time>2022-03-10T11:43:51.445Z</time>
      </trkpt>
      <trkpt lat="45.34528" lon="5.87397">
        <ele>2054</ele>
        <time>2022-03-10T11:44:15.443Z</time>
      </trkpt>
      <trkpt lat="45.34536" lon="5.87393">
        <ele>2055</ele>
        <time>2022-03-10T11:44:35.447Z</time>
      </trkpt>
      <trkpt lat="45.34544" lon="5.87384">
        <ele>2056</ele>
        <time>2022-03-10T11:44:45.457Z</time>
      </trkpt>
      <trkpt lat="45.34547" lon="5.87379">
        <ele>2056</ele>
        <time>2022-03-10T11:44:55.465Z</time>
      </trkpt>
      <trkpt lat="45.34547" lon="5.87379">
        <ele>2056</ele>
        <time>2022-03-10T11:44:59.446Z</time>
      </trkpt>
      <trkpt lat="45.34551" lon="5.87377">
        <ele>2057</ele>
        <time>2022-03-10T11:45:00.397Z</time>
      </trkpt>
      <trkpt lat="45.3456" lon="5.87379">
        <ele>2057</ele>
        <time>2022-03-10T11:45:09.412Z</time>
      </trkpt>
      <trkpt lat="45.34569" lon="5.87378">
        <ele>2057</ele>
        <time>2022-03-10T11:45:20.409Z</time>
      </trkpt>
      <trkpt lat="45.34578" lon="5.87374">
        <ele>2057</ele>
        <time>2022-03-10T11:45:30.429Z</time>
      </trkpt>
      <trkpt lat="45.34584" lon="5.87373">
        <ele>2056</ele>
        <time>2022-03-10T11:45:44.409Z</time>
      </trkpt>
      <trkpt lat="45.34584" lon="5.87373">
        <ele>2056</ele>
        <time>2022-03-10T11:45:59.430Z</time>
      </trkpt>
      <trkpt lat="45.34588" lon="5.87372">
        <ele>2057</ele>
        <time>2022-03-10T11:46:00.421Z</time>
      </trkpt>
      <trkpt lat="45.34597" lon="5.87366">
        <ele>2057</ele>
        <time>2022-03-10T11:46:15.380Z</time>
      </trkpt>
      <trkpt lat="45.34603" lon="5.87356">
        <ele>2058</ele>
        <time>2022-03-10T11:46:33.443Z</time>
      </trkpt>
      <trkpt lat="45.3461" lon="5.87348">
        <ele>2057</ele>
        <time>2022-03-10T11:46:54.411Z</time>
      </trkpt>
      <trkpt lat="45.34612" lon="5.87343">
        <ele>2057</ele>
        <time>2022-03-10T11:47:14.411Z</time>
      </trkpt>
      <trkpt lat="45.34612" lon="5.87343">
        <ele>2057</ele>
        <time>2022-03-10T11:47:28.429Z</time>
      </trkpt>
      <trkpt lat="45.34618" lon="5.8734">
        <ele>2058</ele>
        <time>2022-03-10T11:47:29.415Z</time>
      </trkpt>
      <trkpt lat="45.34622" lon="5.87333">
        <ele>2062</ele>
        <time>2022-03-10T11:47:55.450Z</time>
      </trkpt>
      <trkpt lat="45.34622" lon="5.87333">
        <ele>2062</ele>
        <time>2022-03-10T11:48:04.448Z</time>
      </trkpt>
      <trkpt lat="45.34625" lon="5.87331">
        <ele>2063</ele>
        <time>2022-03-10T11:48:05.425Z</time>
      </trkpt>
      <trkpt lat="45.34627" lon="5.87331">
        <ele>2064</ele>
        <time>2022-03-10T11:48:18.429Z</time>
      </trkpt>
      <trkpt lat="45.34627" lon="5.87331">
        <ele>2064</ele>
        <time>2022-03-10T11:48:31.429Z</time>
      </trkpt>
      <trkpt lat="45.3463" lon="5.87331">
        <ele>2066</ele>
        <time>2022-03-10T11:48:32.429Z</time>
      </trkpt>
      <trkpt lat="45.34632" lon="5.87329">
        <ele>2066</ele>
        <time>2022-03-10T11:48:58.353Z</time>
      </trkpt>
      <trkpt lat="45.34632" lon="5.87329">
        <ele>2066</ele>
        <time>2022-03-10T11:49:20.377Z</time>
      </trkpt>
      <trkpt lat="45.34635" lon="5.87325">
        <ele>2067</ele>
        <time>2022-03-10T11:49:21.419Z</time>
      </trkpt>
      <trkpt lat="45.34635" lon="5.87323">
        <ele>2068</ele>
        <time>2022-03-10T11:49:31.421Z</time>
      </trkpt>
      <trkpt lat="45.34635" lon="5.87323">
        <ele>2068</ele>
        <time>2022-03-10T11:50:02.439Z</time>
      </trkpt>
      <trkpt lat="45.34638" lon="5.87318">
        <ele>2075</ele>
        <time>2022-03-10T11:50:03.468Z</time>
      </trkpt>
      <trkpt lat="45.34639" lon="5.87317">
        <ele>2076</ele>
        <time>2022-03-10T11:50:09.426Z</time>
      </trkpt>
      <trkpt lat="45.34639" lon="5.87317">
        <ele>2076</ele>
        <time>2022-03-10T11:50:34.446Z</time>
      </trkpt>
      <trkpt lat="45.3464" lon="5.87312">
        <ele>2082</ele>
        <time>2022-03-10T11:50:35.437Z</time>
      </trkpt>
      <trkpt lat="45.34641" lon="5.87312">
        <ele>2082</ele>
        <time>2022-03-10T11:50:40.451Z</time>
      </trkpt>
      <trkpt lat="45.34641" lon="5.87312">
        <ele>2082</ele>
        <time>2022-03-10T11:50:54.370Z</time>
      </trkpt>
      <trkpt lat="45.34646" lon="5.87309">
        <ele>2084</ele>
        <time>2022-03-10T11:50:55.417Z</time>
      </trkpt>
      <trkpt lat="45.34646" lon="5.87309">
        <ele>2084</ele>
        <time>2022-03-10T11:51:01.359Z</time>
      </trkpt>
      <trkpt lat="45.34646" lon="5.87309">
        <ele>2084</ele>
        <time>2022-03-10T12:22:05.407Z</time>
      </trkpt>
      <trkpt lat="45.3465" lon="5.87313">
        <ele>2089</ele>
        <time>2022-03-10T12:22:06.398Z</time>
      </trkpt>
      <trkpt lat="45.34657" lon="5.87321">
        <ele>2089</ele>
        <time>2022-03-10T12:22:11.431Z</time>
      </trkpt>
      <trkpt lat="45.34667" lon="5.87329">
        <ele>2088</ele>
        <time>2022-03-10T12:22:15.426Z</time>
      </trkpt>
      <trkpt lat="45.34674" lon="5.87337">
        <ele>2088</ele>
        <time>2022-03-10T12:22:19.399Z</time>
      </trkpt>
      <trkpt lat="45.34674" lon="5.87339">
        <ele>2085</ele>
        <time>2022-03-10T12:22:27.432Z</time>
      </trkpt>
      <trkpt lat="45.34674" lon="5.87339">
        <ele>2085</ele>
        <time>2022-03-10T12:22:43.349Z</time>
      </trkpt>
      <trkpt lat="45.34679" lon="5.87343">
        <ele>2080</ele>
        <time>2022-03-10T12:22:44.364Z</time>
      </trkpt>
      <trkpt lat="45.34688" lon="5.87351">
        <ele>2079</ele>
        <time>2022-03-10T12:22:48.384Z</time>
      </trkpt>
      <trkpt lat="45.34698" lon="5.87359">
        <ele>2078</ele>
        <time>2022-03-10T12:22:52.416Z</time>
      </trkpt>
      <trkpt lat="45.34708" lon="5.87365">
        <ele>2077</ele>
        <time>2022-03-10T12:22:55.376Z</time>
      </trkpt>
      <trkpt lat="45.34718" lon="5.87369">
        <ele>2076</ele>
        <time>2022-03-10T12:22:59.374Z</time>
      </trkpt>
      <trkpt lat="45.34726" lon="5.87376">
        <ele>2075</ele>
        <time>2022-03-10T12:23:05.391Z</time>
      </trkpt>
      <trkpt lat="45.34738" lon="5.87384">
        <ele>2074</ele>
        <time>2022-03-10T12:23:08.390Z</time>
      </trkpt>
      <trkpt lat="45.34746" lon="5.87389">
        <ele>2074</ele>
        <time>2022-03-10T12:23:10.377Z</time>
      </trkpt>
      <trkpt lat="45.34757" lon="5.87399">
        <ele>2073</ele>
        <time>2022-03-10T12:23:13.405Z</time>
      </trkpt>
      <trkpt lat="45.34758" lon="5.87408">
        <ele>2070</ele>
        <time>2022-03-10T12:23:23.374Z</time>
      </trkpt>
      <trkpt lat="45.34758" lon="5.87408">
        <ele>2070</ele>
        <time>2022-03-10T12:23:25.368Z</time>
      </trkpt>
      <trkpt lat="45.34759" lon="5.87413">
        <ele>2069</ele>
        <time>2022-03-10T12:23:26.340Z</time>
      </trkpt>
      <trkpt lat="45.34767" lon="5.87419">
        <ele>2068</ele>
        <time>2022-03-10T12:23:29.343Z</time>
      </trkpt>
      <trkpt lat="45.34774" lon="5.87424">
        <ele>2064</ele>
        <time>2022-03-10T12:23:38.384Z</time>
      </trkpt>
      <trkpt lat="45.34774" lon="5.87424">
        <ele>2064</ele>
        <time>2022-03-10T12:23:47.356Z</time>
      </trkpt>
      <trkpt lat="45.34771" lon="5.87427">
        <ele>2060</ele>
        <time>2022-03-10T12:23:48.327Z</time>
      </trkpt>
      <trkpt lat="45.34768" lon="5.87441">
        <ele>2057</ele>
        <time>2022-03-10T12:23:55.359Z</time>
      </trkpt>
      <trkpt lat="45.34762" lon="5.87452">
        <ele>2055</ele>
        <time>2022-03-10T12:24:00.333Z</time>
      </trkpt>
      <trkpt lat="45.34756" lon="5.87463">
        <ele>2053</ele>
        <time>2022-03-10T12:24:05.345Z</time>
      </trkpt>
      <trkpt lat="45.34746" lon="5.8747">
        <ele>2051</ele>
        <time>2022-03-10T12:24:10.327Z</time>
      </trkpt>
      <trkpt lat="45.34737" lon="5.87475">
        <ele>2048</ele>
        <time>2022-03-10T12:24:17.331Z</time>
      </trkpt>
      <trkpt lat="45.34739" lon="5.87471">
        <ele>2045</ele>
        <time>2022-03-10T12:24:25.348Z</time>
      </trkpt>
      <trkpt lat="45.34739" lon="5.87471">
        <ele>2045</ele>
        <time>2022-03-10T12:25:29.357Z</time>
      </trkpt>
      <trkpt lat="45.34739" lon="5.87477">
        <ele>2034</ele>
        <time>2022-03-10T12:25:30.339Z</time>
      </trkpt>
      <trkpt lat="45.34732" lon="5.87486">
        <ele>2034</ele>
        <time>2022-03-10T12:25:35.352Z</time>
      </trkpt>
      <trkpt lat="45.34725" lon="5.87496">
        <ele>2033</ele>
        <time>2022-03-10T12:25:38.339Z</time>
      </trkpt>
      <trkpt lat="45.3472" lon="5.8751">
        <ele>2033</ele>
        <time>2022-03-10T12:25:41.347Z</time>
      </trkpt>
      <trkpt lat="45.34713" lon="5.87519">
        <ele>2032</ele>
        <time>2022-03-10T12:25:44.337Z</time>
      </trkpt>
      <trkpt lat="45.34707" lon="5.8753">
        <ele>2031</ele>
        <time>2022-03-10T12:25:49.341Z</time>
      </trkpt>
      <trkpt lat="45.34711" lon="5.87542">
        <ele>2027</ele>
        <time>2022-03-10T12:25:56.353Z</time>
      </trkpt>
      <trkpt lat="45.34701" lon="5.87543">
        <ele>2025</ele>
        <time>2022-03-10T12:25:59.354Z</time>
      </trkpt>
      <trkpt lat="45.34689" lon="5.87544">
        <ele>2023</ele>
        <time>2022-03-10T12:26:02.377Z</time>
      </trkpt>
      <trkpt lat="45.34683" lon="5.87553">
        <ele>2013</ele>
        <time>2022-03-10T12:26:14.383Z</time>
      </trkpt>
      <trkpt lat="45.34681" lon="5.87568">
        <ele>2010</ele>
        <time>2022-03-10T12:26:18.327Z</time>
      </trkpt>
      <trkpt lat="45.34675" lon="5.8758">
        <ele>2007</ele>
        <time>2022-03-10T12:26:21.353Z</time>
      </trkpt>
      <trkpt lat="45.34672" lon="5.87578">
        <ele>2000</ele>
        <time>2022-03-10T12:26:28.338Z</time>
      </trkpt>
      <trkpt lat="45.34672" lon="5.87578">
        <ele>2000</ele>
        <time>2022-03-10T12:26:35.333Z</time>
      </trkpt>
      <trkpt lat="45.34674" lon="5.87585">
        <ele>1992</ele>
        <time>2022-03-10T12:26:36.338Z</time>
      </trkpt>
      <trkpt lat="45.34668" lon="5.87597">
        <ele>1989</ele>
        <time>2022-03-10T12:26:40.359Z</time>
      </trkpt>
      <trkpt lat="45.3466" lon="5.87612">
        <ele>1987</ele>
        <time>2022-03-10T12:26:43.365Z</time>
      </trkpt>
      <trkpt lat="45.34654" lon="5.87625">
        <ele>1983</ele>
        <time>2022-03-10T12:26:48.344Z</time>
      </trkpt>
      <trkpt lat="45.34645" lon="5.87627">
        <ele>1978</ele>
        <time>2022-03-10T12:26:53.342Z</time>
      </trkpt>
      <trkpt lat="45.34634" lon="5.87631">
        <ele>1973</ele>
        <time>2022-03-10T12:26:57.339Z</time>
      </trkpt>
      <trkpt lat="45.34625" lon="5.87635">
        <ele>1965</ele>
        <time>2022-03-10T12:27:04.350Z</time>
      </trkpt>
      <trkpt lat="45.34625" lon="5.87635">
        <ele>1965</ele>
        <time>2022-03-10T12:29:01.363Z</time>
      </trkpt>
      <trkpt lat="45.34628" lon="5.87639">
        <ele>1928</ele>
        <time>2022-03-10T12:29:02.332Z</time>
      </trkpt>
      <trkpt lat="45.34636" lon="5.87647">
        <ele>1927</ele>
        <time>2022-03-10T12:29:04.352Z</time>
      </trkpt>
      <trkpt lat="45.34628" lon="5.87658">
        <ele>1926</ele>
        <time>2022-03-10T12:29:08.351Z</time>
      </trkpt>
      <trkpt lat="45.34626" lon="5.87672">
        <ele>1925</ele>
        <time>2022-03-10T12:29:11.337Z</time>
      </trkpt>
      <trkpt lat="45.34615" lon="5.87679">
        <ele>1923</ele>
        <time>2022-03-10T12:29:14.348Z</time>
      </trkpt>
      <trkpt lat="45.34604" lon="5.87681">
        <ele>1921</ele>
        <time>2022-03-10T12:29:17.346Z</time>
      </trkpt>
      <trkpt lat="45.34593" lon="5.87679">
        <ele>1919</ele>
        <time>2022-03-10T12:29:21.334Z</time>
      </trkpt>
      <trkpt lat="45.34576" lon="5.87678">
        <ele>1916</ele>
        <time>2022-03-10T12:29:25.346Z</time>
      </trkpt>
      <trkpt lat="45.34557" lon="5.87681">
        <ele>1914</ele>
        <time>2022-03-10T12:29:28.363Z</time>
      </trkpt>
      <trkpt lat="45.34539" lon="5.87689">
        <ele>1912</ele>
        <time>2022-03-10T12:29:31.353Z</time>
      </trkpt>
      <trkpt lat="45.34522" lon="5.87695">
        <ele>1908</ele>
        <time>2022-03-10T12:29:35.348Z</time>
      </trkpt>
      <trkpt lat="45.34501" lon="5.87703">
        <ele>1904</ele>
        <time>2022-03-10T12:29:39.366Z</time>
      </trkpt>
      <trkpt lat="45.34481" lon="5.87708">
        <ele>1895</ele>
        <time>2022-03-10T12:29:47.335Z</time>
      </trkpt>
      <trkpt lat="45.34467" lon="5.87715">
        <ele>1886</ele>
        <time>2022-03-10T12:29:55.375Z</time>
      </trkpt>
      <trkpt lat="45.34456" lon="5.87721">
        <ele>1882</ele>
        <time>2022-03-10T12:29:59.346Z</time>
      </trkpt>
      <trkpt lat="45.34447" lon="5.87719">
        <ele>1871</ele>
        <time>2022-03-10T12:30:10.322Z</time>
      </trkpt>
      <trkpt lat="45.34447" lon="5.87719">
        <ele>1868</ele>
        <time>2022-03-10T12:30:13.365Z</time>
      </trkpt>
      <trkpt lat="45.34447" lon="5.87719">
        <ele>1868</ele>
        <time>2022-03-10T12:31:02.341Z</time>
      </trkpt>
      <trkpt lat="45.34457" lon="5.87726">
        <ele>1852</ele>
        <time>2022-03-10T12:31:03.344Z</time>
      </trkpt>
      <trkpt lat="45.3445" lon="5.87727">
        <ele>1852</ele>
        <time>2022-03-10T12:31:16.349Z</time>
      </trkpt>
      <trkpt lat="45.3445" lon="5.87727">
        <ele>1852</ele>
        <time>2022-03-10T12:31:32.344Z</time>
      </trkpt>
      <trkpt lat="45.34447" lon="5.87718">
        <ele>1851</ele>
        <time>2022-03-10T12:31:33.347Z</time>
      </trkpt>
      <trkpt lat="45.34448" lon="5.87718">
        <ele>1851</ele>
        <time>2022-03-10T12:31:39.359Z</time>
      </trkpt>
      <trkpt lat="45.34448" lon="5.87718">
        <ele>1851</ele>
        <time>2022-03-10T12:36:24.360Z</time>
      </trkpt>
      <trkpt lat="45.34452" lon="5.8772">
        <ele>1848</ele>
        <time>2022-03-10T12:36:25.360Z</time>
      </trkpt>
      <trkpt lat="45.34452" lon="5.87719">
        <ele>1848</ele>
        <time>2022-03-10T12:36:31.317Z</time>
      </trkpt>
      <trkpt lat="45.34452" lon="5.87719">
        <ele>1848</ele>
        <time>2022-03-10T12:37:28.356Z</time>
      </trkpt>
      <trkpt lat="45.34454" lon="5.87715">
        <ele>1849</ele>
        <time>2022-03-10T12:37:29.353Z</time>
      </trkpt>
      <trkpt lat="45.34452" lon="5.87714">
        <ele>1849</ele>
        <time>2022-03-10T12:37:37.359Z</time>
      </trkpt>
      <trkpt lat="45.34452" lon="5.87714">
        <ele>1849</ele>
        <time>2022-03-10T12:38:25.370Z</time>
      </trkpt>
      <trkpt lat="45.34448" lon="5.87718">
        <ele>1845</ele>
        <time>2022-03-10T12:38:26.369Z</time>
      </trkpt>
      <trkpt lat="45.34448" lon="5.87718">
        <ele>1845</ele>
        <time>2022-03-10T12:38:31.375Z</time>
      </trkpt>
      <trkpt lat="45.34448" lon="5.87718">
        <ele>1845</ele>
        <time>2022-03-10T12:39:02.349Z</time>
      </trkpt>
      <trkpt lat="45.34446" lon="5.87714">
        <ele>1846</ele>
        <time>2022-03-10T12:39:03.352Z</time>
      </trkpt>
      <trkpt lat="45.34438" lon="5.87707">
        <ele>1846</ele>
        <time>2022-03-10T12:39:15.376Z</time>
      </trkpt>
      <trkpt lat="45.34429" lon="5.87702">
        <ele>1846</ele>
        <time>2022-03-10T12:39:27.365Z</time>
      </trkpt>
      <trkpt lat="45.3442" lon="5.87699">
        <ele>1847</ele>
        <time>2022-03-10T12:39:40.334Z</time>
      </trkpt>
      <trkpt lat="45.34411" lon="5.87701">
        <ele>1848</ele>
        <time>2022-03-10T12:39:53.362Z</time>
      </trkpt>
      <trkpt lat="45.34402" lon="5.87702">
        <ele>1849</ele>
        <time>2022-03-10T12:40:07.369Z</time>
      </trkpt>
      <trkpt lat="45.34394" lon="5.87709">
        <ele>1851</ele>
        <time>2022-03-10T12:40:21.370Z</time>
      </trkpt>
      <trkpt lat="45.34389" lon="5.87713">
        <ele>1852</ele>
        <time>2022-03-10T12:40:33.365Z</time>
      </trkpt>
      <trkpt lat="45.34389" lon="5.87713">
        <ele>1852</ele>
        <time>2022-03-10T12:40:52.358Z</time>
      </trkpt>
      <trkpt lat="45.34385" lon="5.87716">
        <ele>1854</ele>
        <time>2022-03-10T12:40:53.377Z</time>
      </trkpt>
      <trkpt lat="45.34375" lon="5.87719">
        <ele>1855</ele>
        <time>2022-03-10T12:41:10.364Z</time>
      </trkpt>
      <trkpt lat="45.34367" lon="5.87724">
        <ele>1857</ele>
        <time>2022-03-10T12:41:25.358Z</time>
      </trkpt>
      <trkpt lat="45.34357" lon="5.87725">
        <ele>1860</ele>
        <time>2022-03-10T12:41:40.386Z</time>
      </trkpt>
      <trkpt lat="45.34354" lon="5.87712">
        <ele>1868</ele>
        <time>2022-03-10T12:42:19.411Z</time>
      </trkpt>
      <trkpt lat="45.34356" lon="5.87699">
        <ele>1870</ele>
        <time>2022-03-10T12:42:35.346Z</time>
      </trkpt>
      <trkpt lat="45.34347" lon="5.87697">
        <ele>1875</ele>
        <time>2022-03-10T12:43:15.386Z</time>
      </trkpt>
      <trkpt lat="45.34339" lon="5.87702">
        <ele>1879</ele>
        <time>2022-03-10T12:43:33.385Z</time>
      </trkpt>
      <trkpt lat="45.34329" lon="5.87705">
        <ele>1881</ele>
        <time>2022-03-10T12:43:48.442Z</time>
      </trkpt>
      <trkpt lat="45.3432" lon="5.87708">
        <ele>1883</ele>
        <time>2022-03-10T12:44:02.361Z</time>
      </trkpt>
      <trkpt lat="45.34314" lon="5.87697">
        <ele>1888</ele>
        <time>2022-03-10T12:44:43.394Z</time>
      </trkpt>
      <trkpt lat="45.34311" lon="5.87689">
        <ele>1895</ele>
        <time>2022-03-10T12:45:21.385Z</time>
      </trkpt>
      <trkpt lat="45.34311" lon="5.87689">
        <ele>1895</ele>
        <time>2022-03-10T12:45:40.331Z</time>
      </trkpt>
      <trkpt lat="45.34308" lon="5.87689">
        <ele>1899</ele>
        <time>2022-03-10T12:45:41.348Z</time>
      </trkpt>
      <trkpt lat="45.34299" lon="5.87693">
        <ele>1900</ele>
        <time>2022-03-10T12:46:01.337Z</time>
      </trkpt>
      <trkpt lat="45.34299" lon="5.87693">
        <ele>1900</ele>
        <time>2022-03-10T12:46:09.406Z</time>
      </trkpt>
      <trkpt lat="45.34299" lon="5.87693">
        <ele>1900</ele>
        <time>2022-03-10T12:46:46.425Z</time>
      </trkpt>
      <trkpt lat="45.34296" lon="5.87691">
        <ele>1903</ele>
        <time>2022-03-10T12:46:47.388Z</time>
      </trkpt>
      <trkpt lat="45.34287" lon="5.8769">
        <ele>1908</ele>
        <time>2022-03-10T12:47:46.379Z</time>
      </trkpt>
      <trkpt lat="45.34287" lon="5.87689">
        <ele>1908</ele>
        <time>2022-03-10T12:47:50.426Z</time>
      </trkpt>
      <trkpt lat="45.34287" lon="5.87689">
        <ele>1908</ele>
        <time>2022-03-10T12:48:01.432Z</time>
      </trkpt>
      <trkpt lat="45.34285" lon="5.87694">
        <ele>1911</ele>
        <time>2022-03-10T12:48:02.416Z</time>
      </trkpt>
      <trkpt lat="45.34282" lon="5.87697">
        <ele>1914</ele>
        <time>2022-03-10T12:48:17.398Z</time>
      </trkpt>
      <trkpt lat="45.34282" lon="5.87697">
        <ele>1914</ele>
        <time>2022-03-10T12:48:28.412Z</time>
      </trkpt>
      <trkpt lat="45.34278" lon="5.87693">
        <ele>1916</ele>
        <time>2022-03-10T12:48:29.400Z</time>
      </trkpt>
      <trkpt lat="45.34277" lon="5.87691">
        <ele>1919</ele>
        <time>2022-03-10T12:49:00.357Z</time>
      </trkpt>
      <trkpt lat="45.34277" lon="5.87691">
        <ele>1919</ele>
        <time>2022-03-10T12:49:21.388Z</time>
      </trkpt>
      <trkpt lat="45.34273" lon="5.8769">
        <ele>1922</ele>
        <time>2022-03-10T12:49:22.382Z</time>
      </trkpt>
      <trkpt lat="45.34268" lon="5.87688">
        <ele>1930</ele>
        <time>2022-03-10T12:50:07.404Z</time>
      </trkpt>
      <trkpt lat="45.34268" lon="5.87688">
        <ele>1930</ele>
        <time>2022-03-10T12:50:47.417Z</time>
      </trkpt>
      <trkpt lat="45.34263" lon="5.87688">
        <ele>1935</ele>
        <time>2022-03-10T12:50:48.409Z</time>
      </trkpt>
      <trkpt lat="45.34261" lon="5.87678">
        <ele>1938</ele>
        <time>2022-03-10T12:51:11.413Z</time>
      </trkpt>
      <trkpt lat="45.34261" lon="5.87678">
        <ele>1938</ele>
        <time>2022-03-10T12:54:17.394Z</time>
      </trkpt>
      <trkpt lat="45.34263" lon="5.87671">
        <ele>1943</ele>
        <time>2022-03-10T12:54:18.351Z</time>
      </trkpt>
      <trkpt lat="45.34263" lon="5.8767">
        <ele>1943</ele>
        <time>2022-03-10T12:54:23.412Z</time>
      </trkpt>
      <trkpt lat="45.34263" lon="5.8767">
        <ele>1943</ele>
        <time>2022-03-10T12:54:48.441Z</time>
      </trkpt>
      <trkpt lat="45.34261" lon="5.87675">
        <ele>1942</ele>
        <time>2022-03-10T12:54:49.434Z</time>
      </trkpt>
      <trkpt lat="45.34256" lon="5.87687">
        <ele>1941</ele>
        <time>2022-03-10T12:55:04.383Z</time>
      </trkpt>
      <trkpt lat="45.34253" lon="5.87699">
        <ele>1938</ele>
        <time>2022-03-10T12:55:27.391Z</time>
      </trkpt>
      <trkpt lat="45.34246" lon="5.8771">
        <ele>1936</ele>
        <time>2022-03-10T12:55:43.397Z</time>
      </trkpt>
      <trkpt lat="45.3424" lon="5.87719">
        <ele>1936</ele>
        <time>2022-03-10T12:55:51.381Z</time>
      </trkpt>
      <trkpt lat="45.34234" lon="5.8773">
        <ele>1936</ele>
        <time>2022-03-10T12:55:59.399Z</time>
      </trkpt>
      <trkpt lat="45.34233" lon="5.87733">
        <ele>1935</ele>
        <time>2022-03-10T12:56:10.385Z</time>
      </trkpt>
      <trkpt lat="45.34233" lon="5.87733">
        <ele>1935</ele>
        <time>2022-03-10T12:58:47.417Z</time>
      </trkpt>
      <trkpt lat="45.34221" lon="5.87735">
        <ele>1940</ele>
        <time>2022-03-10T12:58:48.393Z</time>
      </trkpt>
      <trkpt lat="45.3422" lon="5.87735">
        <ele>1940</ele>
        <time>2022-03-10T12:58:54.378Z</time>
      </trkpt>
      <trkpt lat="45.3422" lon="5.87735">
        <ele>1940</ele>
        <time>2022-03-10T13:00:07.364Z</time>
      </trkpt>
      <trkpt lat="45.34226" lon="5.87733">
        <ele>1941</ele>
        <time>2022-03-10T13:00:08.383Z</time>
      </trkpt>
      <trkpt lat="45.34227" lon="5.87735">
        <ele>1941</ele>
        <time>2022-03-10T13:00:15.379Z</time>
      </trkpt>
      <trkpt lat="45.34227" lon="5.87735">
        <ele>1941</ele>
        <time>2022-03-10T13:01:41.398Z</time>
      </trkpt>
      <trkpt lat="45.34231" lon="5.87737">
        <ele>1937</ele>
        <time>2022-03-10T13:01:42.418Z</time>
      </trkpt>
      <trkpt lat="45.3423" lon="5.87753">
        <ele>1936</ele>
        <time>2022-03-10T13:01:46.373Z</time>
      </trkpt>
      <trkpt lat="45.3423" lon="5.87755">
        <ele>1935</ele>
        <time>2022-03-10T13:01:51.385Z</time>
      </trkpt>
      <trkpt lat="45.3423" lon="5.87755">
        <ele>1935</ele>
        <time>2022-03-10T13:02:02.381Z</time>
      </trkpt>
      <trkpt lat="45.34232" lon="5.87761">
        <ele>1934</ele>
        <time>2022-03-10T13:02:03.407Z</time>
      </trkpt>
      <trkpt lat="45.34241" lon="5.87765">
        <ele>1933</ele>
        <time>2022-03-10T13:02:07.398Z</time>
      </trkpt>
      <trkpt lat="45.34249" lon="5.87773">
        <ele>1932</ele>
        <time>2022-03-10T13:02:12.400Z</time>
      </trkpt>
      <trkpt lat="45.34259" lon="5.8778">
        <ele>1932</ele>
        <time>2022-03-10T13:02:16.382Z</time>
      </trkpt>
      <trkpt lat="45.34269" lon="5.87784">
        <ele>1931</ele>
        <time>2022-03-10T13:02:19.381Z</time>
      </trkpt>
      <trkpt lat="45.34281" lon="5.87783">
        <ele>1930</ele>
        <time>2022-03-10T13:02:22.382Z</time>
      </trkpt>
      <trkpt lat="45.34288" lon="5.87792">
        <ele>1927</ele>
        <time>2022-03-10T13:02:31.421Z</time>
      </trkpt>
      <trkpt lat="45.34297" lon="5.87788">
        <ele>1925</ele>
        <time>2022-03-10T13:02:35.404Z</time>
      </trkpt>
      <trkpt lat="45.34297" lon="5.87787">
        <ele>1923</ele>
        <time>2022-03-10T13:02:38.365Z</time>
      </trkpt>
      <trkpt lat="45.34297" lon="5.87787">
        <ele>1923</ele>
        <time>2022-03-10T13:02:48.373Z</time>
      </trkpt>
      <trkpt lat="45.34302" lon="5.87792">
        <ele>1915</ele>
        <time>2022-03-10T13:02:49.390Z</time>
      </trkpt>
      <trkpt lat="45.3431" lon="5.87799">
        <ele>1913</ele>
        <time>2022-03-10T13:02:52.377Z</time>
      </trkpt>
      <trkpt lat="45.3432" lon="5.87808">
        <ele>1911</ele>
        <time>2022-03-10T13:02:55.396Z</time>
      </trkpt>
      <trkpt lat="45.34328" lon="5.87815">
        <ele>1909</ele>
        <time>2022-03-10T13:02:57.393Z</time>
      </trkpt>
      <trkpt lat="45.34338" lon="5.87819">
        <ele>1907</ele>
        <time>2022-03-10T13:03:00.391Z</time>
      </trkpt>
      <trkpt lat="45.34348" lon="5.87814">
        <ele>1897</ele>
        <time>2022-03-10T13:03:10.355Z</time>
      </trkpt>
      <trkpt lat="45.34355" lon="5.87804">
        <ele>1893</ele>
        <time>2022-03-10T13:03:15.364Z</time>
      </trkpt>
      <trkpt lat="45.34361" lon="5.87794">
        <ele>1887</ele>
        <time>2022-03-10T13:03:23.351Z</time>
      </trkpt>
      <trkpt lat="45.34367" lon="5.87785">
        <ele>1877</ele>
        <time>2022-03-10T13:03:37.349Z</time>
      </trkpt>
      <trkpt lat="45.34367" lon="5.87785">
        <ele>1877</ele>
        <time>2022-03-10T13:09:39.333Z</time>
      </trkpt>
      <trkpt lat="45.34366" lon="5.8778">
        <ele>1858</ele>
        <time>2022-03-10T13:09:40.346Z</time>
      </trkpt>
      <trkpt lat="45.3437" lon="5.87768">
        <ele>1858</ele>
        <time>2022-03-10T13:09:52.335Z</time>
      </trkpt>
      <trkpt lat="45.34368" lon="5.87763">
        <ele>1859</ele>
        <time>2022-03-10T13:10:05.396Z</time>
      </trkpt>
      <trkpt lat="45.34368" lon="5.87763">
        <ele>1859</ele>
        <time>2022-03-10T13:10:10.418Z</time>
      </trkpt>
      <trkpt lat="45.34371" lon="5.87759">
        <ele>1859</ele>
        <time>2022-03-10T13:10:11.421Z</time>
      </trkpt>
      <trkpt lat="45.34373" lon="5.87753">
        <ele>1859</ele>
        <time>2022-03-10T13:10:21.372Z</time>
      </trkpt>
      <trkpt lat="45.34373" lon="5.87753">
        <ele>1859</ele>
        <time>2022-03-10T13:10:36.374Z</time>
      </trkpt>
      <trkpt lat="45.3437" lon="5.87752">
        <ele>1860</ele>
        <time>2022-03-10T13:10:37.395Z</time>
      </trkpt>
      <trkpt lat="45.34361" lon="5.87754">
        <ele>1858</ele>
        <time>2022-03-10T13:10:56.349Z</time>
      </trkpt>
      <trkpt lat="45.34362" lon="5.87741">
        <ele>1852</ele>
        <time>2022-03-10T13:11:23.360Z</time>
      </trkpt>
      <trkpt lat="45.34362" lon="5.87729">
        <ele>1851</ele>
        <time>2022-03-10T13:11:38.422Z</time>
      </trkpt>
      <trkpt lat="45.34353" lon="5.87726">
        <ele>1855</ele>
        <time>2022-03-10T13:12:11.354Z</time>
      </trkpt>
      <trkpt lat="45.34355" lon="5.87713">
        <ele>1857</ele>
        <time>2022-03-10T13:12:33.353Z</time>
      </trkpt>
      <trkpt lat="45.34356" lon="5.877">
        <ele>1860</ele>
        <time>2022-03-10T13:12:47.376Z</time>
      </trkpt>
      <trkpt lat="45.34356" lon="5.87687">
        <ele>1863</ele>
        <time>2022-03-10T13:13:04.382Z</time>
      </trkpt>
      <trkpt lat="45.34356" lon="5.87685">
        <ele>1864</ele>
        <time>2022-03-10T13:13:08.379Z</time>
      </trkpt>
      <trkpt lat="45.34356" lon="5.87685">
        <ele>1864</ele>
        <time>2022-03-10T13:14:31.331Z</time>
      </trkpt>
      <trkpt lat="45.34362" lon="5.87687">
        <ele>1877</ele>
        <time>2022-03-10T13:14:32.350Z</time>
      </trkpt>
      <trkpt lat="45.34362" lon="5.87691">
        <ele>1877</ele>
        <time>2022-03-10T13:14:40.363Z</time>
      </trkpt>
      <trkpt lat="45.34362" lon="5.87691">
        <ele>1877</ele>
        <time>2022-03-10T13:15:02.363Z</time>
      </trkpt>
      <trkpt lat="45.34358" lon="5.87694">
        <ele>1876</ele>
        <time>2022-03-10T13:15:03.390Z</time>
      </trkpt>
      <trkpt lat="45.34349" lon="5.87697">
        <ele>1875</ele>
        <time>2022-03-10T13:15:16.354Z</time>
      </trkpt>
      <trkpt lat="45.34341" lon="5.87701">
        <ele>1874</ele>
        <time>2022-03-10T13:15:31.365Z</time>
      </trkpt>
      <trkpt lat="45.34332" lon="5.87704">
        <ele>1875</ele>
        <time>2022-03-10T13:15:45.334Z</time>
      </trkpt>
      <trkpt lat="45.34322" lon="5.87706">
        <ele>1877</ele>
        <time>2022-03-10T13:16:01.359Z</time>
      </trkpt>
      <trkpt lat="45.34314" lon="5.87702">
        <ele>1883</ele>
        <time>2022-03-10T13:16:36.371Z</time>
      </trkpt>
      <trkpt lat="45.3432" lon="5.87691">
        <ele>1888</ele>
        <time>2022-03-10T13:16:54.356Z</time>
      </trkpt>
      <trkpt lat="45.3431" lon="5.8769">
        <ele>1893</ele>
        <time>2022-03-10T13:17:19.382Z</time>
      </trkpt>
      <trkpt lat="45.34301" lon="5.87692">
        <ele>1895</ele>
        <time>2022-03-10T13:17:36.372Z</time>
      </trkpt>
      <trkpt lat="45.34293" lon="5.87685">
        <ele>1901</ele>
        <time>2022-03-10T13:18:12.413Z</time>
      </trkpt>
      <trkpt lat="45.34284" lon="5.87686">
        <ele>1907</ele>
        <time>2022-03-10T13:18:54.405Z</time>
      </trkpt>
      <trkpt lat="45.34275" lon="5.87689">
        <ele>1913</ele>
        <time>2022-03-10T13:19:59.377Z</time>
      </trkpt>
      <trkpt lat="45.34271" lon="5.87677">
        <ele>1920</ele>
        <time>2022-03-10T13:20:34.422Z</time>
      </trkpt>
      <trkpt lat="45.34271" lon="5.87677">
        <ele>1921</ele>
        <time>2022-03-10T13:20:38.382Z</time>
      </trkpt>
      <trkpt lat="45.34271" lon="5.87677">
        <ele>1921</ele>
        <time>2022-03-10T13:21:01.401Z</time>
      </trkpt>
      <trkpt lat="45.34268" lon="5.87681">
        <ele>1926</ele>
        <time>2022-03-10T13:21:02.409Z</time>
      </trkpt>
      <trkpt lat="45.34266" lon="5.87685">
        <ele>1929</ele>
        <time>2022-03-10T13:21:23.368Z</time>
      </trkpt>
      <trkpt lat="45.34266" lon="5.87685">
        <ele>1929</ele>
        <time>2022-03-10T13:21:54.410Z</time>
      </trkpt>
      <trkpt lat="45.34262" lon="5.87684">
        <ele>1935</ele>
        <time>2022-03-10T13:21:55.372Z</time>
      </trkpt>
      <trkpt lat="45.34261" lon="5.87681">
        <ele>1937</ele>
        <time>2022-03-10T13:22:04.436Z</time>
      </trkpt>
      <trkpt lat="45.34261" lon="5.87681">
        <ele>1937</ele>
        <time>2022-03-10T13:22:41.464Z</time>
      </trkpt>
      <trkpt lat="45.3426" lon="5.87677">
        <ele>1944</ele>
        <time>2022-03-10T13:22:42.379Z</time>
      </trkpt>
      <trkpt lat="45.34261" lon="5.87673">
        <ele>1944</ele>
        <time>2022-03-10T13:22:54.448Z</time>
      </trkpt>
      <trkpt lat="45.34261" lon="5.87673">
        <ele>1944</ele>
        <time>2022-03-10T13:24:55.406Z</time>
      </trkpt>
      <trkpt lat="45.3426" lon="5.87667">
        <ele>1945</ele>
        <time>2022-03-10T13:24:56.407Z</time>
      </trkpt>
      <trkpt lat="45.34259" lon="5.87668">
        <ele>1945</ele>
        <time>2022-03-10T13:25:01.431Z</time>
      </trkpt>
      <trkpt lat="45.34259" lon="5.87668">
        <ele>1945</ele>
        <time>2022-03-10T13:30:41.381Z</time>
      </trkpt>
      <trkpt lat="45.34264" lon="5.87656">
        <ele>1951</ele>
        <time>2022-03-10T13:30:42.363Z</time>
      </trkpt>
      <trkpt lat="45.34261" lon="5.87644">
        <ele>1951</ele>
        <time>2022-03-10T13:30:47.376Z</time>
      </trkpt>
      <trkpt lat="45.34262" lon="5.87644">
        <ele>1950</ele>
        <time>2022-03-10T13:30:52.382Z</time>
      </trkpt>
      <trkpt lat="45.34262" lon="5.87644">
        <ele>1950</ele>
        <time>2022-03-10T13:31:14.410Z</time>
      </trkpt>
      <trkpt lat="45.34262" lon="5.87637">
        <ele>1948</ele>
        <time>2022-03-10T13:31:15.409Z</time>
      </trkpt>
      <trkpt lat="45.34261" lon="5.87622">
        <ele>1947</ele>
        <time>2022-03-10T13:31:19.406Z</time>
      </trkpt>
      <trkpt lat="45.3426" lon="5.87607">
        <ele>1946</ele>
        <time>2022-03-10T13:31:22.407Z</time>
      </trkpt>
      <trkpt lat="45.34247" lon="5.87605">
        <ele>1946</ele>
        <time>2022-03-10T13:31:25.401Z</time>
      </trkpt>
      <trkpt lat="45.34239" lon="5.87593">
        <ele>1945</ele>
        <time>2022-03-10T13:31:28.343Z</time>
      </trkpt>
      <trkpt lat="45.34228" lon="5.87584">
        <ele>1944</ele>
        <time>2022-03-10T13:31:31.391Z</time>
      </trkpt>
      <trkpt lat="45.34218" lon="5.87576">
        <ele>1940</ele>
        <time>2022-03-10T13:31:38.390Z</time>
      </trkpt>
      <trkpt lat="45.34207" lon="5.87573">
        <ele>1933</ele>
        <time>2022-03-10T13:31:46.380Z</time>
      </trkpt>
      <trkpt lat="45.34193" lon="5.87579">
        <ele>1932</ele>
        <time>2022-03-10T13:31:48.404Z</time>
      </trkpt>
      <trkpt lat="45.34179" lon="5.87584">
        <ele>1930</ele>
        <time>2022-03-10T13:31:50.342Z</time>
      </trkpt>
      <trkpt lat="45.34169" lon="5.87587">
        <ele>1926</ele>
        <time>2022-03-10T13:31:53.316Z</time>
      </trkpt>
      <trkpt lat="45.34169" lon="5.87587">
        <ele>1921</ele>
        <time>2022-03-10T13:31:58.330Z</time>
      </trkpt>
      <trkpt lat="45.34169" lon="5.87587">
        <ele>1921</ele>
        <time>2022-03-10T13:32:27.323Z</time>
      </trkpt>
      <trkpt lat="45.34171" lon="5.87581">
        <ele>1893</ele>
        <time>2022-03-10T13:32:28.318Z</time>
      </trkpt>
      <trkpt lat="45.34177" lon="5.87567">
        <ele>1891</ele>
        <time>2022-03-10T13:32:33.376Z</time>
      </trkpt>
      <trkpt lat="45.3417" lon="5.87556">
        <ele>1889</ele>
        <time>2022-03-10T13:32:38.386Z</time>
      </trkpt>
      <trkpt lat="45.34165" lon="5.87544">
        <ele>1888</ele>
        <time>2022-03-10T13:32:44.401Z</time>
      </trkpt>
      <trkpt lat="45.34166" lon="5.8753">
        <ele>1886</ele>
        <time>2022-03-10T13:32:48.406Z</time>
      </trkpt>
      <trkpt lat="45.3416" lon="5.87518">
        <ele>1883</ele>
        <time>2022-03-10T13:32:56.366Z</time>
      </trkpt>
      <trkpt lat="45.34157" lon="5.87505">
        <ele>1877</ele>
        <time>2022-03-10T13:33:04.418Z</time>
      </trkpt>
      <trkpt lat="45.34158" lon="5.87506">
        <ele>1864</ele>
        <time>2022-03-10T13:33:20.361Z</time>
      </trkpt>
      <trkpt lat="45.34158" lon="5.87506">
        <ele>1864</ele>
        <time>2022-03-10T13:35:41.362Z</time>
      </trkpt>
      <trkpt lat="45.34154" lon="5.87508">
        <ele>1840</ele>
        <time>2022-03-10T13:35:42.357Z</time>
      </trkpt>
      <trkpt lat="45.34154" lon="5.87507">
        <ele>1840</ele>
        <time>2022-03-10T13:35:47.374Z</time>
      </trkpt>
      <trkpt lat="45.34154" lon="5.87507">
        <ele>1840</ele>
        <time>2022-03-10T13:36:41.371Z</time>
      </trkpt>
      <trkpt lat="45.34155" lon="5.87502">
        <ele>1838</ele>
        <time>2022-03-10T13:36:42.354Z</time>
      </trkpt>
      <trkpt lat="45.34155" lon="5.875">
        <ele>1837</ele>
        <time>2022-03-10T13:36:51.364Z</time>
      </trkpt>
      <trkpt lat="45.34155" lon="5.875">
        <ele>1837</ele>
        <time>2022-03-10T13:37:04.356Z</time>
      </trkpt>
      <trkpt lat="45.34154" lon="5.87496">
        <ele>1835</ele>
        <time>2022-03-10T13:37:05.343Z</time>
      </trkpt>
      <trkpt lat="45.34152" lon="5.87492">
        <ele>1832</ele>
        <time>2022-03-10T13:37:27.338Z</time>
      </trkpt>
      <trkpt lat="45.34152" lon="5.87492">
        <ele>1832</ele>
        <time>2022-03-10T13:37:37.365Z</time>
      </trkpt>
      <trkpt lat="45.34154" lon="5.87487">
        <ele>1831</ele>
        <time>2022-03-10T13:37:38.369Z</time>
      </trkpt>
      <trkpt lat="45.34155" lon="5.87487">
        <ele>1830</ele>
        <time>2022-03-10T13:37:44.363Z</time>
      </trkpt>
      <trkpt lat="45.34155" lon="5.87487">
        <ele>1830</ele>
        <time>2022-03-10T13:38:25.345Z</time>
      </trkpt>
      <trkpt lat="45.34154" lon="5.8748">
        <ele>1827</ele>
        <time>2022-03-10T13:38:26.344Z</time>
      </trkpt>
      <trkpt lat="45.34153" lon="5.87483">
        <ele>1826</ele>
        <time>2022-03-10T13:38:34.353Z</time>
      </trkpt>
      <trkpt lat="45.34153" lon="5.87483">
        <ele>1826</ele>
        <time>2022-03-10T13:38:52.336Z</time>
      </trkpt>
      <trkpt lat="45.34148" lon="5.8749">
        <ele>1822</ele>
        <time>2022-03-10T13:38:53.351Z</time>
      </trkpt>
      <trkpt lat="45.34146" lon="5.87488">
        <ele>1821</ele>
        <time>2022-03-10T13:38:58.352Z</time>
      </trkpt>
      <trkpt lat="45.34146" lon="5.87488">
        <ele>1821</ele>
        <time>2022-03-10T13:39:26.367Z</time>
      </trkpt>
      <trkpt lat="45.34155" lon="5.87484">
        <ele>1819</ele>
        <time>2022-03-10T13:39:27.354Z</time>
      </trkpt>
      <trkpt lat="45.34146" lon="5.87478">
        <ele>1818</ele>
        <time>2022-03-10T13:39:35.373Z</time>
      </trkpt>
      <trkpt lat="45.3414" lon="5.87465">
        <ele>1817</ele>
        <time>2022-03-10T13:39:39.368Z</time>
      </trkpt>
      <trkpt lat="45.3413" lon="5.87458">
        <ele>1816</ele>
        <time>2022-03-10T13:39:42.360Z</time>
      </trkpt>
      <trkpt lat="45.34125" lon="5.87442">
        <ele>1816</ele>
        <time>2022-03-10T13:39:44.351Z</time>
      </trkpt>
      <trkpt lat="45.34124" lon="5.87425">
        <ele>1815</ele>
        <time>2022-03-10T13:39:46.335Z</time>
      </trkpt>
      <trkpt lat="45.34114" lon="5.87411">
        <ele>1814</ele>
        <time>2022-03-10T13:39:48.346Z</time>
      </trkpt>
      <trkpt lat="45.34105" lon="5.87389">
        <ele>1813</ele>
        <time>2022-03-10T13:39:50.360Z</time>
      </trkpt>
      <trkpt lat="45.34112" lon="5.87367">
        <ele>1812</ele>
        <time>2022-03-10T13:39:52.332Z</time>
      </trkpt>
      <trkpt lat="45.34108" lon="5.87332">
        <ele>1808</ele>
        <time>2022-03-10T13:39:57.359Z</time>
      </trkpt>
      <trkpt lat="45.34108" lon="5.87322">
        <ele>1800</ele>
        <time>2022-03-10T13:40:04.378Z</time>
      </trkpt>
      <trkpt lat="45.34108" lon="5.87322">
        <ele>1800</ele>
        <time>2022-03-10T13:40:25.359Z</time>
      </trkpt>
      <trkpt lat="45.34111" lon="5.87315">
        <ele>1772</ele>
        <time>2022-03-10T13:40:26.368Z</time>
      </trkpt>
      <trkpt lat="45.34115" lon="5.873">
        <ele>1769</ele>
        <time>2022-03-10T13:40:28.372Z</time>
      </trkpt>
      <trkpt lat="45.3412" lon="5.87287">
        <ele>1767</ele>
        <time>2022-03-10T13:40:30.346Z</time>
      </trkpt>
      <trkpt lat="45.34125" lon="5.87274">
        <ele>1765</ele>
        <time>2022-03-10T13:40:32.387Z</time>
      </trkpt>
      <trkpt lat="45.34129" lon="5.87258">
        <ele>1763</ele>
        <time>2022-03-10T13:40:34.364Z</time>
      </trkpt>
      <trkpt lat="45.34135" lon="5.87246">
        <ele>1758</ele>
        <time>2022-03-10T13:40:38.354Z</time>
      </trkpt>
      <trkpt lat="45.34139" lon="5.87244">
        <ele>1752</ele>
        <time>2022-03-10T13:40:46.352Z</time>
      </trkpt>
      <trkpt lat="45.34139" lon="5.87244">
        <ele>1752</ele>
        <time>2022-03-10T13:41:15.328Z</time>
      </trkpt>
      <trkpt lat="45.34137" lon="5.8724">
        <ele>1738</ele>
        <time>2022-03-10T13:41:16.397Z</time>
      </trkpt>
      <trkpt lat="45.34129" lon="5.87231">
        <ele>1736</ele>
        <time>2022-03-10T13:41:21.398Z</time>
      </trkpt>
      <trkpt lat="45.34124" lon="5.87224">
        <ele>1733</ele>
        <time>2022-03-10T13:41:36.403Z</time>
      </trkpt>
      <trkpt lat="45.34124" lon="5.87224">
        <ele>1733</ele>
        <time>2022-03-10T13:42:19.378Z</time>
      </trkpt>
      <trkpt lat="45.34121" lon="5.87228">
        <ele>1719</ele>
        <time>2022-03-10T13:42:20.414Z</time>
      </trkpt>
      <trkpt lat="45.34119" lon="5.8723">
        <ele>1717</ele>
        <time>2022-03-10T13:42:38.371Z</time>
      </trkpt>
      <trkpt lat="45.34119" lon="5.8723">
        <ele>1717</ele>
        <time>2022-03-10T13:42:40.394Z</time>
      </trkpt>
      <trkpt lat="45.34115" lon="5.87235">
        <ele>1717</ele>
        <time>2022-03-10T13:42:41.430Z</time>
      </trkpt>
      <trkpt lat="45.34108" lon="5.8725">
        <ele>1716</ele>
        <time>2022-03-10T13:42:44.419Z</time>
      </trkpt>
      <trkpt lat="45.34098" lon="5.87251">
        <ele>1716</ele>
        <time>2022-03-10T13:42:47.377Z</time>
      </trkpt>
      <trkpt lat="45.34087" lon="5.8724">
        <ele>1715</ele>
        <time>2022-03-10T13:42:51.344Z</time>
      </trkpt>
      <trkpt lat="45.34079" lon="5.87227">
        <ele>1714</ele>
        <time>2022-03-10T13:42:57.370Z</time>
      </trkpt>
      <trkpt lat="45.34078" lon="5.87212">
        <ele>1713</ele>
        <time>2022-03-10T13:42:59.366Z</time>
      </trkpt>
      <trkpt lat="45.34085" lon="5.87199">
        <ele>1711</ele>
        <time>2022-03-10T13:43:05.377Z</time>
      </trkpt>
      <trkpt lat="45.34085" lon="5.87199">
        <ele>1710</ele>
        <time>2022-03-10T13:43:06.396Z</time>
      </trkpt>
      <trkpt lat="45.34085" lon="5.87199">
        <ele>1710</ele>
        <time>2022-03-10T13:43:09.372Z</time>
      </trkpt>
      <trkpt lat="45.34089" lon="5.87197">
        <ele>1708</ele>
        <time>2022-03-10T13:43:10.368Z</time>
      </trkpt>
      <trkpt lat="45.34091" lon="5.87198">
        <ele>1705</ele>
        <time>2022-03-10T13:43:17.330Z</time>
      </trkpt>
      <trkpt lat="45.34091" lon="5.87198">
        <ele>1705</ele>
        <time>2022-03-10T13:43:24.398Z</time>
      </trkpt>
      <trkpt lat="45.34092" lon="5.87193">
        <ele>1700</ele>
        <time>2022-03-10T13:43:25.365Z</time>
      </trkpt>
      <trkpt lat="45.34092" lon="5.87192">
        <ele>1698</ele>
        <time>2022-03-10T13:43:31.344Z</time>
      </trkpt>
      <trkpt lat="45.34092" lon="5.87192">
        <ele>1698</ele>
        <time>2022-03-10T13:44:05.428Z</time>
      </trkpt>
      <trkpt lat="45.34098" lon="5.87193">
        <ele>1691</ele>
        <time>2022-03-10T13:44:06.342Z</time>
      </trkpt>
      <trkpt lat="45.34094" lon="5.87182">
        <ele>1690</ele>
        <time>2022-03-10T13:44:40.362Z</time>
      </trkpt>
      <trkpt lat="45.34095" lon="5.87169">
        <ele>1689</ele>
        <time>2022-03-10T13:44:48.395Z</time>
      </trkpt>
      <trkpt lat="45.34091" lon="5.87157">
        <ele>1689</ele>
        <time>2022-03-10T13:44:56.394Z</time>
      </trkpt>
      <trkpt lat="45.34086" lon="5.87154">
        <ele>1689</ele>
        <time>2022-03-10T13:45:03.355Z</time>
      </trkpt>
      <trkpt lat="45.34086" lon="5.87154">
        <ele>1689</ele>
        <time>2022-03-10T13:45:14.388Z</time>
      </trkpt>
      <trkpt lat="45.34081" lon="5.87156">
        <ele>1688</ele>
        <time>2022-03-10T13:45:15.371Z</time>
      </trkpt>
      <trkpt lat="45.34083" lon="5.87171">
        <ele>1689</ele>
        <time>2022-03-10T13:45:27.333Z</time>
      </trkpt>
      <trkpt lat="45.34088" lon="5.87178">
        <ele>1688</ele>
        <time>2022-03-10T13:45:36.350Z</time>
      </trkpt>
      <trkpt lat="45.34088" lon="5.87178">
        <ele>1688</ele>
        <time>2022-03-10T13:46:21.401Z</time>
      </trkpt>
      <trkpt lat="45.34094" lon="5.87173">
        <ele>1681</ele>
        <time>2022-03-10T13:46:22.383Z</time>
      </trkpt>
      <trkpt lat="45.34104" lon="5.87164">
        <ele>1680</ele>
        <time>2022-03-10T13:46:25.358Z</time>
      </trkpt>
      <trkpt lat="45.34109" lon="5.87164">
        <ele>1680</ele>
        <time>2022-03-10T13:46:30.359Z</time>
      </trkpt>
      <trkpt lat="45.34109" lon="5.87164">
        <ele>1680</ele>
        <time>2022-03-10T13:46:42.363Z</time>
      </trkpt>
      <trkpt lat="45.3411" lon="5.87158">
        <ele>1678</ele>
        <time>2022-03-10T13:46:43.365Z</time>
      </trkpt>
      <trkpt lat="45.34104" lon="5.87146">
        <ele>1677</ele>
        <time>2022-03-10T13:46:49.374Z</time>
      </trkpt>
      <trkpt lat="45.34099" lon="5.87132">
        <ele>1676</ele>
        <time>2022-03-10T13:46:53.361Z</time>
      </trkpt>
      <trkpt lat="45.34091" lon="5.87119">
        <ele>1676</ele>
        <time>2022-03-10T13:46:56.362Z</time>
      </trkpt>
      <trkpt lat="45.34085" lon="5.87104">
        <ele>1675</ele>
        <time>2022-03-10T13:46:59.351Z</time>
      </trkpt>
      <trkpt lat="45.34076" lon="5.87093">
        <ele>1674</ele>
        <time>2022-03-10T13:47:01.351Z</time>
      </trkpt>
      <trkpt lat="45.34065" lon="5.87084">
        <ele>1673</ele>
        <time>2022-03-10T13:47:04.364Z</time>
      </trkpt>
      <trkpt lat="45.34059" lon="5.87069">
        <ele>1672</ele>
        <time>2022-03-10T13:47:07.352Z</time>
      </trkpt>
      <trkpt lat="45.34051" lon="5.87049">
        <ele>1669</ele>
        <time>2022-03-10T13:47:12.353Z</time>
      </trkpt>
      <trkpt lat="45.3405" lon="5.87047">
        <ele>1664</ele>
        <time>2022-03-10T13:47:18.371Z</time>
      </trkpt>
      <trkpt lat="45.3405" lon="5.87047">
        <ele>1664</ele>
        <time>2022-03-10T13:48:05.366Z</time>
      </trkpt>
      <trkpt lat="45.34061" lon="5.87017">
        <ele>1627</ele>
        <time>2022-03-10T13:48:06.365Z</time>
      </trkpt>
      <trkpt lat="45.34061" lon="5.87002">
        <ele>1625</ele>
        <time>2022-03-10T13:48:12.399Z</time>
      </trkpt>
      <trkpt lat="45.34058" lon="5.8699">
        <ele>1623</ele>
        <time>2022-03-10T13:48:15.410Z</time>
      </trkpt>
      <trkpt lat="45.3405" lon="5.86985">
        <ele>1620</ele>
        <time>2022-03-10T13:48:21.398Z</time>
      </trkpt>
      <trkpt lat="45.34039" lon="5.86985">
        <ele>1618</ele>
        <time>2022-03-10T13:48:24.422Z</time>
      </trkpt>
      <trkpt lat="45.34034" lon="5.86974">
        <ele>1613</ele>
        <time>2022-03-10T13:48:32.430Z</time>
      </trkpt>
      <trkpt lat="45.34033" lon="5.86973">
        <ele>1608</ele>
        <time>2022-03-10T13:48:37.373Z</time>
      </trkpt>
      <trkpt lat="45.34033" lon="5.86973">
        <ele>1608</ele>
        <time>2022-03-10T13:48:46.396Z</time>
      </trkpt>
      <trkpt lat="45.34034" lon="5.86968">
        <ele>1599</ele>
        <time>2022-03-10T13:48:47.402Z</time>
      </trkpt>
      <trkpt lat="45.34031" lon="5.86953">
        <ele>1596</ele>
        <time>2022-03-10T13:48:51.369Z</time>
      </trkpt>
      <trkpt lat="45.34031" lon="5.86941">
        <ele>1590</ele>
        <time>2022-03-10T13:48:59.382Z</time>
      </trkpt>
      <trkpt lat="45.34031" lon="5.8694">
        <ele>1588</ele>
        <time>2022-03-10T13:49:01.363Z</time>
      </trkpt>
      <trkpt lat="45.34031" lon="5.8694">
        <ele>1588</ele>
        <time>2022-03-10T13:50:23.411Z</time>
      </trkpt>
      <trkpt lat="45.34034" lon="5.86931">
        <ele>1577</ele>
        <time>2022-03-10T13:50:24.380Z</time>
      </trkpt>
      <trkpt lat="45.34035" lon="5.86917">
        <ele>1577</ele>
        <time>2022-03-10T13:50:39.375Z</time>
      </trkpt>
      <trkpt lat="45.34035" lon="5.86915">
        <ele>1577</ele>
        <time>2022-03-10T13:50:41.404Z</time>
      </trkpt>
      <trkpt lat="45.34035" lon="5.86915">
        <ele>1577</ele>
        <time>2022-03-10T13:50:44.411Z</time>
      </trkpt>
      <trkpt lat="45.34034" lon="5.86909">
        <ele>1577</ele>
        <time>2022-03-10T13:50:45.385Z</time>
      </trkpt>
      <trkpt lat="45.34036" lon="5.86896">
        <ele>1575</ele>
        <time>2022-03-10T13:51:03.396Z</time>
      </trkpt>
      <trkpt lat="45.34036" lon="5.86895">
        <ele>1575</ele>
        <time>2022-03-10T13:51:13.390Z</time>
      </trkpt>
      <trkpt lat="45.34036" lon="5.86895">
        <ele>1575</ele>
        <time>2022-03-10T13:51:19.408Z</time>
      </trkpt>
      <trkpt lat="45.34033" lon="5.86891">
        <ele>1574</ele>
        <time>2022-03-10T13:51:20.413Z</time>
      </trkpt>
      <trkpt lat="45.34025" lon="5.86885">
        <ele>1573</ele>
        <time>2022-03-10T13:51:34.368Z</time>
      </trkpt>
      <trkpt lat="45.34026" lon="5.86871">
        <ele>1569</ele>
        <time>2022-03-10T13:51:49.354Z</time>
      </trkpt>
      <trkpt lat="45.34023" lon="5.86857">
        <ele>1566</ele>
        <time>2022-03-10T13:51:59.365Z</time>
      </trkpt>
      <trkpt lat="45.34023" lon="5.8685">
        <ele>1560</ele>
        <time>2022-03-10T13:52:12.408Z</time>
      </trkpt>
      <trkpt lat="45.34023" lon="5.8685">
        <ele>1560</ele>
        <time>2022-03-10T13:52:52.378Z</time>
      </trkpt>
      <trkpt lat="45.34025" lon="5.86844">
        <ele>1551</ele>
        <time>2022-03-10T13:52:53.385Z</time>
      </trkpt>
      <trkpt lat="45.34028" lon="5.86843">
        <ele>1551</ele>
        <time>2022-03-10T13:52:59.355Z</time>
      </trkpt>
      <trkpt lat="45.34028" lon="5.86843">
        <ele>1551</ele>
        <time>2022-03-10T13:57:12.338Z</time>
      </trkpt>
      <trkpt lat="45.34024" lon="5.86842">
        <ele>1545</ele>
        <time>2022-03-10T13:57:13.358Z</time>
      </trkpt>
      <trkpt lat="45.3402" lon="5.86841">
        <ele>1548</ele>
        <time>2022-03-10T13:57:38.338Z</time>
      </trkpt>
      <trkpt lat="45.3402" lon="5.86841">
        <ele>1548</ele>
        <time>2022-03-10T13:57:58.332Z</time>
      </trkpt>
      <trkpt lat="45.34024" lon="5.86842">
        <ele>1550</ele>
        <time>2022-03-10T13:57:59.329Z</time>
      </trkpt>
      <trkpt lat="45.34024" lon="5.86843">
        <ele>1550</ele>
        <time>2022-03-10T13:58:12.350Z</time>
      </trkpt>
      <trkpt lat="45.34024" lon="5.86843">
        <ele>1550</ele>
        <time>2022-03-10T14:00:32.334Z</time>
      </trkpt>
      <trkpt lat="45.34021" lon="5.86836">
        <ele>1551</ele>
        <time>2022-03-10T14:00:33.379Z</time>
      </trkpt>
      <trkpt lat="45.3402" lon="5.86835">
        <ele>1551</ele>
        <time>2022-03-10T14:00:39.349Z</time>
      </trkpt>
      <trkpt lat="45.3402" lon="5.86835">
        <ele>1551</ele>
        <time>2022-03-10T14:01:20.363Z</time>
      </trkpt>
      <trkpt lat="45.34019" lon="5.8684">
        <ele>1553</ele>
        <time>2022-03-10T14:01:21.363Z</time>
      </trkpt>
      <trkpt lat="45.34019" lon="5.8684">
        <ele>1553</ele>
        <time>2022-03-10T14:01:27.344Z</time>
      </trkpt>
      <trkpt lat="45.34019" lon="5.8684">
        <ele>1553</ele>
        <time>2022-03-10T14:03:00.376Z</time>
      </trkpt>
      <trkpt lat="45.34015" lon="5.86843">
        <ele>1553</ele>
        <time>2022-03-10T14:03:01.368Z</time>
      </trkpt>
      <trkpt lat="45.34015" lon="5.86844">
        <ele>1553</ele>
        <time>2022-03-10T14:03:07.354Z</time>
      </trkpt>
      <trkpt lat="45.34015" lon="5.86844">
        <ele>1553</ele>
        <time>2022-03-10T14:03:54.364Z</time>
      </trkpt>
      <trkpt lat="45.34016" lon="5.86849">
        <ele>1553</ele>
        <time>2022-03-10T14:03:55.369Z</time>
      </trkpt>
      <trkpt lat="45.3402" lon="5.86862">
        <ele>1554</ele>
        <time>2022-03-10T14:04:12.352Z</time>
      </trkpt>
      <trkpt lat="45.34023" lon="5.86875">
        <ele>1555</ele>
        <time>2022-03-10T14:04:29.373Z</time>
      </trkpt>
      <trkpt lat="45.34025" lon="5.86889">
        <ele>1557</ele>
        <time>2022-03-10T14:04:48.357Z</time>
      </trkpt>
      <trkpt lat="45.34025" lon="5.86889">
        <ele>1557</ele>
        <time>2022-03-10T14:04:55.365Z</time>
      </trkpt>
      <trkpt lat="45.34028" lon="5.86889">
        <ele>1558</ele>
        <time>2022-03-10T14:04:56.360Z</time>
      </trkpt>
      <trkpt lat="45.34033" lon="5.86895">
        <ele>1560</ele>
        <time>2022-03-10T14:05:16.361Z</time>
      </trkpt>
      <trkpt lat="45.34033" lon="5.86895">
        <ele>1560</ele>
        <time>2022-03-10T14:05:35.389Z</time>
      </trkpt>
      <trkpt lat="45.34034" lon="5.869">
        <ele>1562</ele>
        <time>2022-03-10T14:05:36.371Z</time>
      </trkpt>
      <trkpt lat="45.34038" lon="5.86912">
        <ele>1562</ele>
        <time>2022-03-10T14:05:48.411Z</time>
      </trkpt>
      <trkpt lat="45.34037" lon="5.86918">
        <ele>1562</ele>
        <time>2022-03-10T14:05:57.378Z</time>
      </trkpt>
      <trkpt lat="45.34037" lon="5.86918">
        <ele>1562</ele>
        <time>2022-03-10T14:06:09.355Z</time>
      </trkpt>
      <trkpt lat="45.34038" lon="5.86923">
        <ele>1562</ele>
        <time>2022-03-10T14:06:10.359Z</time>
      </trkpt>
      <trkpt lat="45.34038" lon="5.86927">
        <ele>1561</ele>
        <time>2022-03-10T14:06:18.361Z</time>
      </trkpt>
      <trkpt lat="45.34038" lon="5.86927">
        <ele>1561</ele>
        <time>2022-03-10T14:06:21.363Z</time>
      </trkpt>
      <trkpt lat="45.34038" lon="5.86932">
        <ele>1561</ele>
        <time>2022-03-10T14:06:22.363Z</time>
      </trkpt>
      <trkpt lat="45.34037" lon="5.86946">
        <ele>1561</ele>
        <time>2022-03-10T14:06:32.357Z</time>
      </trkpt>
      <trkpt lat="45.34036" lon="5.8696">
        <ele>1561</ele>
        <time>2022-03-10T14:06:47.354Z</time>
      </trkpt>
      <trkpt lat="45.34036" lon="5.8696">
        <ele>1561</ele>
        <time>2022-03-10T14:06:54.328Z</time>
      </trkpt>
      <trkpt lat="45.34036" lon="5.8696">
        <ele>1561</ele>
        <time>2022-03-10T14:07:08.336Z</time>
      </trkpt>
      <trkpt lat="45.34039" lon="5.86963">
        <ele>1562</ele>
        <time>2022-03-10T14:07:09.362Z</time>
      </trkpt>
      <trkpt lat="45.34048" lon="5.86969">
        <ele>1568</ele>
        <time>2022-03-10T14:07:53.340Z</time>
      </trkpt>
      <trkpt lat="45.34054" lon="5.86979">
        <ele>1572</ele>
        <time>2022-03-10T14:08:18.418Z</time>
      </trkpt>
      <trkpt lat="45.3406" lon="5.86989">
        <ele>1576</ele>
        <time>2022-03-10T14:08:36.394Z</time>
      </trkpt>
      <trkpt lat="45.34068" lon="5.86996">
        <ele>1581</ele>
        <time>2022-03-10T14:08:56.421Z</time>
      </trkpt>
      <trkpt lat="45.34072" lon="5.87006">
        <ele>1587</ele>
        <time>2022-03-10T14:09:17.357Z</time>
      </trkpt>
      <trkpt lat="45.34072" lon="5.87006">
        <ele>1587</ele>
        <time>2022-03-10T14:10:46.359Z</time>
      </trkpt>
      <trkpt lat="45.34077" lon="5.87007">
        <ele>1597</ele>
        <time>2022-03-10T14:10:47.383Z</time>
      </trkpt>
      <trkpt lat="45.34077" lon="5.87007">
        <ele>1598</ele>
        <time>2022-03-10T14:10:53.370Z</time>
      </trkpt>
      <trkpt lat="45.34077" lon="5.87007">
        <ele>1598</ele>
        <time>2022-03-10T14:12:15.370Z</time>
      </trkpt>
      <trkpt lat="45.34081" lon="5.87007">
        <ele>1600</ele>
        <time>2022-03-10T14:12:16.361Z</time>
      </trkpt>
      <trkpt lat="45.34085" lon="5.8702">
        <ele>1599</ele>
        <time>2022-03-10T14:12:34.378Z</time>
      </trkpt>
      <trkpt lat="45.34094" lon="5.87024">
        <ele>1602</ele>
        <time>2022-03-10T14:13:09.333Z</time>
      </trkpt>
      <trkpt lat="45.34097" lon="5.87037">
        <ele>1606</ele>
        <time>2022-03-10T14:13:29.355Z</time>
      </trkpt>
      <trkpt lat="45.34106" lon="5.87032">
        <ele>1607</ele>
        <time>2022-03-10T14:13:48.375Z</time>
      </trkpt>
      <trkpt lat="45.34115" lon="5.87028">
        <ele>1607</ele>
        <time>2022-03-10T14:14:01.357Z</time>
      </trkpt>
      <trkpt lat="45.34117" lon="5.87041">
        <ele>1607</ele>
        <time>2022-03-10T14:14:21.384Z</time>
      </trkpt>
      <trkpt lat="45.34126" lon="5.87043">
        <ele>1608</ele>
        <time>2022-03-10T14:14:45.384Z</time>
      </trkpt>
      <trkpt lat="45.34134" lon="5.87034">
        <ele>1609</ele>
        <time>2022-03-10T14:15:07.360Z</time>
      </trkpt>
      <trkpt lat="45.34138" lon="5.87046">
        <ele>1610</ele>
        <time>2022-03-10T14:15:24.383Z</time>
      </trkpt>
      <trkpt lat="45.34139" lon="5.87059">
        <ele>1612</ele>
        <time>2022-03-10T14:15:42.349Z</time>
      </trkpt>
      <trkpt lat="45.34139" lon="5.87073">
        <ele>1615</ele>
        <time>2022-03-10T14:15:58.344Z</time>
      </trkpt>
      <trkpt lat="45.34145" lon="5.87062">
        <ele>1626</ele>
        <time>2022-03-10T14:16:31.356Z</time>
      </trkpt>
      <trkpt lat="45.34152" lon="5.87052">
        <ele>1631</ele>
        <time>2022-03-10T14:16:45.391Z</time>
      </trkpt>
      <trkpt lat="45.34157" lon="5.87063">
        <ele>1639</ele>
        <time>2022-03-10T14:17:15.399Z</time>
      </trkpt>
      <trkpt lat="45.34158" lon="5.87076">
        <ele>1641</ele>
        <time>2022-03-10T14:17:32.350Z</time>
      </trkpt>
      <trkpt lat="45.34158" lon="5.87089">
        <ele>1644</ele>
        <time>2022-03-10T14:17:47.370Z</time>
      </trkpt>
      <trkpt lat="45.34167" lon="5.87085">
        <ele>1648</ele>
        <time>2022-03-10T14:18:16.355Z</time>
      </trkpt>
      <trkpt lat="45.34172" lon="5.87074">
        <ele>1649</ele>
        <time>2022-03-10T14:18:31.341Z</time>
      </trkpt>
      <trkpt lat="45.34178" lon="5.87067">
        <ele>1653</ele>
        <time>2022-03-10T14:18:52.351Z</time>
      </trkpt>
      <trkpt lat="45.34178" lon="5.87067">
        <ele>1653</ele>
        <time>2022-03-10T14:19:05.350Z</time>
      </trkpt>
      <trkpt lat="45.34181" lon="5.8707">
        <ele>1657</ele>
        <time>2022-03-10T14:19:06.358Z</time>
      </trkpt>
      <trkpt lat="45.34184" lon="5.87082">
        <ele>1660</ele>
        <time>2022-03-10T14:19:28.354Z</time>
      </trkpt>
      <trkpt lat="45.34187" lon="5.87068">
        <ele>1663</ele>
        <time>2022-03-10T14:19:58.350Z</time>
      </trkpt>
      <trkpt lat="45.3419" lon="5.8707">
        <ele>1666</ele>
        <time>2022-03-10T14:20:13.362Z</time>
      </trkpt>
      <trkpt lat="45.3419" lon="5.8707">
        <ele>1666</ele>
        <time>2022-03-10T14:20:28.354Z</time>
      </trkpt>
      <trkpt lat="45.34191" lon="5.87075">
        <ele>1668</ele>
        <time>2022-03-10T14:20:29.359Z</time>
      </trkpt>
      <trkpt lat="45.34191" lon="5.87081">
        <ele>1669</ele>
        <time>2022-03-10T14:20:42.356Z</time>
      </trkpt>
      <trkpt lat="45.34191" lon="5.87081">
        <ele>1669</ele>
        <time>2022-03-10T14:20:58.350Z</time>
      </trkpt>
      <trkpt lat="45.34194" lon="5.87078">
        <ele>1671</ele>
        <time>2022-03-10T14:20:59.354Z</time>
      </trkpt>
      <trkpt lat="45.34199" lon="5.87076">
        <ele>1674</ele>
        <time>2022-03-10T14:21:18.355Z</time>
      </trkpt>
      <trkpt lat="45.34199" lon="5.87076">
        <ele>1674</ele>
        <time>2022-03-10T14:21:28.353Z</time>
      </trkpt>
      <trkpt lat="45.342" lon="5.87082">
        <ele>1674</ele>
        <time>2022-03-10T14:21:29.317Z</time>
      </trkpt>
      <trkpt lat="45.34208" lon="5.87088">
        <ele>1675</ele>
        <time>2022-03-10T14:22:03.386Z</time>
      </trkpt>
      <trkpt lat="45.34207" lon="5.87092">
        <ele>1678</ele>
        <time>2022-03-10T14:22:24.391Z</time>
      </trkpt>
      <trkpt lat="45.34207" lon="5.87092">
        <ele>1678</ele>
        <time>2022-03-10T14:22:54.347Z</time>
      </trkpt>
      <trkpt lat="45.3421" lon="5.87089">
        <ele>1681</ele>
        <time>2022-03-10T14:22:55.340Z</time>
      </trkpt>
      <trkpt lat="45.3421" lon="5.87082">
        <ele>1681</ele>
        <time>2022-03-10T14:23:09.371Z</time>
      </trkpt>
      <trkpt lat="45.3421" lon="5.87082">
        <ele>1681</ele>
        <time>2022-03-10T14:24:25.332Z</time>
      </trkpt>
      <trkpt lat="45.34211" lon="5.87077">
        <ele>1685</ele>
        <time>2022-03-10T14:24:26.358Z</time>
      </trkpt>
      <trkpt lat="45.34208" lon="5.87065">
        <ele>1685</ele>
        <time>2022-03-10T14:24:32.349Z</time>
      </trkpt>
      <trkpt lat="45.34204" lon="5.87052">
        <ele>1686</ele>
        <time>2022-03-10T14:24:38.358Z</time>
      </trkpt>
      <trkpt lat="45.34201" lon="5.87039">
        <ele>1686</ele>
        <time>2022-03-10T14:24:45.339Z</time>
      </trkpt>
      <trkpt lat="45.34202" lon="5.87025">
        <ele>1686</ele>
        <time>2022-03-10T14:24:53.348Z</time>
      </trkpt>
      <trkpt lat="45.34197" lon="5.87014">
        <ele>1685</ele>
        <time>2022-03-10T14:25:02.343Z</time>
      </trkpt>
      <trkpt lat="45.34194" lon="5.87001">
        <ele>1684</ele>
        <time>2022-03-10T14:25:09.330Z</time>
      </trkpt>
      <trkpt lat="45.34194" lon="5.86986">
        <ele>1684</ele>
        <time>2022-03-10T14:25:16.336Z</time>
      </trkpt>
      <trkpt lat="45.34192" lon="5.86973">
        <ele>1682</ele>
        <time>2022-03-10T14:25:25.327Z</time>
      </trkpt>
      <trkpt lat="45.34192" lon="5.86962">
        <ele>1680</ele>
        <time>2022-03-10T14:25:40.341Z</time>
      </trkpt>
      <trkpt lat="45.34192" lon="5.86962">
        <ele>1680</ele>
        <time>2022-03-10T14:26:49.337Z</time>
      </trkpt>
      <trkpt lat="45.3419" lon="5.86957">
        <ele>1679</ele>
        <time>2022-03-10T14:26:50.340Z</time>
      </trkpt>
      <trkpt lat="45.34191" lon="5.86956">
        <ele>1679</ele>
        <time>2022-03-10T14:26:56.342Z</time>
      </trkpt>
      <trkpt lat="45.34191" lon="5.86956">
        <ele>1679</ele>
        <time>2022-03-10T14:30:03.388Z</time>
      </trkpt>
      <trkpt lat="45.34192" lon="5.86949">
        <ele>1681</ele>
        <time>2022-03-10T14:30:04.392Z</time>
      </trkpt>
      <trkpt lat="45.34191" lon="5.86933">
        <ele>1681</ele>
        <time>2022-03-10T14:30:09.387Z</time>
      </trkpt>
      <trkpt lat="45.34191" lon="5.86919">
        <ele>1681</ele>
        <time>2022-03-10T14:30:16.334Z</time>
      </trkpt>
      <trkpt lat="45.3419" lon="5.86904">
        <ele>1681</ele>
        <time>2022-03-10T14:30:22.383Z</time>
      </trkpt>
      <trkpt lat="45.34187" lon="5.86891">
        <ele>1682</ele>
        <time>2022-03-10T14:30:29.385Z</time>
      </trkpt>
      <trkpt lat="45.34179" lon="5.86882">
        <ele>1682</ele>
        <time>2022-03-10T14:30:40.353Z</time>
      </trkpt>
      <trkpt lat="45.34173" lon="5.86872">
        <ele>1682</ele>
        <time>2022-03-10T14:30:48.400Z</time>
      </trkpt>
      <trkpt lat="45.34171" lon="5.86859">
        <ele>1682</ele>
        <time>2022-03-10T14:30:57.365Z</time>
      </trkpt>
      <trkpt lat="45.34171" lon="5.86845">
        <ele>1682</ele>
        <time>2022-03-10T14:31:02.372Z</time>
      </trkpt>
      <trkpt lat="45.34173" lon="5.86832">
        <ele>1680</ele>
        <time>2022-03-10T14:31:08.362Z</time>
      </trkpt>
      <trkpt lat="45.34176" lon="5.86821">
        <ele>1670</ele>
        <time>2022-03-10T14:31:39.397Z</time>
      </trkpt>
      <trkpt lat="45.34176" lon="5.86821">
        <ele>1670</ele>
        <time>2022-03-10T14:32:27.324Z</time>
      </trkpt>
      <trkpt lat="45.34178" lon="5.86816">
        <ele>1663</ele>
        <time>2022-03-10T14:32:28.358Z</time>
      </trkpt>
      <trkpt lat="45.34184" lon="5.86806">
        <ele>1663</ele>
        <time>2022-03-10T14:32:37.396Z</time>
      </trkpt>
      <trkpt lat="45.34186" lon="5.86794">
        <ele>1662</ele>
        <time>2022-03-10T14:32:49.401Z</time>
      </trkpt>
      <trkpt lat="45.3419" lon="5.86781">
        <ele>1661</ele>
        <time>2022-03-10T14:32:59.426Z</time>
      </trkpt>
      <trkpt lat="45.34195" lon="5.8677">
        <ele>1660</ele>
        <time>2022-03-10T14:33:08.377Z</time>
      </trkpt>
      <trkpt lat="45.34201" lon="5.86759">
        <ele>1659</ele>
        <time>2022-03-10T14:33:21.346Z</time>
      </trkpt>
      <trkpt lat="45.34202" lon="5.8676">
        <ele>1659</ele>
        <time>2022-03-10T14:33:27.371Z</time>
      </trkpt>
      <trkpt lat="45.34202" lon="5.8676">
        <ele>1659</ele>
        <time>2022-03-10T14:34:26.393Z</time>
      </trkpt>
      <trkpt lat="45.34203" lon="5.86754">
        <ele>1657</ele>
        <time>2022-03-10T14:34:27.403Z</time>
      </trkpt>
      <trkpt lat="45.34208" lon="5.86741">
        <ele>1657</ele>
        <time>2022-03-10T14:34:33.398Z</time>
      </trkpt>
      <trkpt lat="45.34213" lon="5.86728">
        <ele>1657</ele>
        <time>2022-03-10T14:34:38.386Z</time>
      </trkpt>
      <trkpt lat="45.34219" lon="5.86718">
        <ele>1657</ele>
        <time>2022-03-10T14:34:43.354Z</time>
      </trkpt>
      <trkpt lat="45.34224" lon="5.86706">
        <ele>1657</ele>
        <time>2022-03-10T14:34:51.405Z</time>
      </trkpt>
      <trkpt lat="45.34233" lon="5.86702">
        <ele>1656</ele>
        <time>2022-03-10T14:34:59.352Z</time>
      </trkpt>
      <trkpt lat="45.34241" lon="5.86693">
        <ele>1655</ele>
        <time>2022-03-10T14:35:08.376Z</time>
      </trkpt>
      <trkpt lat="45.3425" lon="5.86684">
        <ele>1653</ele>
        <time>2022-03-10T14:35:14.436Z</time>
      </trkpt>
      <trkpt lat="45.34258" lon="5.86676">
        <ele>1652</ele>
        <time>2022-03-10T14:35:20.401Z</time>
      </trkpt>
      <trkpt lat="45.34267" lon="5.86671">
        <ele>1650</ele>
        <time>2022-03-10T14:35:27.361Z</time>
      </trkpt>
      <trkpt lat="45.34268" lon="5.86671">
        <ele>1648</ele>
        <time>2022-03-10T14:35:34.346Z</time>
      </trkpt>
      <trkpt lat="45.34268" lon="5.86671">
        <ele>1648</ele>
        <time>2022-03-10T14:35:39.349Z</time>
      </trkpt>
      <trkpt lat="45.34271" lon="5.86666">
        <ele>1646</ele>
        <time>2022-03-10T14:35:40.358Z</time>
      </trkpt>
      <trkpt lat="45.34273" lon="5.86663">
        <ele>1644</ele>
        <time>2022-03-10T14:35:49.400Z</time>
      </trkpt>
      <trkpt lat="45.34273" lon="5.86663">
        <ele>1644</ele>
        <time>2022-03-10T14:36:09.401Z</time>
      </trkpt>
      <trkpt lat="45.34273" lon="5.86658">
        <ele>1640</ele>
        <time>2022-03-10T14:36:10.370Z</time>
      </trkpt>
      <trkpt lat="45.34273" lon="5.86658">
        <ele>1639</ele>
        <time>2022-03-10T14:36:15.420Z</time>
      </trkpt>
      <trkpt lat="45.34273" lon="5.86658">
        <ele>1639</ele>
        <time>2022-03-10T14:36:37.386Z</time>
      </trkpt>
      <trkpt lat="45.34277" lon="5.86654">
        <ele>1634</ele>
        <time>2022-03-10T14:36:38.376Z</time>
      </trkpt>
      <trkpt lat="45.34285" lon="5.86645">
        <ele>1634</ele>
        <time>2022-03-10T14:36:41.375Z</time>
      </trkpt>
      <trkpt lat="45.34293" lon="5.86638">
        <ele>1633</ele>
        <time>2022-03-10T14:36:45.390Z</time>
      </trkpt>
      <trkpt lat="45.34299" lon="5.86626">
        <ele>1630</ele>
        <time>2022-03-10T14:36:57.399Z</time>
      </trkpt>
      <trkpt lat="45.34307" lon="5.86619">
        <ele>1629</ele>
        <time>2022-03-10T14:37:03.397Z</time>
      </trkpt>
      <trkpt lat="45.34317" lon="5.86613">
        <ele>1628</ele>
        <time>2022-03-10T14:37:10.398Z</time>
      </trkpt>
      <trkpt lat="45.34326" lon="5.86605">
        <ele>1627</ele>
        <time>2022-03-10T14:37:16.399Z</time>
      </trkpt>
      <trkpt lat="45.34333" lon="5.86597">
        <ele>1625</ele>
        <time>2022-03-10T14:37:23.389Z</time>
      </trkpt>
      <trkpt lat="45.34338" lon="5.86591">
        <ele>1624</ele>
        <time>2022-03-10T14:37:34.331Z</time>
      </trkpt>
      <trkpt lat="45.34338" lon="5.86591">
        <ele>1624</ele>
        <time>2022-03-10T14:37:58.362Z</time>
      </trkpt>
      <trkpt lat="45.34342" lon="5.86587">
        <ele>1623</ele>
        <time>2022-03-10T14:37:59.360Z</time>
      </trkpt>
      <trkpt lat="45.34351" lon="5.8658">
        <ele>1623</ele>
        <time>2022-03-10T14:38:04.403Z</time>
      </trkpt>
      <trkpt lat="45.34356" lon="5.86566">
        <ele>1622</ele>
        <time>2022-03-10T14:38:10.383Z</time>
      </trkpt>
      <trkpt lat="45.34362" lon="5.86556">
        <ele>1622</ele>
        <time>2022-03-10T14:38:16.386Z</time>
      </trkpt>
      <trkpt lat="45.34369" lon="5.86545">
        <ele>1621</ele>
        <time>2022-03-10T14:38:20.380Z</time>
      </trkpt>
      <trkpt lat="45.34376" lon="5.86537">
        <ele>1620</ele>
        <time>2022-03-10T14:38:26.382Z</time>
      </trkpt>
      <trkpt lat="45.34376" lon="5.86537">
        <ele>1619</ele>
        <time>2022-03-10T14:38:32.392Z</time>
      </trkpt>
      <trkpt lat="45.34376" lon="5.86537">
        <ele>1619</ele>
        <time>2022-03-10T14:38:41.402Z</time>
      </trkpt>
      <trkpt lat="45.34379" lon="5.86531">
        <ele>1616</ele>
        <time>2022-03-10T14:38:42.406Z</time>
      </trkpt>
      <trkpt lat="45.34385" lon="5.86522">
        <ele>1614</ele>
        <time>2022-03-10T14:38:51.392Z</time>
      </trkpt>
      <trkpt lat="45.34392" lon="5.86512">
        <ele>1613</ele>
        <time>2022-03-10T14:38:57.398Z</time>
      </trkpt>
      <trkpt lat="45.34397" lon="5.86501">
        <ele>1612</ele>
        <time>2022-03-10T14:39:01.402Z</time>
      </trkpt>
      <trkpt lat="45.34406" lon="5.86492">
        <ele>1611</ele>
        <time>2022-03-10T14:39:09.379Z</time>
      </trkpt>
      <trkpt lat="45.3441" lon="5.86491">
        <ele>1610</ele>
        <time>2022-03-10T14:39:18.387Z</time>
      </trkpt>
      <trkpt lat="45.3441" lon="5.86491">
        <ele>1610</ele>
        <time>2022-03-10T14:39:51.389Z</time>
      </trkpt>
      <trkpt lat="45.3443" lon="5.86473">
        <ele>1606</ele>
        <time>2022-03-10T14:39:52.378Z</time>
      </trkpt>
      <trkpt lat="45.34438" lon="5.86467">
        <ele>1605</ele>
        <time>2022-03-10T14:39:57.370Z</time>
      </trkpt>
      <trkpt lat="45.34447" lon="5.86461">
        <ele>1605</ele>
        <time>2022-03-10T14:40:04.397Z</time>
      </trkpt>
      <trkpt lat="45.34456" lon="5.86452">
        <ele>1604</ele>
        <time>2022-03-10T14:40:08.413Z</time>
      </trkpt>
      <trkpt lat="45.34464" lon="5.86446">
        <ele>1603</ele>
        <time>2022-03-10T14:40:14.398Z</time>
      </trkpt>
      <trkpt lat="45.34474" lon="5.86441">
        <ele>1602</ele>
        <time>2022-03-10T14:40:20.371Z</time>
      </trkpt>
      <trkpt lat="45.34481" lon="5.86443">
        <ele>1600</ele>
        <time>2022-03-10T14:40:28.411Z</time>
      </trkpt>
      <trkpt lat="45.34481" lon="5.86443">
        <ele>1600</ele>
        <time>2022-03-10T14:40:31.356Z</time>
      </trkpt>
      <trkpt lat="45.34485" lon="5.86445">
        <ele>1598</ele>
        <time>2022-03-10T14:40:32.397Z</time>
      </trkpt>
      <trkpt lat="45.34494" lon="5.86448">
        <ele>1597</ele>
        <time>2022-03-10T14:40:38.412Z</time>
      </trkpt>
      <trkpt lat="45.34504" lon="5.86455">
        <ele>1596</ele>
        <time>2022-03-10T14:40:41.411Z</time>
      </trkpt>
      <trkpt lat="45.34513" lon="5.86462">
        <ele>1595</ele>
        <time>2022-03-10T14:40:44.389Z</time>
      </trkpt>
      <trkpt lat="45.34522" lon="5.86466">
        <ele>1594</ele>
        <time>2022-03-10T14:40:48.391Z</time>
      </trkpt>
      <trkpt lat="45.34531" lon="5.86472">
        <ele>1592</ele>
        <time>2022-03-10T14:40:53.430Z</time>
      </trkpt>
      <trkpt lat="45.34539" lon="5.8648">
        <ele>1591</ele>
        <time>2022-03-10T14:40:56.387Z</time>
      </trkpt>
      <trkpt lat="45.34547" lon="5.86489">
        <ele>1589</ele>
        <time>2022-03-10T14:41:01.388Z</time>
      </trkpt>
      <trkpt lat="45.34554" lon="5.86499">
        <ele>1586</ele>
        <time>2022-03-10T14:41:08.399Z</time>
      </trkpt>
      <trkpt lat="45.34563" lon="5.86498">
        <ele>1580</ele>
        <time>2022-03-10T14:41:21.392Z</time>
      </trkpt>
      <trkpt lat="45.34572" lon="5.865">
        <ele>1577</ele>
        <time>2022-03-10T14:41:26.391Z</time>
      </trkpt>
      <trkpt lat="45.34582" lon="5.86498">
        <ele>1575</ele>
        <time>2022-03-10T14:41:30.353Z</time>
      </trkpt>
      <trkpt lat="45.34592" lon="5.86495">
        <ele>1573</ele>
        <time>2022-03-10T14:41:34.386Z</time>
      </trkpt>
      <trkpt lat="45.34602" lon="5.8649">
        <ele>1571</ele>
        <time>2022-03-10T14:41:38.370Z</time>
      </trkpt>
      <trkpt lat="45.34611" lon="5.86485">
        <ele>1569</ele>
        <time>2022-03-10T14:41:42.394Z</time>
      </trkpt>
      <trkpt lat="45.34619" lon="5.86478">
        <ele>1564</ele>
        <time>2022-03-10T14:41:54.436Z</time>
      </trkpt>
      <trkpt lat="45.34628" lon="5.86477">
        <ele>1558</ele>
        <time>2022-03-10T14:42:09.379Z</time>
      </trkpt>
      <trkpt lat="45.34638" lon="5.86474">
        <ele>1555</ele>
        <time>2022-03-10T14:42:19.379Z</time>
      </trkpt>
      <trkpt lat="45.34647" lon="5.86474">
        <ele>1553</ele>
        <time>2022-03-10T14:42:29.382Z</time>
      </trkpt>
      <trkpt lat="45.34657" lon="5.86478">
        <ele>1551</ele>
        <time>2022-03-10T14:42:36.378Z</time>
      </trkpt>
      <trkpt lat="45.34667" lon="5.86478">
        <ele>1550</ele>
        <time>2022-03-10T14:42:42.354Z</time>
      </trkpt>
      <trkpt lat="45.34677" lon="5.86474">
        <ele>1548</ele>
        <time>2022-03-10T14:42:48.385Z</time>
      </trkpt>
      <trkpt lat="45.34682" lon="5.86475">
        <ele>1547</ele>
        <time>2022-03-10T14:42:52.372Z</time>
      </trkpt>
      <trkpt lat="45.34682" lon="5.86475">
        <ele>1547</ele>
        <time>2022-03-10T14:43:11.370Z</time>
      </trkpt>
      <trkpt lat="45.34685" lon="5.86474">
        <ele>1544</ele>
        <time>2022-03-10T14:43:12.354Z</time>
      </trkpt>
      <trkpt lat="45.34685" lon="5.86474">
        <ele>1543</ele>
        <time>2022-03-10T14:43:17.376Z</time>
      </trkpt>
      <trkpt lat="45.34685" lon="5.86474">
        <ele>1543</ele>
        <time>2022-03-10T14:43:37.364Z</time>
      </trkpt>
      <trkpt lat="45.34689" lon="5.8647">
        <ele>1543</ele>
        <time>2022-03-10T14:43:38.390Z</time>
      </trkpt>
      <trkpt lat="45.34686" lon="5.86458">
        <ele>1543</ele>
        <time>2022-03-10T14:43:44.380Z</time>
      </trkpt>
      <trkpt lat="45.34684" lon="5.86457">
        <ele>1544</ele>
        <time>2022-03-10T14:43:51.402Z</time>
      </trkpt>
      <trkpt lat="45.34684" lon="5.86457">
        <ele>1544</ele>
        <time>2022-03-10T14:44:15.369Z</time>
      </trkpt>
      <trkpt lat="45.34671" lon="5.86429">
        <ele>1544</ele>
        <time>2022-03-10T14:44:16.348Z</time>
      </trkpt>
      <trkpt lat="45.3467" lon="5.86414">
        <ele>1543</ele>
        <time>2022-03-10T14:44:22.366Z</time>
      </trkpt>
      <trkpt lat="45.34672" lon="5.86399">
        <ele>1542</ele>
        <time>2022-03-10T14:44:26.404Z</time>
      </trkpt>
      <trkpt lat="45.34667" lon="5.86388">
        <ele>1541</ele>
        <time>2022-03-10T14:44:33.399Z</time>
      </trkpt>
      <trkpt lat="45.34662" lon="5.86384">
        <ele>1538</ele>
        <time>2022-03-10T14:44:43.394Z</time>
      </trkpt>
      <trkpt lat="45.34662" lon="5.86384">
        <ele>1538</ele>
        <time>2022-03-10T14:45:03.396Z</time>
      </trkpt>
      <trkpt lat="45.34661" lon="5.86378">
        <ele>1531</ele>
        <time>2022-03-10T14:45:04.372Z</time>
      </trkpt>
      <trkpt lat="45.34662" lon="5.86372">
        <ele>1529</ele>
        <time>2022-03-10T14:45:17.387Z</time>
      </trkpt>
      <trkpt lat="45.34662" lon="5.86372">
        <ele>1529</ele>
        <time>2022-03-10T14:46:13.396Z</time>
      </trkpt>
      <trkpt lat="45.34663" lon="5.86367">
        <ele>1526</ele>
        <time>2022-03-10T14:46:14.456Z</time>
      </trkpt>
      <trkpt lat="45.34658" lon="5.86355">
        <ele>1525</ele>
        <time>2022-03-10T14:46:25.388Z</time>
      </trkpt>
      <trkpt lat="45.34655" lon="5.86342">
        <ele>1524</ele>
        <time>2022-03-10T14:46:34.380Z</time>
      </trkpt>
      <trkpt lat="45.34651" lon="5.8633">
        <ele>1524</ele>
        <time>2022-03-10T14:46:40.409Z</time>
      </trkpt>
      <trkpt lat="45.34651" lon="5.86316">
        <ele>1523</ele>
        <time>2022-03-10T14:46:50.410Z</time>
      </trkpt>
      <trkpt lat="45.34655" lon="5.86304">
        <ele>1522</ele>
        <time>2022-03-10T14:46:59.391Z</time>
      </trkpt>
      <trkpt lat="45.34652" lon="5.86291">
        <ele>1522</ele>
        <time>2022-03-10T14:47:13.373Z</time>
      </trkpt>
      <trkpt lat="45.34651" lon="5.86289">
        <ele>1521</ele>
        <time>2022-03-10T14:47:18.389Z</time>
      </trkpt>
      <trkpt lat="45.34651" lon="5.86289">
        <ele>1521</ele>
        <time>2022-03-10T14:47:36.375Z</time>
      </trkpt>
      <trkpt lat="45.34648" lon="5.86278">
        <ele>1520</ele>
        <time>2022-03-10T14:47:37.368Z</time>
      </trkpt>
      <trkpt lat="45.3464" lon="5.8627">
        <ele>1519</ele>
        <time>2022-03-10T14:47:52.379Z</time>
      </trkpt>
      <trkpt lat="45.34638" lon="5.86267">
        <ele>1518</ele>
        <time>2022-03-10T14:48:07.399Z</time>
      </trkpt>
      <trkpt lat="45.34638" lon="5.86267">
        <ele>1518</ele>
        <time>2022-03-10T14:48:16.400Z</time>
      </trkpt>
      <trkpt lat="45.34641" lon="5.86265">
        <ele>1518</ele>
        <time>2022-03-10T14:48:17.383Z</time>
      </trkpt>
      <trkpt lat="45.34644" lon="5.8626">
        <ele>1518</ele>
        <time>2022-03-10T14:48:40.380Z</time>
      </trkpt>
      <trkpt lat="45.34644" lon="5.8626">
        <ele>1518</ele>
        <time>2022-03-10T14:48:59.373Z</time>
      </trkpt>
      <trkpt lat="45.3464" lon="5.86256">
        <ele>1518</ele>
        <time>2022-03-10T14:49:00.378Z</time>
      </trkpt>
      <trkpt lat="45.34633" lon="5.86248">
        <ele>1518</ele>
        <time>2022-03-10T14:49:09.362Z</time>
      </trkpt>
      <trkpt lat="45.34628" lon="5.86237">
        <ele>1518</ele>
        <time>2022-03-10T14:49:23.378Z</time>
      </trkpt>
      <trkpt lat="45.34628" lon="5.86224">
        <ele>1517</ele>
        <time>2022-03-10T14:49:33.391Z</time>
      </trkpt>
      <trkpt lat="45.34631" lon="5.86211">
        <ele>1517</ele>
        <time>2022-03-10T14:49:44.324Z</time>
      </trkpt>
      <trkpt lat="45.34634" lon="5.86198">
        <ele>1517</ele>
        <time>2022-03-10T14:49:56.363Z</time>
      </trkpt>
      <trkpt lat="45.34635" lon="5.86184">
        <ele>1517</ele>
        <time>2022-03-10T14:50:06.383Z</time>
      </trkpt>
      <trkpt lat="45.34634" lon="5.86182">
        <ele>1517</ele>
        <time>2022-03-10T14:50:09.362Z</time>
      </trkpt>
      <trkpt lat="45.34634" lon="5.86182">
        <ele>1517</ele>
        <time>2022-03-10T14:50:18.360Z</time>
      </trkpt>
      <trkpt lat="45.34632" lon="5.86168">
        <ele>1517</ele>
        <time>2022-03-10T14:50:19.384Z</time>
      </trkpt>
      <trkpt lat="45.34634" lon="5.86155">
        <ele>1517</ele>
        <time>2022-03-10T14:50:31.352Z</time>
      </trkpt>
      <trkpt lat="45.34633" lon="5.8614">
        <ele>1517</ele>
        <time>2022-03-10T14:50:39.366Z</time>
      </trkpt>
      <trkpt lat="45.34634" lon="5.86126">
        <ele>1517</ele>
        <time>2022-03-10T14:50:52.362Z</time>
      </trkpt>
      <trkpt lat="45.34634" lon="5.86112">
        <ele>1518</ele>
        <time>2022-03-10T14:51:00.357Z</time>
      </trkpt>
      <trkpt lat="45.34632" lon="5.86099">
        <ele>1518</ele>
        <time>2022-03-10T14:51:08.347Z</time>
      </trkpt>
      <trkpt lat="45.34632" lon="5.86086">
        <ele>1519</ele>
        <time>2022-03-10T14:51:19.370Z</time>
      </trkpt>
      <trkpt lat="45.34633" lon="5.86073">
        <ele>1519</ele>
        <time>2022-03-10T14:51:31.329Z</time>
      </trkpt>
      <trkpt lat="45.3463" lon="5.8606">
        <ele>1520</ele>
        <time>2022-03-10T14:51:46.337Z</time>
      </trkpt>
      <trkpt lat="45.34633" lon="5.86046">
        <ele>1521</ele>
        <time>2022-03-10T14:51:58.329Z</time>
      </trkpt>
      <trkpt lat="45.34638" lon="5.86035">
        <ele>1522</ele>
        <time>2022-03-10T14:52:07.329Z</time>
      </trkpt>
      <trkpt lat="45.34644" lon="5.86024">
        <ele>1522</ele>
        <time>2022-03-10T14:52:13.318Z</time>
      </trkpt>
      <trkpt lat="45.34649" lon="5.86013">
        <ele>1523</ele>
        <time>2022-03-10T14:52:24.327Z</time>
      </trkpt>
      <trkpt lat="45.34655" lon="5.86004">
        <ele>1524</ele>
        <time>2022-03-10T14:52:32.336Z</time>
      </trkpt>
      <trkpt lat="45.34664" lon="5.85997">
        <ele>1525</ele>
        <time>2022-03-10T14:52:38.318Z</time>
      </trkpt>
      <trkpt lat="45.34671" lon="5.85989">
        <ele>1526</ele>
        <time>2022-03-10T14:52:44.323Z</time>
      </trkpt>
      <trkpt lat="45.34678" lon="5.85979">
        <ele>1527</ele>
        <time>2022-03-10T14:52:53.329Z</time>
      </trkpt>
      <trkpt lat="45.34685" lon="5.85971">
        <ele>1529</ele>
        <time>2022-03-10T14:53:01.332Z</time>
      </trkpt>
      <trkpt lat="45.34693" lon="5.85962">
        <ele>1530</ele>
        <time>2022-03-10T14:53:07.334Z</time>
      </trkpt>
      <trkpt lat="45.34698" lon="5.8595">
        <ele>1532</ele>
        <time>2022-03-10T14:53:16.338Z</time>
      </trkpt>
      <trkpt lat="45.34699" lon="5.85936">
        <ele>1533</ele>
        <time>2022-03-10T14:53:23.328Z</time>
      </trkpt>
      <trkpt lat="45.34704" lon="5.85925">
        <ele>1533</ele>
        <time>2022-03-10T14:53:29.333Z</time>
      </trkpt>
      <trkpt lat="45.34711" lon="5.85917">
        <ele>1534</ele>
        <time>2022-03-10T14:53:34.351Z</time>
      </trkpt>
      <trkpt lat="45.34716" lon="5.85904">
        <ele>1534</ele>
        <time>2022-03-10T14:53:41.323Z</time>
      </trkpt>
      <trkpt lat="45.34721" lon="5.85893">
        <ele>1534</ele>
        <time>2022-03-10T14:53:48.346Z</time>
      </trkpt>
      <trkpt lat="45.34728" lon="5.85884">
        <ele>1534</ele>
        <time>2022-03-10T14:53:56.332Z</time>
      </trkpt>
      <trkpt lat="45.34735" lon="5.85874">
        <ele>1534</ele>
        <time>2022-03-10T14:54:03.350Z</time>
      </trkpt>
      <trkpt lat="45.34742" lon="5.85865">
        <ele>1533</ele>
        <time>2022-03-10T14:54:11.365Z</time>
      </trkpt>
      <trkpt lat="45.34752" lon="5.85863">
        <ele>1533</ele>
        <time>2022-03-10T14:54:19.337Z</time>
      </trkpt>
      <trkpt lat="45.34759" lon="5.85854">
        <ele>1532</ele>
        <time>2022-03-10T14:54:31.342Z</time>
      </trkpt>
      <trkpt lat="45.34766" lon="5.85844">
        <ele>1532</ele>
        <time>2022-03-10T14:54:38.357Z</time>
      </trkpt>
      <trkpt lat="45.34774" lon="5.85838">
        <ele>1532</ele>
        <time>2022-03-10T14:54:45.350Z</time>
      </trkpt>
      <trkpt lat="45.34783" lon="5.85835">
        <ele>1532</ele>
        <time>2022-03-10T14:54:51.339Z</time>
      </trkpt>
      <trkpt lat="45.34791" lon="5.8583">
        <ele>1532</ele>
        <time>2022-03-10T14:54:57.353Z</time>
      </trkpt>
      <trkpt lat="45.34799" lon="5.85823">
        <ele>1533</ele>
        <time>2022-03-10T14:55:04.362Z</time>
      </trkpt>
      <trkpt lat="45.34806" lon="5.85814">
        <ele>1534</ele>
        <time>2022-03-10T14:55:12.346Z</time>
      </trkpt>
      <trkpt lat="45.34809" lon="5.85812">
        <ele>1535</ele>
        <time>2022-03-10T14:55:21.344Z</time>
      </trkpt>
      <trkpt lat="45.34809" lon="5.85812">
        <ele>1535</ele>
        <time>2022-03-10T14:56:37.378Z</time>
      </trkpt>
      <trkpt lat="45.34811" lon="5.85808">
        <ele>1536</ele>
        <time>2022-03-10T14:56:38.357Z</time>
      </trkpt>
      <trkpt lat="45.34819" lon="5.85802">
        <ele>1534</ele>
        <time>2022-03-10T14:56:53.370Z</time>
      </trkpt>
      <trkpt lat="45.34825" lon="5.85792">
        <ele>1534</ele>
        <time>2022-03-10T14:57:08.394Z</time>
      </trkpt>
      <trkpt lat="45.34833" lon="5.85797">
        <ele>1538</ele>
        <time>2022-03-10T14:57:35.381Z</time>
      </trkpt>
      <trkpt lat="45.34842" lon="5.85801">
        <ele>1540</ele>
        <time>2022-03-10T14:57:47.396Z</time>
      </trkpt>
      <trkpt lat="45.34851" lon="5.85801">
        <ele>1542</ele>
        <time>2022-03-10T14:58:01.374Z</time>
      </trkpt>
      <trkpt lat="45.3486" lon="5.85798">
        <ele>1542</ele>
        <time>2022-03-10T14:58:15.395Z</time>
      </trkpt>
      <trkpt lat="45.34869" lon="5.85793">
        <ele>1541</ele>
        <time>2022-03-10T14:58:29.397Z</time>
      </trkpt>
      <trkpt lat="45.34877" lon="5.85789">
        <ele>1541</ele>
        <time>2022-03-10T14:58:42.361Z</time>
      </trkpt>
      <trkpt lat="45.34878" lon="5.85789">
        <ele>1541</ele>
        <time>2022-03-10T14:58:49.382Z</time>
      </trkpt>
      <trkpt lat="45.34878" lon="5.85789">
        <ele>1541</ele>
        <time>2022-03-10T14:59:59.412Z</time>
      </trkpt>
      <trkpt lat="45.34881" lon="5.85785">
        <ele>1545</ele>
        <time>2022-03-10T15:00:00.394Z</time>
      </trkpt>
      <trkpt lat="45.34883" lon="5.85772">
        <ele>1545</ele>
        <time>2022-03-10T15:00:12.393Z</time>
      </trkpt>
      <trkpt lat="45.34882" lon="5.85759">
        <ele>1545</ele>
        <time>2022-03-10T15:00:26.402Z</time>
      </trkpt>
      <trkpt lat="45.34881" lon="5.85746">
        <ele>1546</ele>
        <time>2022-03-10T15:00:43.349Z</time>
      </trkpt>
      <trkpt lat="45.34889" lon="5.85738">
        <ele>1547</ele>
        <time>2022-03-10T15:00:57.386Z</time>
      </trkpt>
      <trkpt lat="45.34897" lon="5.85732">
        <ele>1550</ele>
        <time>2022-03-10T15:01:13.406Z</time>
      </trkpt>
      <trkpt lat="45.34904" lon="5.85724">
        <ele>1552</ele>
        <time>2022-03-10T15:01:26.371Z</time>
      </trkpt>
      <trkpt lat="45.34906" lon="5.85711">
        <ele>1555</ele>
        <time>2022-03-10T15:01:49.407Z</time>
      </trkpt>
      <trkpt lat="45.34911" lon="5.85699">
        <ele>1556</ele>
        <time>2022-03-10T15:02:08.381Z</time>
      </trkpt>
      <trkpt lat="45.34917" lon="5.85688">
        <ele>1559</ele>
        <time>2022-03-10T15:02:23.387Z</time>
      </trkpt>
      <trkpt lat="45.34924" lon="5.8568">
        <ele>1565</ele>
        <time>2022-03-10T15:02:49.424Z</time>
      </trkpt>
      <trkpt lat="45.34927" lon="5.85667">
        <ele>1572</ele>
        <time>2022-03-10T15:03:09.404Z</time>
      </trkpt>
      <trkpt lat="45.34924" lon="5.85655">
        <ele>1578</ele>
        <time>2022-03-10T15:03:32.391Z</time>
      </trkpt>
      <trkpt lat="45.34929" lon="5.85644">
        <ele>1581</ele>
        <time>2022-03-10T15:04:06.409Z</time>
      </trkpt>
      <trkpt lat="45.34938" lon="5.85642">
        <ele>1582</ele>
        <time>2022-03-10T15:04:23.369Z</time>
      </trkpt>
      <trkpt lat="45.34946" lon="5.85634">
        <ele>1585</ele>
        <time>2022-03-10T15:04:38.433Z</time>
      </trkpt>
      <trkpt lat="45.34956" lon="5.85632">
        <ele>1588</ele>
        <time>2022-03-10T15:04:52.392Z</time>
      </trkpt>
      <trkpt lat="45.34961" lon="5.85622">
        <ele>1592</ele>
        <time>2022-03-10T15:05:11.379Z</time>
      </trkpt>
      <trkpt lat="45.34967" lon="5.85613">
        <ele>1598</ele>
        <time>2022-03-10T15:05:42.405Z</time>
      </trkpt>
      <trkpt lat="45.34969" lon="5.856">
        <ele>1605</ele>
        <time>2022-03-10T15:06:14.458Z</time>
      </trkpt>
      <trkpt lat="45.34977" lon="5.85592">
        <ele>1608</ele>
        <time>2022-03-10T15:06:37.392Z</time>
      </trkpt>
      <trkpt lat="45.34979" lon="5.85579">
        <ele>1612</ele>
        <time>2022-03-10T15:07:13.424Z</time>
      </trkpt>
      <trkpt lat="45.34982" lon="5.85567">
        <ele>1617</ele>
        <time>2022-03-10T15:07:43.357Z</time>
      </trkpt>
      <trkpt lat="45.34976" lon="5.85557">
        <ele>1619</ele>
        <time>2022-03-10T15:08:00.388Z</time>
      </trkpt>
      <trkpt lat="45.34972" lon="5.85545">
        <ele>1621</ele>
        <time>2022-03-10T15:08:26.398Z</time>
      </trkpt>
      <trkpt lat="45.34965" lon="5.85536">
        <ele>1621</ele>
        <time>2022-03-10T15:08:38.413Z</time>
      </trkpt>
      <trkpt lat="45.34958" lon="5.85527">
        <ele>1621</ele>
        <time>2022-03-10T15:08:49.438Z</time>
      </trkpt>
      <trkpt lat="45.34953" lon="5.85521">
        <ele>1621</ele>
        <time>2022-03-10T15:09:01.410Z</time>
      </trkpt>
      <trkpt lat="45.34953" lon="5.85521">
        <ele>1621</ele>
        <time>2022-03-10T15:09:08.395Z</time>
      </trkpt>
      <trkpt lat="45.34951" lon="5.85516">
        <ele>1621</ele>
        <time>2022-03-10T15:09:09.409Z</time>
      </trkpt>
      <trkpt lat="45.34957" lon="5.85506">
        <ele>1624</ele>
        <time>2022-03-10T15:09:32.386Z</time>
      </trkpt>
      <trkpt lat="45.34962" lon="5.85496">
        <ele>1629</ele>
        <time>2022-03-10T15:09:49.359Z</time>
      </trkpt>
      <trkpt lat="45.3497" lon="5.85488">
        <ele>1636</ele>
        <time>2022-03-10T15:10:07.410Z</time>
      </trkpt>
      <trkpt lat="45.34978" lon="5.85481">
        <ele>1644</ele>
        <time>2022-03-10T15:10:26.405Z</time>
      </trkpt>
      <trkpt lat="45.34977" lon="5.85479">
        <ele>1648</ele>
        <time>2022-03-10T15:10:40.384Z</time>
      </trkpt>
      <trkpt lat="45.34977" lon="5.85479">
        <ele>1648</ele>
        <time>2022-03-10T15:11:01.384Z</time>
      </trkpt>
      <trkpt lat="45.34974" lon="5.85479">
        <ele>1650</ele>
        <time>2022-03-10T15:11:02.410Z</time>
      </trkpt>
      <trkpt lat="45.34978" lon="5.85468">
        <ele>1651</ele>
        <time>2022-03-10T15:11:31.417Z</time>
      </trkpt>
      <trkpt lat="45.34971" lon="5.8546">
        <ele>1657</ele>
        <time>2022-03-10T15:12:10.403Z</time>
      </trkpt>
      <trkpt lat="45.34963" lon="5.85453">
        <ele>1659</ele>
        <time>2022-03-10T15:12:27.412Z</time>
      </trkpt>
      <trkpt lat="45.34956" lon="5.85445">
        <ele>1659</ele>
        <time>2022-03-10T15:12:47.401Z</time>
      </trkpt>
      <trkpt lat="45.34951" lon="5.85443">
        <ele>1660</ele>
        <time>2022-03-10T15:12:58.394Z</time>
      </trkpt>
      <trkpt lat="45.34951" lon="5.85443">
        <ele>1660</ele>
        <time>2022-03-10T15:13:41.405Z</time>
      </trkpt>
      <trkpt lat="45.34949" lon="5.85439">
        <ele>1661</ele>
        <time>2022-03-10T15:13:42.398Z</time>
      </trkpt>
      <trkpt lat="45.34941" lon="5.85432">
        <ele>1661</ele>
        <time>2022-03-10T15:13:53.412Z</time>
      </trkpt>
      <trkpt lat="45.34945" lon="5.85419">
        <ele>1664</ele>
        <time>2022-03-10T15:14:21.338Z</time>
      </trkpt>
      <trkpt lat="45.34954" lon="5.85414">
        <ele>1668</ele>
        <time>2022-03-10T15:14:40.342Z</time>
      </trkpt>
      <trkpt lat="45.34963" lon="5.85412">
        <ele>1672</ele>
        <time>2022-03-10T15:14:56.382Z</time>
      </trkpt>
      <trkpt lat="45.34972" lon="5.85407">
        <ele>1675</ele>
        <time>2022-03-10T15:15:16.397Z</time>
      </trkpt>
      <trkpt lat="45.3498" lon="5.854">
        <ele>1677</ele>
        <time>2022-03-10T15:15:26.344Z</time>
      </trkpt>
      <trkpt lat="45.34989" lon="5.85396">
        <ele>1680</ele>
        <time>2022-03-10T15:15:45.342Z</time>
      </trkpt>
      <trkpt lat="45.3499" lon="5.85395">
        <ele>1682</ele>
        <time>2022-03-10T15:15:55.352Z</time>
      </trkpt>
      <trkpt lat="45.3499" lon="5.85395">
        <ele>1682</ele>
        <time>2022-03-10T15:16:01.378Z</time>
      </trkpt>
      <trkpt lat="45.34993" lon="5.85392">
        <ele>1684</ele>
        <time>2022-03-10T15:16:02.335Z</time>
      </trkpt>
      <trkpt lat="45.34984" lon="5.85389">
        <ele>1688</ele>
        <time>2022-03-10T15:16:27.343Z</time>
      </trkpt>
      <trkpt lat="45.34976" lon="5.85384">
        <ele>1690</ele>
        <time>2022-03-10T15:16:42.363Z</time>
      </trkpt>
      <trkpt lat="45.34968" lon="5.85377">
        <ele>1692</ele>
        <time>2022-03-10T15:17:01.398Z</time>
      </trkpt>
      <trkpt lat="45.34963" lon="5.85374">
        <ele>1693</ele>
        <time>2022-03-10T15:17:19.361Z</time>
      </trkpt>
      <trkpt lat="45.34963" lon="5.85374">
        <ele>1693</ele>
        <time>2022-03-10T15:17:33.372Z</time>
      </trkpt>
      <trkpt lat="45.34966" lon="5.8537">
        <ele>1694</ele>
        <time>2022-03-10T15:17:34.344Z</time>
      </trkpt>
      <trkpt lat="45.34972" lon="5.8536">
        <ele>1696</ele>
        <time>2022-03-10T15:17:50.349Z</time>
      </trkpt>
      <trkpt lat="45.3498" lon="5.85352">
        <ele>1701</ele>
        <time>2022-03-10T15:18:09.333Z</time>
      </trkpt>
      <trkpt lat="45.34989" lon="5.85348">
        <ele>1706</ele>
        <time>2022-03-10T15:18:23.333Z</time>
      </trkpt>
      <trkpt lat="45.34998" lon="5.85344">
        <ele>1710</ele>
        <time>2022-03-10T15:18:39.343Z</time>
      </trkpt>
      <trkpt lat="45.35007" lon="5.8534">
        <ele>1713</ele>
        <time>2022-03-10T15:18:55.371Z</time>
      </trkpt>
      <trkpt lat="45.35015" lon="5.85334">
        <ele>1717</ele>
        <time>2022-03-10T15:19:12.362Z</time>
      </trkpt>
      <trkpt lat="45.35025" lon="5.85331">
        <ele>1723</ele>
        <time>2022-03-10T15:19:42.353Z</time>
      </trkpt>
      <trkpt lat="45.35035" lon="5.85332">
        <ele>1725</ele>
        <time>2022-03-10T15:19:58.326Z</time>
      </trkpt>
      <trkpt lat="45.35044" lon="5.85328">
        <ele>1725</ele>
        <time>2022-03-10T15:20:12.340Z</time>
      </trkpt>
      <trkpt lat="45.35053" lon="5.85326">
        <ele>1725</ele>
        <time>2022-03-10T15:20:22.334Z</time>
      </trkpt>
      <trkpt lat="45.35063" lon="5.85322">
        <ele>1726</ele>
        <time>2022-03-10T15:20:33.384Z</time>
      </trkpt>
      <trkpt lat="45.35072" lon="5.85316">
        <ele>1727</ele>
        <time>2022-03-10T15:20:46.340Z</time>
      </trkpt>
      <trkpt lat="45.3508" lon="5.85311">
        <ele>1729</ele>
        <time>2022-03-10T15:21:00.335Z</time>
      </trkpt>
      <trkpt lat="45.35088" lon="5.85306">
        <ele>1731</ele>
        <time>2022-03-10T15:21:12.355Z</time>
      </trkpt>
      <trkpt lat="45.35097" lon="5.85302">
        <ele>1736</ele>
        <time>2022-03-10T15:21:29.332Z</time>
      </trkpt>
      <trkpt lat="45.35107" lon="5.85299">
        <ele>1740</ele>
        <time>2022-03-10T15:21:46.345Z</time>
      </trkpt>
      <trkpt lat="45.35115" lon="5.85294">
        <ele>1745</ele>
        <time>2022-03-10T15:22:05.349Z</time>
      </trkpt>
      <trkpt lat="45.35123" lon="5.85287">
        <ele>1749</ele>
        <time>2022-03-10T15:22:21.359Z</time>
      </trkpt>
      <trkpt lat="45.35131" lon="5.85281">
        <ele>1752</ele>
        <time>2022-03-10T15:22:33.389Z</time>
      </trkpt>
      <trkpt lat="45.35138" lon="5.85273">
        <ele>1755</ele>
        <time>2022-03-10T15:22:52.347Z</time>
      </trkpt>
      <trkpt lat="45.35129" lon="5.8527">
        <ele>1759</ele>
        <time>2022-03-10T15:23:16.369Z</time>
      </trkpt>
      <trkpt lat="45.3512" lon="5.85265">
        <ele>1761</ele>
        <time>2022-03-10T15:23:31.392Z</time>
      </trkpt>
      <trkpt lat="45.3512" lon="5.85262">
        <ele>1762</ele>
        <time>2022-03-10T15:23:42.394Z</time>
      </trkpt>
      <trkpt lat="45.3512" lon="5.85262">
        <ele>1762</ele>
        <time>2022-03-10T15:23:46.363Z</time>
      </trkpt>
      <trkpt lat="45.35121" lon="5.85256">
        <ele>1763</ele>
        <time>2022-03-10T15:23:47.349Z</time>
      </trkpt>
      <trkpt lat="45.35127" lon="5.8525">
        <ele>1767</ele>
        <time>2022-03-10T15:24:13.407Z</time>
      </trkpt>
      <trkpt lat="45.35127" lon="5.8525">
        <ele>1767</ele>
        <time>2022-03-10T15:24:18.354Z</time>
      </trkpt>
      <trkpt lat="45.35123" lon="5.85252">
        <ele>1768</ele>
        <time>2022-03-10T15:24:19.341Z</time>
      </trkpt>
      <trkpt lat="45.35129" lon="5.85241">
        <ele>1771</ele>
        <time>2022-03-10T15:24:40.432Z</time>
      </trkpt>
      <trkpt lat="45.35137" lon="5.85233">
        <ele>1773</ele>
        <time>2022-03-10T15:24:55.348Z</time>
      </trkpt>
      <trkpt lat="45.35144" lon="5.85225">
        <ele>1774</ele>
        <time>2022-03-10T15:25:06.350Z</time>
      </trkpt>
      <trkpt lat="45.35149" lon="5.85214">
        <ele>1777</ele>
        <time>2022-03-10T15:25:21.366Z</time>
      </trkpt>
      <trkpt lat="45.35158" lon="5.85207">
        <ele>1780</ele>
        <time>2022-03-10T15:25:33.364Z</time>
      </trkpt>
      <trkpt lat="45.35165" lon="5.852">
        <ele>1783</ele>
        <time>2022-03-10T15:25:49.366Z</time>
      </trkpt>
      <trkpt lat="45.35168" lon="5.85188">
        <ele>1786</ele>
        <time>2022-03-10T15:26:06.351Z</time>
      </trkpt>
      <trkpt lat="45.35171" lon="5.85175">
        <ele>1787</ele>
        <time>2022-03-10T15:26:21.397Z</time>
      </trkpt>
      <trkpt lat="45.35175" lon="5.85172">
        <ele>1787</ele>
        <time>2022-03-10T15:26:31.439Z</time>
      </trkpt>
      <trkpt lat="45.35175" lon="5.85172">
        <ele>1787</ele>
        <time>2022-03-10T15:26:44.428Z</time>
      </trkpt>
      <trkpt lat="45.35173" lon="5.85166">
        <ele>1788</ele>
        <time>2022-03-10T15:26:45.364Z</time>
      </trkpt>
      <trkpt lat="45.35171" lon="5.85153">
        <ele>1789</ele>
        <time>2022-03-10T15:27:02.446Z</time>
      </trkpt>
      <trkpt lat="45.35167" lon="5.85141">
        <ele>1790</ele>
        <time>2022-03-10T15:27:13.446Z</time>
      </trkpt>
      <trkpt lat="45.35168" lon="5.85127">
        <ele>1789</ele>
        <time>2022-03-10T15:27:25.397Z</time>
      </trkpt>
      <trkpt lat="45.35175" lon="5.85118">
        <ele>1789</ele>
        <time>2022-03-10T15:27:33.437Z</time>
      </trkpt>
      <trkpt lat="45.35173" lon="5.85116">
        <ele>1789</ele>
        <time>2022-03-10T15:27:44.394Z</time>
      </trkpt>
      <trkpt lat="45.35173" lon="5.85116">
        <ele>1789</ele>
        <time>2022-03-10T15:33:23.421Z</time>
      </trkpt>
      <trkpt lat="45.3517" lon="5.85119">
        <ele>1786</ele>
        <time>2022-03-10T15:33:24.433Z</time>
      </trkpt>
      <trkpt lat="45.3517" lon="5.85118">
        <ele>1786</ele>
        <time>2022-03-10T15:33:30.411Z</time>
      </trkpt>
      <trkpt lat="45.3517" lon="5.85118">
        <ele>1786</ele>
        <time>2022-03-10T15:35:45.446Z</time>
      </trkpt>
      <trkpt lat="45.35173" lon="5.85114">
        <ele>1784</ele>
        <time>2022-03-10T15:35:46.322Z</time>
      </trkpt>
      <trkpt lat="45.35173" lon="5.85114">
        <ele>1785</ele>
        <time>2022-03-10T15:35:51.355Z</time>
      </trkpt>
      <trkpt lat="45.35173" lon="5.85114">
        <ele>1785</ele>
        <time>2022-03-10T15:38:01.365Z</time>
      </trkpt>
      <trkpt lat="45.35176" lon="5.85079">
        <ele>1791</ele>
        <time>2022-03-10T15:38:02.358Z</time>
      </trkpt>
      <trkpt lat="45.35171" lon="5.85065">
        <ele>1790</ele>
        <time>2022-03-10T15:38:05.359Z</time>
      </trkpt>
      <trkpt lat="45.3516" lon="5.85052">
        <ele>1790</ele>
        <time>2022-03-10T15:38:08.360Z</time>
      </trkpt>
      <trkpt lat="45.35163" lon="5.85038">
        <ele>1789</ele>
        <time>2022-03-10T15:38:10.354Z</time>
      </trkpt>
      <trkpt lat="45.35158" lon="5.85022">
        <ele>1789</ele>
        <time>2022-03-10T15:38:13.357Z</time>
      </trkpt>
      <trkpt lat="45.35154" lon="5.85001">
        <ele>1788</ele>
        <time>2022-03-10T15:38:16.371Z</time>
      </trkpt>
      <trkpt lat="45.35153" lon="5.84975">
        <ele>1787</ele>
        <time>2022-03-10T15:38:19.359Z</time>
      </trkpt>
      <trkpt lat="45.35146" lon="5.84947">
        <ele>1786</ele>
        <time>2022-03-10T15:38:22.333Z</time>
      </trkpt>
      <trkpt lat="45.3514" lon="5.8491">
        <ele>1784</ele>
        <time>2022-03-10T15:38:26.347Z</time>
      </trkpt>
      <trkpt lat="45.35144" lon="5.84893">
        <ele>1779</ele>
        <time>2022-03-10T15:38:33.326Z</time>
      </trkpt>
      <trkpt lat="45.35144" lon="5.84893">
        <ele>1779</ele>
        <time>2022-03-10T15:39:41.330Z</time>
      </trkpt>
      <trkpt lat="45.35142" lon="5.84887">
        <ele>1752</ele>
        <time>2022-03-10T15:39:42.373Z</time>
      </trkpt>
      <trkpt lat="45.3514" lon="5.84867">
        <ele>1752</ele>
        <time>2022-03-10T15:39:45.353Z</time>
      </trkpt>
      <trkpt lat="45.35133" lon="5.84856">
        <ele>1752</ele>
        <time>2022-03-10T15:39:47.321Z</time>
      </trkpt>
      <trkpt lat="45.35127" lon="5.84841">
        <ele>1751</ele>
        <time>2022-03-10T15:39:49.386Z</time>
      </trkpt>
      <trkpt lat="45.35127" lon="5.84823">
        <ele>1750</ele>
        <time>2022-03-10T15:39:51.383Z</time>
      </trkpt>
      <trkpt lat="45.35121" lon="5.84809">
        <ele>1750</ele>
        <time>2022-03-10T15:39:53.392Z</time>
      </trkpt>
      <trkpt lat="45.35116" lon="5.84795">
        <ele>1748</ele>
        <time>2022-03-10T15:39:55.378Z</time>
      </trkpt>
      <trkpt lat="45.35109" lon="5.84779">
        <ele>1747</ele>
        <time>2022-03-10T15:39:57.353Z</time>
      </trkpt>
      <trkpt lat="45.35111" lon="5.84756">
        <ele>1746</ele>
        <time>2022-03-10T15:39:59.380Z</time>
      </trkpt>
      <trkpt lat="45.351" lon="5.84729">
        <ele>1743</ele>
        <time>2022-03-10T15:40:02.327Z</time>
      </trkpt>
      <trkpt lat="45.35091" lon="5.84686">
        <ele>1738</ele>
        <time>2022-03-10T15:40:06.372Z</time>
      </trkpt>
      <trkpt lat="45.35081" lon="5.84645">
        <ele>1732</ele>
        <time>2022-03-10T15:40:10.321Z</time>
      </trkpt>
      <trkpt lat="45.35077" lon="5.84591">
        <ele>1723</ele>
        <time>2022-03-10T15:40:15.338Z</time>
      </trkpt>
      <trkpt lat="45.35075" lon="5.84543">
        <ele>1713</ele>
        <time>2022-03-10T15:40:20.338Z</time>
      </trkpt>
      <trkpt lat="45.35071" lon="5.84538">
        <ele>1695</ele>
        <time>2022-03-10T15:40:28.357Z</time>
      </trkpt>
      <trkpt lat="45.35071" lon="5.84538">
        <ele>1695</ele>
        <time>2022-03-10T15:42:57.342Z</time>
      </trkpt>
      <trkpt lat="45.35073" lon="5.8453">
        <ele>1646</ele>
        <time>2022-03-10T15:42:58.334Z</time>
      </trkpt>
      <trkpt lat="45.35073" lon="5.8453">
        <ele>1646</ele>
        <time>2022-03-10T15:43:04.340Z</time>
      </trkpt>
      <trkpt lat="45.35073" lon="5.8453">
        <ele>1646</ele>
        <time>2022-03-10T15:45:48.345Z</time>
      </trkpt>
      <trkpt lat="45.35076" lon="5.84516">
        <ele>1646</ele>
        <time>2022-03-10T15:45:49.356Z</time>
      </trkpt>
      <trkpt lat="45.35074" lon="5.84512">
        <ele>1646</ele>
        <time>2022-03-10T15:45:59.385Z</time>
      </trkpt>
      <trkpt lat="45.35074" lon="5.84512">
        <ele>1646</ele>
        <time>2022-03-10T15:47:37.357Z</time>
      </trkpt>
      <trkpt lat="45.35081" lon="5.84487">
        <ele>1646</ele>
        <time>2022-03-10T15:47:38.345Z</time>
      </trkpt>
      <trkpt lat="45.35086" lon="5.84471">
        <ele>1646</ele>
        <time>2022-03-10T15:47:41.355Z</time>
      </trkpt>
      <trkpt lat="45.35092" lon="5.84457">
        <ele>1645</ele>
        <time>2022-03-10T15:47:43.361Z</time>
      </trkpt>
      <trkpt lat="45.35103" lon="5.84448">
        <ele>1644</ele>
        <time>2022-03-10T15:47:45.350Z</time>
      </trkpt>
      <trkpt lat="45.35122" lon="5.84442">
        <ele>1644</ele>
        <time>2022-03-10T15:47:47.395Z</time>
      </trkpt>
      <trkpt lat="45.35143" lon="5.84438">
        <ele>1643</ele>
        <time>2022-03-10T15:47:49.373Z</time>
      </trkpt>
      <trkpt lat="45.35166" lon="5.84425">
        <ele>1642</ele>
        <time>2022-03-10T15:47:52.370Z</time>
      </trkpt>
      <trkpt lat="45.35194" lon="5.8441">
        <ele>1640</ele>
        <time>2022-03-10T15:47:56.359Z</time>
      </trkpt>
      <trkpt lat="45.35229" lon="5.84412">
        <ele>1637</ele>
        <time>2022-03-10T15:48:00.384Z</time>
      </trkpt>
      <trkpt lat="45.35265" lon="5.84406">
        <ele>1635</ele>
        <time>2022-03-10T15:48:05.375Z</time>
      </trkpt>
      <trkpt lat="45.353" lon="5.84395">
        <ele>1632</ele>
        <time>2022-03-10T15:48:10.371Z</time>
      </trkpt>
      <trkpt lat="45.35341" lon="5.84371">
        <ele>1628</ele>
        <time>2022-03-10T15:48:15.381Z</time>
      </trkpt>
      <trkpt lat="45.35376" lon="5.84338">
        <ele>1625</ele>
        <time>2022-03-10T15:48:20.376Z</time>
      </trkpt>
      <trkpt lat="45.35413" lon="5.84353">
        <ele>1621</ele>
        <time>2022-03-10T15:48:25.375Z</time>
      </trkpt>
      <trkpt lat="45.35389" lon="5.84313">
        <ele>1613</ele>
        <time>2022-03-10T15:48:36.389Z</time>
      </trkpt>
      <trkpt lat="45.35355" lon="5.8429">
        <ele>1609</ele>
        <time>2022-03-10T15:48:41.396Z</time>
      </trkpt>
      <trkpt lat="45.35319" lon="5.84287">
        <ele>1603</ele>
        <time>2022-03-10T15:48:47.393Z</time>
      </trkpt>
      <trkpt lat="45.35297" lon="5.84249">
        <ele>1597</ele>
        <time>2022-03-10T15:48:52.379Z</time>
      </trkpt>
      <trkpt lat="45.35273" lon="5.84215">
        <ele>1591</ele>
        <time>2022-03-10T15:48:57.375Z</time>
      </trkpt>
      <trkpt lat="45.35244" lon="5.842">
        <ele>1585</ele>
        <time>2022-03-10T15:49:01.345Z</time>
      </trkpt>
      <trkpt lat="45.35208" lon="5.84185">
        <ele>1579</ele>
        <time>2022-03-10T15:49:05.383Z</time>
      </trkpt>
      <trkpt lat="45.35174" lon="5.84174">
        <ele>1574</ele>
        <time>2022-03-10T15:49:09.370Z</time>
      </trkpt>
      <trkpt lat="45.35205" lon="5.84146">
        <ele>1562</ele>
        <time>2022-03-10T15:49:17.394Z</time>
      </trkpt>
      <trkpt lat="45.35241" lon="5.84139">
        <ele>1557</ele>
        <time>2022-03-10T15:49:21.401Z</time>
      </trkpt>
      <trkpt lat="45.35281" lon="5.8414">
        <ele>1551</ele>
        <time>2022-03-10T15:49:26.403Z</time>
      </trkpt>
      <trkpt lat="45.35316" lon="5.84142">
        <ele>1546</ele>
        <time>2022-03-10T15:49:31.394Z</time>
      </trkpt>
      <trkpt lat="45.3535" lon="5.8415">
        <ele>1540</ele>
        <time>2022-03-10T15:49:36.382Z</time>
      </trkpt>
      <trkpt lat="45.35389" lon="5.84143">
        <ele>1536</ele>
        <time>2022-03-10T15:49:41.337Z</time>
      </trkpt>
      <trkpt lat="45.35427" lon="5.84138">
        <ele>1532</ele>
        <time>2022-03-10T15:49:46.372Z</time>
      </trkpt>
      <trkpt lat="45.35462" lon="5.84144">
        <ele>1528</ele>
        <time>2022-03-10T15:49:51.391Z</time>
      </trkpt>
      <trkpt lat="45.35501" lon="5.84156">
        <ele>1525</ele>
        <time>2022-03-10T15:49:56.383Z</time>
      </trkpt>
      <trkpt lat="45.35537" lon="5.84168">
        <ele>1522</ele>
        <time>2022-03-10T15:50:01.421Z</time>
      </trkpt>
      <trkpt lat="45.35575" lon="5.84171">
        <ele>1518</ele>
        <time>2022-03-10T15:50:07.401Z</time>
      </trkpt>
      <trkpt lat="45.35608" lon="5.8416">
        <ele>1516</ele>
        <time>2022-03-10T15:50:11.416Z</time>
      </trkpt>
      <trkpt lat="45.35647" lon="5.8416">
        <ele>1513</ele>
        <time>2022-03-10T15:50:15.398Z</time>
      </trkpt>
      <trkpt lat="45.35693" lon="5.84166">
        <ele>1509</ele>
        <time>2022-03-10T15:50:19.409Z</time>
      </trkpt>
      <trkpt lat="45.35738" lon="5.84157">
        <ele>1506</ele>
        <time>2022-03-10T15:50:23.375Z</time>
      </trkpt>
      <trkpt lat="45.35781" lon="5.84141">
        <ele>1502</ele>
        <time>2022-03-10T15:50:27.422Z</time>
      </trkpt>
      <trkpt lat="45.35832" lon="5.84133">
        <ele>1497</ele>
        <time>2022-03-10T15:50:32.409Z</time>
      </trkpt>
      <trkpt lat="45.35882" lon="5.84138">
        <ele>1491</ele>
        <time>2022-03-10T15:50:37.397Z</time>
      </trkpt>
      <trkpt lat="45.35938" lon="5.84133">
        <ele>1483</ele>
        <time>2022-03-10T15:50:43.401Z</time>
      </trkpt>
      <trkpt lat="45.35985" lon="5.84141">
        <ele>1475</ele>
        <time>2022-03-10T15:50:49.417Z</time>
      </trkpt>
      <trkpt lat="45.36026" lon="5.84153">
        <ele>1468</ele>
        <time>2022-03-10T15:50:54.395Z</time>
      </trkpt>
      <trkpt lat="45.36066" lon="5.84161">
        <ele>1458</ele>
        <time>2022-03-10T15:51:01.424Z</time>
      </trkpt>
      <trkpt lat="45.36064" lon="5.84165">
        <ele>1448</ele>
        <time>2022-03-10T15:51:07.399Z</time>
      </trkpt>
      <trkpt lat="45.36064" lon="5.84165">
        <ele>1448</ele>
        <time>2022-03-10T15:51:38.396Z</time>
      </trkpt>
      <trkpt lat="45.3607" lon="5.84154">
        <ele>1412</ele>
        <time>2022-03-10T15:51:39.412Z</time>
      </trkpt>
      <trkpt lat="45.36076" lon="5.84141">
        <ele>1411</ele>
        <time>2022-03-10T15:51:41.406Z</time>
      </trkpt>
      <trkpt lat="45.36088" lon="5.8413">
        <ele>1410</ele>
        <time>2022-03-10T15:51:43.390Z</time>
      </trkpt>
      <trkpt lat="45.36094" lon="5.8412">
        <ele>1409</ele>
        <time>2022-03-10T15:51:44.445Z</time>
      </trkpt>
      <trkpt lat="45.36101" lon="5.84109">
        <ele>1409</ele>
        <time>2022-03-10T15:51:45.375Z</time>
      </trkpt>
      <trkpt lat="45.3611" lon="5.841">
        <ele>1408</ele>
        <time>2022-03-10T15:51:46.398Z</time>
      </trkpt>
      <trkpt lat="45.36115" lon="5.84089">
        <ele>1408</ele>
        <time>2022-03-10T15:51:47.394Z</time>
      </trkpt>
      <trkpt lat="45.36119" lon="5.84076">
        <ele>1408</ele>
        <time>2022-03-10T15:51:48.400Z</time>
      </trkpt>
      <trkpt lat="45.36127" lon="5.84058">
        <ele>1407</ele>
        <time>2022-03-10T15:51:50.418Z</time>
      </trkpt>
      <trkpt lat="45.36131" lon="5.8403">
        <ele>1405</ele>
        <time>2022-03-10T15:51:55.330Z</time>
      </trkpt>
      <trkpt lat="45.36149" lon="5.83999">
        <ele>1402</ele>
        <time>2022-03-10T15:52:00.330Z</time>
      </trkpt>
      <trkpt lat="45.36172" lon="5.83967">
        <ele>1398</ele>
        <time>2022-03-10T15:52:04.351Z</time>
      </trkpt>
      <trkpt lat="45.36196" lon="5.83934">
        <ele>1395</ele>
        <time>2022-03-10T15:52:08.361Z</time>
      </trkpt>
      <trkpt lat="45.36218" lon="5.83904">
        <ele>1390</ele>
        <time>2022-03-10T15:52:12.410Z</time>
      </trkpt>
      <trkpt lat="45.36249" lon="5.83882">
        <ele>1379</ele>
        <time>2022-03-10T15:52:20.412Z</time>
      </trkpt>
      <trkpt lat="45.36279" lon="5.83862">
        <ele>1370</ele>
        <time>2022-03-10T15:52:25.427Z</time>
      </trkpt>
      <trkpt lat="45.36308" lon="5.83866">
        <ele>1365</ele>
        <time>2022-03-10T15:52:28.368Z</time>
      </trkpt>
      <trkpt lat="45.36344" lon="5.83857">
        <ele>1357</ele>
        <time>2022-03-10T15:52:32.430Z</time>
      </trkpt>
      <trkpt lat="45.36377" lon="5.83852">
        <ele>1346</ele>
        <time>2022-03-10T15:52:37.397Z</time>
      </trkpt>
      <trkpt lat="45.36416" lon="5.83856">
        <ele>1336</ele>
        <time>2022-03-10T15:52:42.368Z</time>
      </trkpt>
      <trkpt lat="45.36459" lon="5.83857">
        <ele>1321</ele>
        <time>2022-03-10T15:52:48.378Z</time>
      </trkpt>
      <trkpt lat="45.36503" lon="5.83854">
        <ele>1308</ele>
        <time>2022-03-10T15:52:53.404Z</time>
      </trkpt>
      <trkpt lat="45.36546" lon="5.83859">
        <ele>1298</ele>
        <time>2022-03-10T15:52:57.361Z</time>
      </trkpt>
      <trkpt lat="45.36592" lon="5.83865">
        <ele>1285</ele>
        <time>2022-03-10T15:53:02.409Z</time>
      </trkpt>
      <trkpt lat="45.36632" lon="5.83869">
        <ele>1267</ele>
        <time>2022-03-10T15:53:09.393Z</time>
      </trkpt>
      <trkpt lat="45.36668" lon="5.83885">
        <ele>1250</ele>
        <time>2022-03-10T15:53:16.403Z</time>
      </trkpt>
      <trkpt lat="45.36694" lon="5.83904">
        <ele>1235</ele>
        <time>2022-03-10T15:53:23.386Z</time>
      </trkpt>
      <trkpt lat="45.3671" lon="5.83937">
        <ele>1225</ele>
        <time>2022-03-10T15:53:28.385Z</time>
      </trkpt>
      <trkpt lat="45.36717" lon="5.83972">
        <ele>1218</ele>
        <time>2022-03-10T15:53:32.414Z</time>
      </trkpt>
      <trkpt lat="45.3672" lon="5.84008">
        <ele>1211</ele>
        <time>2022-03-10T15:53:36.434Z</time>
      </trkpt>
      <trkpt lat="45.36722" lon="5.84046">
        <ele>1202</ele>
        <time>2022-03-10T15:53:41.420Z</time>
      </trkpt>
      <trkpt lat="45.36737" lon="5.84081">
        <ele>1194</ele>
        <time>2022-03-10T15:53:46.373Z</time>
      </trkpt>
      <trkpt lat="45.36762" lon="5.84081">
        <ele>1184</ele>
        <time>2022-03-10T15:53:53.384Z</time>
      </trkpt>
      <trkpt lat="45.3678" lon="5.84066">
        <ele>1175</ele>
        <time>2022-03-10T15:54:00.391Z</time>
      </trkpt>
      <trkpt lat="45.36793" lon="5.84052">
        <ele>1169</ele>
        <time>2022-03-10T15:54:05.398Z</time>
      </trkpt>
      <trkpt lat="45.36803" lon="5.84039">
        <ele>1165</ele>
        <time>2022-03-10T15:54:09.334Z</time>
      </trkpt>
      <trkpt lat="45.36811" lon="5.84026">
        <ele>1162</ele>
        <time>2022-03-10T15:54:12.377Z</time>
      </trkpt>
      <trkpt lat="45.3682" lon="5.8401">
        <ele>1160</ele>
        <time>2022-03-10T15:54:15.411Z</time>
      </trkpt>
      <trkpt lat="45.36829" lon="5.83991">
        <ele>1158</ele>
        <time>2022-03-10T15:54:18.393Z</time>
      </trkpt>
      <trkpt lat="45.3683" lon="5.84005">
        <ele>1153</ele>
        <time>2022-03-10T15:54:35.391Z</time>
      </trkpt>
      <trkpt lat="45.36829" lon="5.84006">
        <ele>1152</ele>
        <time>2022-03-10T15:54:48.394Z</time>
      </trkpt>
      <trkpt lat="45.36829" lon="5.84006">
        <ele>1152</ele>
        <time>2022-03-10T15:55:22.377Z</time>
      </trkpt>
      <trkpt lat="45.36832" lon="5.84003">
        <ele>1149</ele>
        <time>2022-03-10T15:55:23.381Z</time>
      </trkpt>
      <trkpt lat="45.36842" lon="5.84003">
        <ele>1149</ele>
        <time>2022-03-10T15:55:29.371Z</time>
      </trkpt>
      <trkpt lat="45.36849" lon="5.84008">
        <ele>1147</ele>
        <time>2022-03-10T15:55:47.391Z</time>
      </trkpt>
      <trkpt lat="45.36849" lon="5.84008">
        <ele>1147</ele>
        <time>2022-03-10T15:57:07.395Z</time>
      </trkpt>
      <trkpt lat="45.36846" lon="5.84017">
        <ele>1136</ele>
        <time>2022-03-10T15:57:08.417Z</time>
      </trkpt>
      <trkpt lat="45.36845" lon="5.84017">
        <ele>1135</ele>
        <time>2022-03-10T15:57:14.413Z</time>
      </trkpt>
      <trkpt lat="45.36845" lon="5.84017">
        <ele>1084</ele>
        <time>2022-03-10T15:58:29.735Z</time>
      </trkpt>
    </trkseg>
  </trk>
</gpx>